[[{"header":{"parameterUnit":"m.s-1","parameterCategory":1,"la1":30.6,"la2":28.766,"lo1":-90.7593,"lo2":-88.6598,"dy":0.0162,"dx":0.0183,"nx":116,"ny":114,"refTime":"2024-06-10T00:00:00:Z","depth":0,"parameterNumber":2,"parameterNumberName":"U-component_of_WINDS"},"data":[0.0,0.0,0.0,0.0,0.0,0.0,0.0,0.0,0.0,0.0,0.0,0.0,0.0,0.0,0.0,0.0,0.0,0.0,0.0,0.0,0.0,0.0,0.0,0.0,0.0,0.0,0.0,0.0,0.0,0.0,0.0,0.0,0.0,0.0,0.0,0.0,0.0,0.0,0.0,0.0,0.0,0.0,0.0,0.0,0.0,0.0,0.0,0.0,0.0,0.0,0.0,0.0,0.0,0.0,0.0,0.0,0.0,0.0,0.0,0.0,0.0,0.0,0.0,0.0,0.0,0.0,0.0,0.0,0.0,0.0,0.0,0.0,0.0,0.0,0.0,0.0,0.0,0.0,0.0,0.0,0.0,0.0,0.0,0.0,0.0,0.0,0.0,0.0,0.0,0.0,0.0,0.0,0.0,0.0,0.0,0.0,0.0,0.0,0.0,0.0,0.0,0.0,0.0,0.0,0.0,0.0,0.0,0.0,0.0,0.0,0.0,0.0,0.0,0.0,0.0,0.0,0.0,0.0,0.0,0.0,0.0,0.0,0.0,0.0,0.0,0.0,0.0,0.0,0.0,0.0,0.0,0.0,0.0,0.0,0.0,0.0,0.0,0.0,0.0,0.0,0.0,0.0,0.0,0.0,0.0,0.0,0.0,0.0,0.0,0.0,0.0,0.0,0.0,0.0,0.0,0.0,0.0,0.0,0.0,0.0,0.0,0.0,0.0,0.0,0.0,0.0,0.0,0.0,0.0,0.0,0.0,0.0,0.0,0.0,0.0,0.0,0.0,0.0,0.0,0.0,0.0,0.0,0.0,0.0,0.0,0.0,0.0,0.0,0.0,0.0,0.0,0.0,0.0,0.0,0.0,0.0,0.0,0.0,0.0,0.0,0.0,0.0,0.0,0.0,0.0,0.0,0.0,0.0,0.0,0.0,0.0,0.0,0.0,0.0,0.0,0.0,0.0,0.0,0.0,0.0,0.0,0.0,0.0,0.0,0.0,0.0,0.0,0.0,0.0,0.0,0.0,0.0,0.0,0.0,0.0,0.0,0.0,0.0,0.0,0.0,0.0,0.0,0.0,0.0,0.0,0.0,0.0,0.0,0.0,0.0,0.0,0.0,0.0,0.0,0.0,0.0,0.0,0.0,0.0,0.0,0.0,0.0,0.0,0.0,0.0,0.0,0.0,0.0,0.0,0.0,0.0,0.0,0.0,0.0,0.0,0.0,0.0,0.0,0.0,0.0,0.0,0.0,0.0,0.0,0.0,0.0,0.0,0.0,0.0,0.0,0.0,0.0,0.0,0.0,0.0,0.0,0.0,0.0,0.0,0.0,0.0,0.0,0.0,0.0,0.0,0.0,0.0,0.0,0.0,0.0,0.0,0.0,0.0,0.0,0.0,0.0,0.0,0.0,0.0,0.0,0.0,0.0,0.0,0.0,0.0,0.0,0.0,0.0,0.0,0.0,0.0,0.0,0.0,0.0,0.0,0.0,0.0,0.0,0.0,0.0,0.0,0.0,0.0,0.0,0.0,0.0,0.0,0.0,0.0,0.0,0.0,0.0,0.0,0.0,0.0,0.0,0.0,0.0,0.0,0.0,0.0,0.0,0.0,0.0,0.0,0.0,0.0,0.0,0.0,0.0,0.0,0.0,0.0,0.0,0.0,0.0,0.0,0.0,0.0,0.0,0.0,0.0,0.0,0.0,0.0,0.0,0.0,0.0,0.0,0.0,0.0,0.0,0.0,0.0,0.0,0.0,0.0,0.0,0.0,0.0,0.0,0.0,0.0,0.0,0.0,0.0,0.0,0.0,0.0,0.0,0.0,0.0,0.0,0.0,0.0,0.0,0.0,0.0,0.0,0.0,0.0,0.0,0.0,0.0,0.0,0.0,0.0,0.0,0.0,0.0,0.0,0.0,0.0,0.0,0.0,0.0,0.0,0.0,0.0,0.0,0.0,0.0,0.0,0.0,0.0,0.0,0.0,0.0,0.0,0.0,0.0,0.0,0.0,0.0,0.0,0.0,0.0,0.0,0.0,0.0,0.0,0.0,0.0,0.0,0.0,0.0,0.0,0.0,0.0,0.0,0.0,0.0,0.0,0.0,0.0,0.0,0.0,0.0,0.0,0.0,0.0,0.0,0.0,0.0,0.0,0.0,0.0,0.0,0.0,0.0,0.0,0.0,0.0,0.0,0.0,0.0,0.0,0.0,0.0,0.0,0.0,0.0,0.0,0.0,0.0,0.0,0.0,0.0,0.0,0.0,0.0,0.0,0.0,0.0,0.0,0.0,0.0,0.0,0.0,0.0,0.0,0.0,0.0,0.0,0.0,0.0,0.0,0.0,0.0,0.0,0.0,0.0,0.0,0.0,0.0,0.0,0.0,0.0,0.0,0.0,0.0,0.0,0.0,0.0,0.0,0.0,0.0,0.0,0.0,0.0,0.0,0.0,0.0,0.0,0.0,0.0,0.0,0.0,0.0,0.0,0.0,0.0,0.0,0.0,0.0,0.0,0.0,0.0,0.0,0.0,0.0,0.0,0.0,0.0,0.0,0.0,0.0,0.0,0.0,0.0,0.0,0.0,0.0,0.0,0.0,0.0,0.0,0.0,0.0,0.0,0.0,0.0,0.0,0.0,0.0,0.0,0.0,0.0,0.0,0.0,0.0,0.0,0.0,0.0,0.0,0.0,0.0,0.0,0.0,0.0,0.0,0.0,0.0,0.0,0.0,0.0,0.0,0.0,0.0,0.0,0.0,0.0,0.0,0.0,0.0,0.0,0.0,0.0,0.0,0.0,0.0,0.0,0.0,0.0,0.0,0.0,0.0,0.0,0.0,0.0,0.0,0.0,0.0,0.0,0.0,0.0,0.0,0.0,0.0,0.0,0.0,0.0,0.0,0.0,0.0,0.0,0.0,0.0,0.0,0.0,0.0,0.0,0.0,0.0,0.0,0.0,0.0,0.0,0.0,0.0,0.0,0.0,0.0,0.0,0.0,0.0,0.0,0.0,0.0,0.0,0.0,0.0,0.0,0.0,0.0,0.0,0.0,0.0,0.0,0.0,0.0,0.0,0.0,0.0,0.0,0.0,0.0,0.0,0.0,0.0,0.0,0.0,0.0,0.0,0.0,0.0,0.0,0.0,0.0,0.0,0.0,0.0,0.0,0.0,0.0,0.0,0.0,0.0,0.0,0.0,0.0,0.0,0.0,0.0,0.0,0.0,0.0,0.0,0.0,0.0,0.0,0.0,0.0,0.0,0.0,0.0,0.0,0.0,0.0,0.0,0.0,0.0,0.0,0.0,0.0,0.0,0.0,0.0,0.0,0.0,0.0,0.0,0.0,0.0,0.0,0.0,0.0,0.0,0.0,0.0,0.0,0.0,0.0,0.0,0.0,0.0,0.0,0.0,0.0,0.0,0.0,0.0,0.0,0.0,0.0,0.0,0.0,0.0,0.0,0.0,0.0,0.0,0.0,0.0,0.0,0.0,0.0,0.0,0.0,0.0,0.0,0.0,0.0,0.0,0.0,0.0,0.0,0.0,0.0,0.0,0.0,0.0,0.0,0.0,0.0,0.0,0.0,0.0,0.0,0.0,0.0,0.0,0.0,0.0,0.0,0.0,0.0,0.0,0.0,0.0,0.0,0.0,0.0,0.0,0.0,0.0,0.0,0.0,0.0,0.0,0.0,0.0,0.0,0.0,0.0,0.0,0.0,0.0,0.0,0.0,0.0,0.0,0.0,0.0,0.0,0.0,0.0,0.0,0.0,0.0,0.0,0.0,0.0,0.0,0.0,0.0,0.0,0.0,0.0,0.0,0.0,0.0,0.0,0.0,0.0,0.0,0.0,0.0,0.0,0.0,0.0,0.0,0.0,0.0,0.0,0.0,0.0,0.0,0.0,0.0,0.0,0.0,0.0,0.0,0.0,0.0,0.0,0.0,0.0,0.0,0.0,0.0,0.0,0.0,0.0,0.0,0.0,0.0,0.0,0.0,0.0,0.0,0.0,0.0,0.0,0.0,0.0,0.0,0.0,0.0,0.0,0.0,0.0,0.0,0.0,0.0,0.0,0.0,0.0,0.0,0.0,0.0,0.0,0.0,0.0,0.0,0.0,0.0,0.0,0.0,0.0,0.0,0.0,0.0,0.0,0.0,0.0,0.0,0.0,0.0,0.0,0.0,0.0,0.0,0.0,0.0,0.0,0.0,0.0,0.0,0.0,0.0,0.0,0.0,0.0,0.0,0.0,0.0,0.0,0.0,0.0,0.0,0.0,0.0,0.0,0.0,0.0,0.0,0.0,0.0,0.0,0.0,0.0,0.0,0.0,0.0,0.0,0.0,0.0,0.0,0.0,0.0,0.0,0.0,0.0,0.0,0.0,0.0,0.0,0.0,0.0,0.0,0.0,0.0,0.0,0.0,0.0,0.0,0.0,0.0,0.0,0.0,0.0,0.0,0.0,0.0,0.0,0.0,0.0,0.0,0.0,0.0,0.0,0.0,0.0,0.0,0.0,0.0,0.0,0.0,0.0,0.0,0.0,0.0,0.0,0.0,0.0,0.0,0.0,0.0,0.0,0.0,0.0,0.0,0.0,0.0,0.0,0.0,0.0,0.0,0.0,0.0,0.0,0.0,0.0,0.0,0.0,0.0,0.0,0.0,0.0,0.0,0.0,0.0,0.0,0.0,0.0,0.0,0.0,0.0,0.0,0.0,0.0,0.0,0.0,0.0,0.0,0.0,0.0,0.0,0.0,0.0,0.0,0.0,0.0,0.0,0.0,0.0,0.0,0.0,0.0,0.0,0.0,0.0,0.0,0.0,0.0,0.0,0.0,0.0,0.0,0.0,0.0,0.0,0.0,0.0,0.0,0.0,0.0,0.0,0.0,0.0,0.0,0.0,0.0,0.0,0.0,0.0,0.0,0.0,0.0,0.0,0.0,0.0,0.0,0.0,0.0,0.0,0.0,0.0,0.0,0.0,0.0,0.0,0.0,0.0,0.0,0.0,0.0,0.0,0.0,0.0,0.0,0.0,0.0,0.0,0.0,0.0,0.0,0.0,0.0,0.0,0.0,0.0,0.0,0.0,0.0,0.0,0.0,0.0,0.0,0.0,0.0,0.0,0.0,0.0,0.0,0.0,0.0,0.0,0.0,0.0,0.0,0.0,0.0,0.0,0.0,0.0,0.0,0.0,0.0,0.0,0.0,0.0,0.0,0.0,0.0,0.0,0.0,0.0,0.0,0.0,0.0,0.0,0.0,0.0,0.0,0.0,0.0,0.0,0.0,0.0,0.0,0.0,0.0,0.0,0.0,0.0,0.0,0.0,0.0,0.0,0.0,0.0,0.0,0.0,0.0,0.0,0.0,0.0,0.0,0.0,0.0,0.0,0.0,0.0,0.0,0.0,0.0,0.0,0.0,0.0,0.0,0.0,0.0,0.0,0.0,0.0,0.0,0.0,0.0,0.0,0.0,0.0,0.0,0.0,0.0,0.0,0.0,0.0,0.0,0.0,0.0,0.0,0.0,0.0,0.0,0.0,0.0,0.0,0.0,0.0,0.0,0.0,0.0,0.0,0.0,0.0,0.0,0.0,0.0,0.0,0.0,0.0,0.0,0.0,0.0,0.0,0.0,0.0,0.0,0.0,0.0,0.0,0.0,0.0,0.0,0.0,0.0,0.0,0.0,0.0,0.0,0.0,0.0,0.0,0.0,0.0,0.0,0.0,0.0,0.0,0.0,0.0,0.0,0.0,0.0,0.0,0.0,0.0,0.0,0.0,0.0,0.0,0.0,0.0,0.0,0.0,0.0,0.0,0.0,0.0,0.0,0.0,0.0,0.0,0.0,0.0,0.0,0.0,0.0,0.0,0.0,0.0,0.0,0.0,0.0,0.0,0.0,0.0,0.0,0.0,0.0,0.0,0.0,0.0,0.0,0.0,0.0,0.0,0.0,0.0,0.0,0.0,0.0,0.0,0.0,0.0,0.0,0.0,0.0,0.0,0.0,0.0,0.0,0.0,0.0,0.0,0.0,0.0,0.0,0.0,0.0,0.0,0.0,0.0,0.0,0.0,0.0,0.0,0.0,0.0,0.0,0.0,0.0,0.0,0.0,0.0,0.0,0.0,-1.7825,0.0,0.0,0.0,0.0,0.0,0.0,0.0,0.0,0.0,0.0,0.0,0.0,0.0,0.0,0.0,0.0,0.0,0.0,0.0,0.0,0.0,0.0,0.0,0.0,1.4455,1.4851,1.4756,1.4634,1.4511,1.4418,0.0,0.0,0.0,0.0,0.0,1.4114,1.387,1.3659,1.3435,1.3024,1.2346,1.1442,1.1757,1.1588,1.0979,0.0,0.0,0.0,0.0,0.0,0.0,0.0,0.0,0.0,0.0,0.0,0.0,0.0,0.0,0.0,0.0,0.0,0.0,0.0,0.0,0.0,0.0,0.0,0.0,0.0,0.0,0.0,0.0,0.0,0.0,0.0,0.0,0.0,0.0,0.0,0.0,0.0,0.0,0.0,0.0,0.0,0.0,0.0,0.0,0.0,0.0,0.0,0.0,0.0,0.0,0.0,0.0,0.0,0.0,0.0,0.0,0.0,0.0,0.0,0.0,0.0,0.0,0.0,0.0,0.0,0.0,0.0,0.0,0.0,0.0,0.0,-1.7936,0.0,0.0,0.0,0.0,0.0,0.0,0.0,0.0,0.0,0.0,0.0,0.0,0.0,0.0,0.0,0.0,0.0,0.0,0.0,0.0,0.0,1.3448,1.343,1.4179,1.4614,1.4436,1.4231,1.4047,1.3896,1.3856,0.0,0.0,0.0,1.4069,1.3949,1.3785,1.3663,1.353,1.2636,1.22,1.2205,1.1562,1.0967,1.0321,1.012,0.0,0.0,0.0,0.0,0.0,0.0,0.0,0.0,0.0,0.0,0.0,0.0,0.0,0.0,0.0,0.0,0.0,0.0,0.0,0.0,0.0,0.0,0.0,0.0,0.0,0.0,0.0,0.0,0.0,0.0,0.0,0.0,0.0,0.0,0.0,0.0,0.0,0.0,0.0,0.0,0.0,0.0,0.0,0.0,0.0,0.0,0.0,0.0,0.0,0.0,0.0,0.0,0.0,0.0,0.0,0.0,0.0,0.0,0.0,0.0,0.0,0.0,0.0,-1.946,-1.9469,-1.9865,-1.9269,-1.9128,-1.9191,-1.9057,-1.8528,-1.7697,-1.739,0.0,0.0,0.0,0.0,0.0,0.0,0.0,0.0,0.0,0.0,0.0,0.0,0.0,0.0,0.0,0.0,0.0,0.0,0.0,1.2439,1.2317,1.3482,1.4136,1.3772,1.3551,1.3332,1.3076,1.316,0.0,0.0,1.3726,1.3832,1.3743,1.399,1.3831,1.3244,1.1976,1.1782,1.2619,1.1438,1.0989,1.1233,1.1084,1.0901,1.057,0.0,0.0,0.0,0.0,0.0,0.0,0.0,0.0,0.0,0.0,0.0,0.0,0.0,0.0,0.0,0.0,0.0,0.0,0.0,0.0,0.0,0.0,0.0,0.0,0.0,0.0,0.0,0.0,0.0,0.0,0.0,0.0,0.0,0.0,0.0,0.0,0.0,0.0,0.0,0.0,0.0,-1.1095,-1.3999,0.0,0.0,0.0,0.0,0.0,0.0,0.0,0.0,0.0,0.0,0.0,0.0,0.0,-1.8478,-1.9695,-1.8897,-1.9125,-2.0374,-1.9885,-1.9576,-1.9377,-1.9319,-1.9118,-1.8866,-1.8985,0.0,-1.7695,-1.7513,0.0,0.0,0.0,0.0,0.0,0.0,0.0,0.0,0.0,0.0,0.0,0.0,0.0,0.0,0.0,0.0,0.0,0.0,0.0,0.0,0.0,1.3207,1.3574,1.2973,1.2754,1.251,1.2199,1.2297,1.2533,1.2873,1.3207,1.361,1.4042,1.4331,1.4345,1.4038,1.3128,1.272,1.2872,1.2149,1.1901,1.2035,1.1816,1.1323,1.0454,0.9648,0.0,0.0,0.0,0.0,0.0,0.0,0.0,0.0,0.0,0.0,0.0,0.0,0.0,0.0,0.0,0.0,0.0,0.0,0.0,0.0,0.0,0.0,0.0,0.0,0.0,0.0,0.0,0.0,0.0,0.0,0.0,0.0,0.0,0.0,0.0,0.0,0.0,0.0,0.0,-1.0518,-1.3116,-1.5265,-1.588,-1.6308,0.0,0.0,0.0,0.0,0.0,0.0,0.0,0.0,0.0,-1.8726,-1.8484,-1.8691,-1.9345,-1.9011,-1.951,-2.092,-2.0818,-2.079,-2.0944,-2.05,-2.0031,-1.963,-1.9286,-1.8771,-1.8083,-1.7979,-1.7747,-1.7456,0.0,0.0,0.0,0.0,-1.9165,-1.9399,0.0,0.0,0.0,0.0,0.0,0.0,0.0,0.0,0.0,0.0,0.0,0.0,1.2354,1.2783,1.2821,1.2336,1.2083,1.1804,0.0,0.0,1.1837,1.2345,1.286,1.3427,1.4084,1.444,1.4692,1.4789,1.4163,1.3684,1.3365,1.3042,1.289,1.2813,1.2472,1.1652,1.0441,0.9857,0.9572,0.0,0.0,0.0,0.0,0.0,0.0,0.0,0.0,0.0,0.0,0.0,0.0,0.0,0.0,0.0,0.0,0.0,0.0,0.0,0.0,0.0,0.0,0.0,0.0,0.0,0.0,0.0,0.0,0.0,0.0,0.0,0.0,0.0,0.0,0.0,0.0,0.0,0.0,-1.3197,-1.5222,-1.6969,-1.7984,-1.8418,0.0,0.0,0.0,0.0,0.0,0.0,-2.0343,-2.0439,-2.0347,-2.0013,-1.9528,-1.943,-1.9647,-1.9501,-2.0118,-2.1472,-2.1452,-2.1609,-2.1965,-2.129,-2.0705,-2.017,-1.9802,-1.9222,-1.8447,-1.8311,-1.8165,-1.8047,-1.8594,-1.8924,-1.9209,-1.9908,-2.0055,-1.9933,0.0,0.0,0.0,0.0,0.0,0.0,0.0,0.0,0.0,0.0,0.0,1.0995,1.209,1.1893,1.179,1.1989,1.1647,1.1397,0.0,0.0,1.1413,1.2,1.278,1.3299,1.3548,1.4113,1.4615,1.5073,1.4323,1.4097,1.4329,1.3931,1.3716,1.3716,1.3064,1.211,1.0973,1.0836,1.0356,0.9588,0.0,0.0,0.0,0.0,0.0,0.0,0.0,0.0,0.0,0.0,0.0,0.0,0.0,0.0,0.0,0.0,0.0,0.0,0.0,0.0,0.0,0.0,0.0,0.0,0.0,0.0,0.0,0.0,0.0,0.0,0.0,0.0,0.0,0.0,0.0,0.0,0.0,0.0,0.0,-2.0174,-2.1435,0.0,0.0,0.0,0.0,-2.1484,-2.1696,-2.1835,-2.1803,-2.1996,-2.192,-2.1575,-2.1574,-2.1631,-2.1866,-2.1,-2.1102,-2.2036,-2.1527,-2.121,-2.109,-2.103,-2.0555,-1.9858,-2.0393,-1.9876,-1.8542,-1.8299,-1.8561,-1.9126,-1.9315,-1.9726,-2.0179,-1.9901,-1.9971,-2.0087,0.0,0.0,0.0,0.0,0.0,1.0234,1.0202,1.0664,1.1148,1.155,1.1266,1.1298,0.0,1.1461,1.0985,1.0893,1.0791,1.0615,1.0302,0.0,1.1087,1.1658,1.2465,1.3483,1.4749,1.5081,1.5436,1.586,1.5248,1.4652,1.3988,1.3763,1.3563,1.342,1.3266,1.2871,1.2199,1.0936,1.0331,1.0164,0.983,0.9986,0.0,0.0,0.0,0.0,0.0,0.0,0.0,0.0,0.0,0.0,0.0,0.0,0.0,0.0,0.0,0.0,0.0,0.0,0.0,0.0,0.0,0.0,0.0,0.0,0.0,0.0,0.0,0.0,0.0,0.0,0.0,0.0,0.0,0.0,0.0,0.0,0.0,-2.1141,-2.2551,0.0,-2.295,-2.3436,-2.3395,-2.2686,-2.3027,-2.3307,-2.3316,-2.2847,-2.2506,-2.2263,-2.1936,-2.157,-2.1188,-2.1286,-2.1589,-2.2018,-2.2273,-2.2207,-2.1913,-2.1913,-2.1512,-2.0854,-2.1083,-2.0988,-2.0695,-2.0731,-2.0362,-1.9772,-2.0752,-2.0953,-2.073,-2.1172,-2.1322,-2.1279,0.0,0.0,0.0,0.0,1.018,1.02,1.0195,1.0949,1.1639,1.2041,1.1408,1.1247,1.217,1.0955,1.0121,1.0303,1.029,1.0147,0.9963,0.0,1.0843,1.143,1.2337,1.3565,1.5148,1.535,1.5573,1.5942,1.5572,1.4903,1.401,1.3952,1.3763,1.342,1.3669,1.3585,1.3214,1.1809,1.1141,1.1024,1.0317,1.0539,1.1166,0.0,0.0,0.0,0.0,0.0,0.0,0.0,0.0,0.0,0.0,0.0,0.0,0.0,0.0,0.0,0.0,0.0,0.0,0.0,0.0,0.0,0.0,0.0,0.0,0.0,0.0,0.0,0.0,0.0,0.0,0.0,0.0,0.0,0.0,0.0,-2.1048,-2.2105,-2.3836,-2.4851,-2.4522,-2.5059,-2.5168,-2.4552,-2.4637,-2.4819,-2.5069,-2.4189,-2.3614,-2.3458,-2.3179,-2.2514,-2.161,-2.1994,-2.2302,-2.2448,-2.2996,-2.3075,-2.2777,-2.2628,-2.2222,-2.1638,-2.186,-2.1862,-2.1838,-2.2628,-2.2269,-2.1285,-2.2118,-2.2202,-2.1875,-2.2221,-2.2241,-2.2197,0.0,0.0,0.0,1.0105,1.015,1.0205,1.019,1.0953,1.1736,1.2261,1.1047,1.0782,1.2401,1.0331,0.9226,1.0253,1.0128,1.0089,1.0342,1.0336,1.0625,1.1375,1.2407,1.3506,1.4569,1.473,1.4971,1.5313,1.5176,1.4834,1.4384,1.4545,1.4312,1.3815,1.4303,1.4304,1.3902,1.3608,1.2991,1.2199,1.1348,1.1733,1.2573,0.0,0.0,0.0,0.0,0.0,0.0,0.0,0.0,0.0,0.0,0.0,0.0,0.0,0.0,0.0,0.0,0.0,0.0,0.0,0.0,0.0,0.0,0.0,0.0,0.0,0.0,0.0,0.0,0.0,0.0,0.0,0.0,0.0,-1.6803,-1.9814,-2.2282,-2.326,-2.559,-2.7066,-2.6859,-2.7594,-2.7817,-2.7186,-2.6523,-2.6366,-2.695,-2.606,-2.5422,-2.5215,-2.5265,-2.4636,-2.3298,-2.3298,-2.3298,-2.3298,-2.3519,-2.3593,-2.3604,-2.3224,-2.2665,-2.2107,-2.272,-2.2539,-2.1834,-2.3767,-2.4242,-2.3845,-2.3417,-2.3452,-2.3629,-2.2911,-2.2665,-2.2616,0.0,0.0,1.0029,1.0086,1.0129,1.0147,1.0183,1.1473,1.2589,1.2967,1.1912,1.1483,1.2441,1.028,0.8984,0.9487,0.9587,0.9685,0.9762,0.0,1.0621,1.1658,1.2362,1.3224,1.4292,1.4485,1.4869,1.5447,1.5006,1.4582,1.4129,1.4194,1.4128,1.3911,1.4286,1.4531,1.4625,1.4375,1.3898,1.3202,1.2206,1.167,1.1435,0.0,0.0,0.0,0.0,0.0,0.0,0.0,0.0,0.0,0.0,0.0,0.0,0.0,0.0,0.0,0.0,0.0,0.0,0.0,0.0,0.0,0.0,0.0,0.0,0.0,0.0,0.0,0.0,0.0,0.0,0.0,-1.5341,-1.7134,-1.8721,-2.1075,-2.3298,-2.4927,-2.6387,-2.7419,-2.7876,-2.7774,-2.7566,-2.7381,-2.6986,-2.6829,-2.693,-2.591,-2.5294,-2.5416,-2.4708,-2.4093,-2.3751,-2.3604,-2.3519,-2.3519,-2.3897,-2.3897,-2.3604,-2.3824,-2.3672,-2.3402,-2.3537,-2.3788,-2.4096,-2.4661,-2.5151,-2.5438,-2.4685,-2.4171,-2.3863,-2.3704,-2.3717,-2.3869,0.0,1.0012,1.0022,1.0092,1.0104,1.0125,1.0189,1.1666,1.2684,1.2452,1.1819,1.148,1.1619,0.9644,0.8537,0.9024,0.9011,0.8979,0.9065,0.0,0.9753,1.0352,1.1117,1.1994,1.2991,1.3346,1.3982,1.4858,1.4571,1.4201,1.3847,1.3987,1.388,1.3618,1.4208,1.4496,1.4547,1.471,1.4292,1.3424,1.2698,1.2076,1.1547,1.1375,1.1491,1.1679,1.0888,1.0714,1.07,0.9926,0.0,0.0,0.0,0.0,0.0,0.0,0.0,0.0,0.0,0.0,0.0,0.0,0.0,0.0,0.0,0.0,0.0,0.0,0.0,0.0,0.0,0.0,0.0,0.0,-1.6136,-1.7923,-2.0074,-2.1949,-2.374,-2.5386,-2.6499,-2.7483,-2.8355,-2.8155,-2.8083,-2.839,-2.7773,-2.7592,-2.799,-2.6609,-2.6067,-2.6531,-2.5487,-2.4743,-2.4383,-2.4116,-2.3897,-2.3751,-2.4043,-2.42,-2.4116,-2.42,-2.423,0.0,-2.4351,-2.4561,-2.4976,-2.5132,-2.5516,0.0,0.0,0.0,0.0,0.0,-2.4462,-2.4575,0.0,1.0017,1.0036,1.0081,1.0091,1.0156,1.0321,1.1699,1.2455,1.1703,0.0,1.1186,1.0686,0.894,0.8116,0.8829,0.8504,0.8234,0.0,0.0,0.79,0.8184,0.9066,1.0059,1.1148,1.1679,1.2589,1.3873,1.3826,1.3695,1.3515,1.373,1.3618,1.3189,1.4021,1.4237,1.4034,1.4644,1.4298,1.323,1.3085,1.28,1.2302,1.12,1.1155,1.1536,1.0939,1.0686,1.0686,1.0596,0.0,0.0,0.0,0.0,0.0,0.0,0.0,0.0,0.0,0.0,0.0,0.0,0.0,0.0,0.0,0.0,0.0,0.0,0.0,0.0,0.0,0.0,0.0,0.0,-1.6901,-1.8431,-2.1116,-2.2738,-2.4107,-2.524,-2.6347,-2.7496,-2.8652,-2.8695,-2.8929,-2.9642,-2.8761,-2.8629,-2.9574,0.0,0.0,0.0,0.0,-2.5931,-2.5087,-2.4694,-2.4345,-2.397,-2.42,-2.4418,-2.479,-2.4476,-2.4584,-2.4998,-2.4981,-2.5004,-2.5079,-2.5319,-2.5443,-2.5487,-2.5357,-2.5498,-2.5757,-2.5224,-2.5087,-2.5019,0.0,1.0047,1.0087,1.0093,1.0096,1.0364,1.1128,1.2119,1.3125,1.4068,1.278,1.1827,1.1933,0.9894,0.865,0.8961,0.8748,0.8055,0.0,0.0,0.3875,0.6679,0.674,0.771,0.9903,1.0295,1.137,1.3168,1.2725,1.2638,1.2967,1.2943,1.2898,1.2837,1.3352,1.3718,1.393,1.4373,1.4148,1.3636,1.3839,1.3114,1.1844,1.1158,1.1215,1.1603,1.093,1.0954,1.1207,1.0575,1.0034,0.9486,0.854,0.7583,0.0,0.0,0.0,0.0,0.0,0.0,0.0,0.0,0.0,0.0,0.0,0.0,0.0,0.0,0.0,0.0,0.0,0.0,0.0,-1.6799,-1.8375,-2.0123,-2.2171,-2.4028,-2.5601,-2.6538,-2.7064,-2.7943,-2.9576,-2.9295,-2.9303,-2.995,-2.9552,-2.9352,-2.9602,-2.8141,-2.7472,-2.7842,-2.6483,-2.5676,-2.5465,-2.4992,-2.4646,-2.4418,0.0,0.0,-2.4585,-2.5055,-2.5289,-2.5405,-2.5588,-2.5838,-2.5955,-2.5321,-2.4931,-2.4766,-2.5356,-2.5669,-2.5864,-2.5546,-2.5501,-2.5436,1.0061,1.0072,1.0106,1.0106,1.0138,1.045,1.1357,1.224,1.3022,1.3624,1.3058,1.2446,1.2059,1.0737,0.995,1.004,0.7601,0.0,0.0,0.1687,0.1123,0.3987,0.4421,0.5484,0.7338,0.8007,0.916,1.0781,1.0713,1.1099,1.1913,1.1879,1.1981,1.214,1.2387,1.2747,1.3243,1.3636,1.3696,1.3632,1.385,1.3372,1.2427,1.1763,1.1721,1.1843,1.1509,1.1385,1.1318,1.0913,1.0285,0.9595,0.852,0.7573,0.6635,0.0,0.0,0.0,0.0,0.0,0.0,0.0,0.0,0.0,0.0,0.0,0.0,0.0,0.0,-1.3789,-1.4848,0.0,-1.6594,-1.8237,-1.928,-2.0731,-2.3054,-2.4668,-2.6015,-2.6954,-2.7725,-2.8592,-2.9681,-2.9719,-2.9883,-3.0329,-3.0097,-2.9775,-2.9449,-2.8352,-2.755,-2.7136,-2.5918,-2.5218,-2.5022,-2.4923,-2.4726,-2.4431,-2.4958,-2.5093,-2.4873,-2.5265,-2.5737,-2.6088,-2.6101,-2.6138,-2.6147,-2.5245,-2.4648,-2.4273,-2.4838,-2.5182,-2.5453,-2.5453,-2.5535,-2.5606,1.0171,1.0129,1.0125,1.0121,1.0302,1.0744,1.1612,1.2481,1.3028,1.3003,1.3214,1.3018,1.209,1.1558,1.1197,0.0,0.0,0.0,0.0,0.0045,-0.107,0.1217,0.2396,0.369,0.5105,0.5878,0.694,0.8384,0.8729,0.9541,1.0712,1.0712,1.0867,1.1267,1.1275,1.1592,1.2167,1.2751,1.3107,1.3314,1.3629,1.3598,1.3223,1.2675,1.2283,1.2111,1.2011,1.1693,1.1277,1.1133,1.0408,0.9451,0.8435,0.7349,0.6307,0.5444,0.4715,0.0,0.0,0.0,0.0,0.0,0.0,0.0,0.0,-1.0077,-1.1825,-1.3305,-1.4467,-1.5593,-1.6719,-1.7039,-1.7762,-1.9584,-2.0172,-2.1283,-2.3857,-2.5322,-2.6479,-2.7487,-2.8411,-2.9201,-2.9813,-3.0102,-3.035,-3.0584,-3.0312,-2.987,-2.931,-2.8354,-2.7361,-2.6445,-2.5443,-2.4795,-2.443,-2.4625,-2.4573,-2.4273,-2.4957,-2.5253,-2.5156,-2.5409,-2.5884,-2.6616,-2.6576,-2.628,-2.5893,-2.5347,-2.4721,-2.4181,-2.4384,-2.476,-2.5157,-2.5183,-2.5324,-2.5535,0.0,1.0199,1.0188,1.0189,1.0842,1.165,1.252,1.3342,1.4085,1.4727,1.4082,1.3431,1.3077,1.2348,1.1482,0.0,0.0,0.0,0.4131,-0.0979,-0.2966,-0.0442,0.1169,0.2952,0.5003,0.5089,0.5887,0.7553,0.7588,0.8285,0.9585,0.9585,0.9718,1.0022,1.0125,1.0393,1.0888,1.1758,1.2265,1.2496,1.3569,1.3879,1.37,1.3468,1.2888,1.2172,1.2047,1.1642,1.1153,1.0801,0.9877,0.8718,0.7711,0.6509,0.5271,0.4273,0.3862,0.3376,0.1942,-0.0209,-0.2391,-0.3981,-0.6489,-0.8867,0.0,-1.2376,-1.4475,-1.5302,-1.6575,-1.7687,-1.827,-1.8405,-1.8879,-2.0285,-2.1621,-2.3092,-2.4883,-2.6791,-2.8268,-2.8976,-2.9174,-2.9711,-3.0852,-3.0366,-3.022,-3.0718,-2.9931,-2.9373,-2.931,-2.7996,-2.6949,-2.6389,-2.5444,-2.471,-2.4235,-2.3892,-2.3903,-2.4208,-2.4281,-2.451,-2.4884,-2.533,-2.5847,-2.6359,-2.6875,-2.6447,-2.5326,-2.563,-2.5442,-2.4947,-2.4661,-2.499,-2.5581,-2.5058,-2.4992,-2.5182,0.0,1.1643,1.1677,1.1704,1.1585,1.1961,1.3346,1.3833,1.4345,1.5101,1.4844,1.453,1.4321,1.3826,1.2824,1.1089,0.6012,0.0,0.4899,-0.0045,-0.1576,0.164,0.2585,0.3369,0.4171,0.4714,0.5416,0.6171,0.6881,0.7747,0.883,0.904,0.9354,0.9666,0.9829,1.0174,1.0616,1.1233,1.1759,1.2287,1.3065,1.3407,1.3346,1.358,1.3067,1.2266,1.2102,1.1567,0.0,0.0,0.8951,0.7865,0.6858,0.5769,0.4656,0.3558,0.2891,0.1963,-0.0325,-0.2493,-0.4562,-0.6521,-0.8771,-1.0934,-1.2388,-1.3998,-1.5484,-1.6687,-1.745,-1.8124,-1.8791,-1.8916,-1.9483,-2.1237,-2.2196,-2.3661,-2.6222,-2.7578,-2.861,-2.9498,-2.99,-3.0277,-3.0732,-3.0719,-3.0544,-3.0222,-2.9623,-2.898,-2.826,-2.733,-2.6325,-2.5264,-2.4422,-2.3779,-2.3405,-2.3869,-2.4104,-2.4104,-2.4908,-2.5274,-2.5236,-2.551,-2.5977,-2.6555,-2.7117,-2.6829,-2.596,-2.5893,-2.5561,-2.5017,-2.494,-2.5148,-2.5449,-2.5156,-2.514,-2.5394,0.0,1.2695,1.2792,1.3075,1.261,1.262,1.3884,1.4278,1.4646,1.5229,1.5326,1.5298,1.5193,1.4934,1.3912,1.1801,0.7273,0.4926,0.5839,0.1905,0.0971,0.4068,0.4502,0.4548,0.432,0.4824,0.5269,0.5538,0.6367,0.7289,0.8262,0.8633,0.9001,0.9361,0.9577,0.9917,1.0399,1.0849,1.1364,1.1949,1.2659,1.2928,1.2928,1.3346,1.293,1.2078,1.2027,1.1339,0.0,0.9192,0.8015,0.6897,0.6109,0.4948,0.3669,0.2558,0.1221,-0.0387,-0.2532,-0.4652,-0.6681,-0.8687,-1.0864,-1.2842,-1.4091,-1.5167,-1.6202,-1.7491,-1.7947,-1.828,-1.893,-1.9142,-1.9825,-2.1729,-2.2649,-2.419,-2.7035,-2.7996,-2.8738,-2.9732,-3.0168,-3.0424,-3.0433,-3.0777,-3.0584,-2.9747,-2.9247,-2.8665,-2.7773,-2.7169,-2.6396,-2.5191,-2.4186,-2.3644,-2.348,-2.3808,-2.4119,-2.4269,-2.5295,-2.5744,-2.5623,-2.5993,-2.6375,-2.6869,-2.7393,-2.7244,-2.6634,-2.6401,-2.612,-2.5708,-2.5634,-2.5832,-2.6025,-2.5786,-2.5627,-2.5601,0.0,0.0,1.2974,1.3812,1.3942,1.3936,1.3981,1.4725,1.5268,1.5302,1.5371,1.5409,1.5382,1.5272,1.4366,1.2347,0.924,0.7233,0.6899,0.4763,0.4289,0.5969,0.634,0.6411,0.6108,0.5425,0.5437,0.615,0.6091,0.6681,0.7925,0.8262,0.8586,0.8857,0.9113,0.9386,0.9749,1.0568,1.1133,1.1533,1.2417,1.2744,1.2629,1.2744,1.2261,1.1464,1.1768,0.0,0.937,0.8348,0.707,0.581,0.5686,0.407,0.2062,0.1002,-0.1384,-0.3759,-0.4385,-0.6633,-0.9064,-1.0078,-1.2155,-1.412,-1.47,-1.5826,-1.7009,-1.7728,-1.8176,-1.8441,-1.8793,-1.9208,-2.0036,-2.1421,-2.3176,-2.5031,-2.6943,-2.8003,-2.8961,-2.9979,-2.9957,-2.9915,0.0,-3.0251,-3.0068,-2.9373,-2.8675,-2.8332,-2.8281,-2.7864,-2.7508,-2.7101,-2.5589,-2.4912,-2.521,-2.3765,-2.3666,-2.4957,-2.5028,-2.5336,-2.5902,-2.6785,-2.71,-2.7105,-2.7646,-2.7615,-2.7162,-2.7139,-2.729,-2.7406,-2.693,-2.7205,-2.7752,-2.7223,-2.64,-2.5565,0.0,0.0,0.0,1.4685,1.4736,1.4739,1.4786,1.5086,1.5303,1.529,1.536,0.0,0.0,0.0,0.0,0.0,0.9923,0.8316,0.825,0.6186,0.5181,0.5641,0.5934,0.5939,0.5487,0.5508,0.6122,0.7337,0.7865,0.8349,0.8784,0.9145,0.9413,0.9584,0.9584,0.9766,1.0141,1.0624,1.1002,1.1383,1.1796,1.1981,1.1811,1.1412,1.0624,0.9564,0.0,0.0,0.7979,0.6433,0.5246,0.4213,0.3442,0.2054,0.0277,-0.1934,-0.3811,-0.5487,-0.7007,-0.8501,-1.0133,-1.2261,-1.3682,-1.4844,-1.5818,-1.6353,-1.6821,-1.741,-1.7509,-1.7575,-1.7976,-1.8924,-2.0125,-2.1619,-2.3725,-2.5794,-2.7512,-2.8675,-2.9596,-3.0021,-3.0379,-3.0425,0.0,0.0,0.0,-2.9016,-2.8116,-2.7879,-2.8307,-2.7645,-2.7333,-2.768,-2.6143,-2.535,-2.5483,-2.4833,-2.4659,-2.5004,-2.5382,-2.5871,-2.6463,-2.7115,-2.7578,-2.796,-2.8427,-2.8498,-2.8199,-2.7854,-2.7632,-2.7396,-2.7231,-2.7278,-2.7364,-2.7552,-2.6952,-2.6106,0.0,0.0,0.0,0.0,0.0,0.0,0.0,0.0,0.0,0.0,0.0,0.0,0.0,0.0,0.0,0.0,0.0,0.9136,0.8605,0.7094,0.6133,0.5959,0.6276,0.6333,0.6071,0.6287,0.7064,0.8461,0.979,1.0482,1.0467,1.082,1.0913,1.0772,1.0123,0.9978,1.025,1.0448,1.0581,1.0784,1.0773,1.0625,1.0343,0.9694,0.8978,0.0,0.0,0.0,0.5191,0.4288,0.3385,0.2338,0.1125,-0.0732,-0.2807,-0.4535,-0.5991,-0.7351,-0.8996,-1.0419,-1.1892,-1.3699,-1.4817,-1.5644,-1.6451,-1.6581,-1.6608,-1.6969,-1.711,-1.7249,-1.748,-1.8624,-1.9992,-2.1614,-2.364,-2.5686,-2.7482,-2.8919,-2.9884,-3.0158,-3.0493,-3.0553,-3.0007,-2.9483,0.0,-2.8762,-2.8268,-2.8226,-2.8634,-2.8234,-2.8082,-2.836,-2.6931,-2.6262,-2.6299,-2.5707,-2.5441,-2.5581,-2.5955,-2.6334,-2.6806,-2.7151,-2.7705,-2.8344,-2.8688,-2.8868,-2.8858,-2.8517,-2.8215,-2.7981,-2.7903,-2.7825,-2.7703,-2.7992,-2.7751,-2.718,0.0,0.0,0.0,0.0,0.0,0.0,0.0,0.0,0.0,0.0,0.0,0.0,0.0,0.0,0.0,0.0,0.0,0.0,0.8083,0.7567,0.0,0.6748,0.7127,0.7465,0.7687,0.7661,0.8282,0.9534,1.1664,1.2711,1.2783,1.2973,1.2716,1.2091,1.0646,1.0046,1.0042,0.996,0.9819,0.9679,0.9348,0.8861,0.8264,0.7645,0.0,0.0,0.0,0.243,0.1105,0.1941,0.1388,0.0168,-0.1381,-0.4183,-0.6956,-0.6781,-0.7895,-0.9391,-1.0307,-1.2227,-1.4063,-1.4402,-1.5469,-1.6431,-1.6581,-1.6534,-1.6488,-1.6637,-1.7111,-1.7477,-1.7269,-1.8305,-1.9667,-2.1307,-2.3059,-2.4857,-2.6924,-2.8671,-2.9931,-3.0251,-3.0312,-3.0312,-3.0312,-2.9494,0.0,-2.8675,0.0,-2.9213,-2.9227,-2.9626,-2.9658,-2.9274,-2.8015,-2.7507,-2.764,-2.6284,-2.6,-2.6714,-2.6589,-2.6709,-2.7071,-2.7071,-2.7508,-2.8369,-2.8369,-2.8664,-2.9131,-2.9131,-2.9131,-2.9052,-2.8882,-2.8779,-2.8688,-2.8542,-2.8585,-2.853,0.0,0.0,0.0,0.0,0.0,0.0,0.0,0.0,0.0,0.0,0.0,0.0,0.0,0.0,0.0,0.0,0.0,0.0,0.7735,0.0,0.0,0.0,0.4843,0.541,0.5942,0.6666,0.8091,1.0303,1.1719,1.2529,1.2824,1.2616,1.222,1.163,1.0625,0.9915,0.9489,0.9123,0.8738,0.8446,0.0,0.7597,0.5999,0.0,0.0,0.0,0.0,-0.0608,-0.181,-0.0606,-0.1705,-0.3739,-0.4721,-0.6386,-0.8026,-0.8541,-0.9425,-1.0547,-1.2024,-1.3166,-1.4298,-1.5395,-1.6089,-1.6637,-1.7043,-1.7145,-1.7256,-1.7368,-1.7623,-1.7812,-1.7846,-1.8802,-2.0058,-2.1427,-2.3542,-2.545,-2.6784,-2.8546,-2.9837,-3.0418,-3.0792,-3.0911,-3.0478,-3.0199,-2.9822,0.0,-2.8967,-2.8969,-2.9363,-2.9776,-2.9904,-2.9658,-2.916,-2.867,-2.8185,-2.6929,-2.6508,-2.6943,-2.6671,-2.6967,-2.7823,-2.7823,-2.8437,-2.9424,-2.9424,-2.9409,-2.9341,-2.9341,-2.9275,-2.9052,-2.8882,-2.8482,-2.7987,-2.8065,-2.7557,-2.6854,0.0,0.0,0.0,0.0,0.0,0.0,0.0,0.0,0.0,0.0,0.0,0.0,0.0,0.0,0.0,0.0,0.0,0.0,0.0,0.6194,0.0,0.3716,0.4208,0.4789,0.5392,0.6445,0.8063,1.0229,0.0,0.0,1.345,1.3314,1.2796,1.1889,1.0369,0.9148,0.8268,0.8207,0.0,0.0,0.0,0.0,0.0,0.0,0.0,0.0,-0.2096,-0.3872,-0.5548,-0.5441,-0.5885,-0.6667,-0.7356,-0.8574,-0.9859,-1.0562,-1.1369,-1.2367,-1.3433,-1.4307,-1.5145,-1.6146,-1.6503,-1.6751,-1.7323,-1.7368,-1.7291,-1.7377,-1.7761,-1.8101,-1.8178,-1.8994,-2.0098,-2.1599,-2.3154,-2.4734,-2.6436,-2.8269,-2.9713,-3.0404,-3.11,-3.1353,-3.0866,-3.0718,-3.0297,-2.954,-2.9256,-2.9343,-2.974,-3.0113,-3.0124,-2.967,-2.9523,-2.918,-2.8533,-2.7708,-2.7475,-2.7754,-2.7404,-2.7507,-2.8109,-2.8109,-2.8586,-2.9415,0.0,-2.9464,-2.9599,-2.9599,-2.9534,-2.9353,-2.8848,-2.85,-2.8065,-2.7898,-2.7358,-2.6871,0.0,0.0,0.0,0.0,0.0,0.0,0.0,0.0,0.0,0.0,0.0,0.0,0.0,0.0,0.0,0.0,0.0,0.0,0.0,0.0,0.0,0.4038,0.4282,0.4739,0.5293,0.6451,0.7825,0.9355,1.2175,0.0,0.0,0.0,0.0,0.0,0.0,0.0,0.0,0.0,0.0,0.0,0.0,0.0,0.0,0.0,0.0,0.0,-0.5276,-0.725,-0.9379,-1.0882,-1.0287,-0.9074,-0.9556,-1.0658,-1.192,-1.2419,-1.3295,-1.4167,-1.4569,-1.5409,-1.6275,-1.6719,-1.6743,-1.6824,-1.749,-1.7313,-1.7049,-1.7187,-1.782,-1.8431,-1.8515,-1.9089,-2.0017,-2.1709,-2.2485,-2.3696,-2.5887,-2.7892,-2.9428,-3.0269,-3.1168,-3.1557,-3.1146,-3.097,-3.0493,-2.9665,-2.9711,-2.9843,-3.0093,-3.0351,-3.0178,-2.9535,-2.9385,-2.9154,-2.8805,-2.8524,-2.8486,-2.869,-2.8328,-2.8134,-2.821,-2.821,-2.8511,-2.9038,-2.9038,0.0,-2.9792,-2.9792,-2.9792,-2.9741,-2.8986,-2.8623,-2.845,-2.7841,-2.7644,-2.7567,0.0,0.0,0.0,0.0,0.0,0.0,0.0,0.0,0.0,0.0,1.482,1.4833,0.0,0.0,0.0,0.0,0.0,0.0,0.0,0.0,0.0,0.0,0.3643,0.3942,0.4331,0.5312,0.6429,0.7626,0.9365,1.0473,0.0,0.0,0.0,0.0,0.0,0.0,0.0,0.0,0.0,0.0,0.0,0.0,0.0,0.0,0.0,0.0,-0.9322,-1.0673,-1.1751,-1.3283,-1.2786,-1.1514,-1.1703,-1.2592,-1.3521,-1.3109,-1.3809,-1.4719,-1.5109,-1.5925,-1.6719,-1.6899,-1.6994,-1.7073,-1.7326,-1.7191,-1.7275,-1.8008,-1.8519,-1.9057,-1.9763,-1.9965,-2.0451,-2.159,-2.2762,-2.4066,-2.552,-2.7371,-2.88,-2.9572,-3.0459,-3.0804,-3.0283,-3.0644,-3.0613,0.0,-2.9874,-2.9771,-2.9104,-2.9645,-2.9829,-2.9523,-2.8781,-2.8644,-2.9382,-2.8689,-2.8533,-2.869,-2.846,-2.8482,-2.8787,-2.8787,-2.9101,-2.9641,-2.9641,0.0,-2.9792,-2.9792,-2.9792,-2.9779,-2.9409,-2.8723,-2.7977,-2.825,-2.7556,-2.6536,0.0,0.0,0.0,0.0,0.0,0.0,0.0,1.4739,1.4355,1.3429,1.3933,1.3874,1.254,1.1293,0.9948,0.0,0.0,0.0,0.0,0.0,0.0,0.0,0.0,0.2478,0.2698,0.3364,0.418,0.5095,0.0,0.7194,0.771,0.7554,0.6932,0.5798,0.4546,0.2871,0.0924,0.0,0.0,-0.3633,-0.5672,-0.6744,0.0,0.0,0.0,0.0,0.0,-1.3152,-1.3903,-1.5121,-1.5086,-1.4426,-1.4145,-1.48,-1.5626,-1.5496,-1.6041,-1.6787,-1.7015,-1.7203,-1.7446,-1.7788,-1.7308,-1.6991,-1.7733,-1.7322,-1.7116,-1.8056,-1.8532,-1.8945,-1.9586,-1.9921,-2.046,-2.1452,-2.2692,-2.4001,-2.532,-2.7034,-2.8499,-2.9454,-3.0513,-3.0955,-3.0584,-3.1014,-3.0896,-2.9775,-2.9946,-2.9888,-2.9371,-2.9727,-2.9936,-2.9939,-2.9314,-2.9295,-2.9958,-2.954,-2.9338,-2.9425,-2.9338,-2.9328,-2.9377,-2.9377,-2.9528,-2.9792,-2.9792,0.0,-2.9792,-2.9792,-2.9792,-2.9767,-2.9287,-2.8837,-2.8338,-2.8025,-2.7601,-2.7139,0.0,0.0,0.0,0.0,0.0,0.0,0.0,1.4198,1.3409,1.2038,1.2001,1.1323,0.9347,0.8454,0.7464,0.0,0.0,0.0,0.0,0.0,0.0,0.0,0.0,0.0798,0.0842,0.0,0.0,0.2246,0.3146,0.0,0.0,0.0,0.0,0.0,0.1142,-0.0534,-0.2505,-0.3918,-0.5399,0.0,0.0,-1.0207,0.0,0.0,0.0,0.0,0.0,-1.5182,-1.582,-1.6794,-1.706,-1.6933,-1.6526,-1.6819,-1.735,-1.7591,-1.7981,-1.839,-1.8667,-1.8405,-1.8127,-1.8506,-1.7656,-1.6938,-1.8037,-1.7385,-1.6847,-1.7859,-1.8316,-1.8676,-1.9234,-1.9833,-2.0523,-2.1342,-2.2572,-2.3889,-2.5189,-2.6863,-2.8326,-2.9246,-3.0616,-3.1263,-3.0851,-3.1321,-3.1204,-3.0115,-3.0129,-3.0021,-2.9669,-2.9699,-2.9829,-2.9908,-2.9561,-2.968,-3.0252,-3.0037,-2.9948,-3.0152,-3.0025,-2.9897,-2.9792,-2.9743,-2.9743,-2.9792,-2.9792,0.0,0.0,-2.9792,-2.9792,-2.9741,-2.9289,-2.9038,-2.8825,-2.7959,-2.7833,-2.7984,0.0,0.0,0.0,0.0,0.0,0.0,0.0,1.332,1.1994,1.0354,0.8031,0.5659,0.3359,0.4486,0.4882,0.0,0.0,0.0,0.0,0.0,0.0,0.0,0.0,0.0,0.0,0.0,0.0,-0.0787,-0.026,0.0,0.0,0.0,0.0,0.0,0.0,-0.4343,-0.6203,-0.7314,0.0,0.0,0.0,0.0,0.0,0.0,0.0,0.0,0.0,-1.6998,-1.7338,-1.8437,-1.8399,-1.8071,-1.8603,-1.8209,-1.7605,-1.7877,-1.786,-1.7918,-1.8606,-1.8691,-1.856,-1.8614,-1.7922,-1.7398,-1.792,-1.714,-1.6654,-1.7834,-1.8288,-1.8765,-1.9581,-2.036,-2.0909,-2.1251,-2.2522,-2.3865,-2.4944,-2.6741,-2.812,-2.8612,-3.0279,-3.1043,-3.0294,-3.097,-3.1321,-3.0762,-3.0628,-3.0083,-2.8935,-2.894,-2.8849,-2.8778,-2.8404,-2.8795,-2.987,-2.9438,-2.9618,-3.0355,-2.9856,-2.9668,-2.9779,-2.9378,-2.9429,-2.9792,-2.9792,0.0,0.0,-2.9792,-2.9792,-2.9779,-2.9729,-2.939,-2.8925,-2.8812,-2.8499,-2.8097,0.0,0.0,0.0,0.0,0.0,0.0,1.3533,1.2272,1.0463,0.7896,0.5401,0.2829,0.0066,-0.0032,0.0346,0.0909,0.0,0.0,0.0,0.0,0.0,0.0,0.0,0.0,0.0,0.0,-0.3215,-0.3243,-0.3267,0.0,0.0,0.0,0.0,0.0,0.0,-0.8625,-1.015,-1.1025,0.0,0.0,0.0,0.0,0.0,0.0,0.0,0.0,0.0,0.0,-1.8612,-1.9142,-1.9147,-1.8974,-1.9272,-1.9084,-1.8865,-1.9467,-1.9476,-1.951,-2.0224,-1.994,-1.946,-1.946,-1.8446,-1.7605,-1.8354,-1.7409,-1.6693,-1.7796,-1.8221,-1.8549,-1.9029,-1.9964,-2.0753,-2.1112,-2.2622,-2.3908,-2.4496,-2.6257,-2.77,-2.8235,-2.9862,-3.0789,-3.0418,-3.0984,-3.1043,-3.0158,-3.0266,-2.9884,-2.8766,-2.8931,-2.9306,-2.9726,-2.9313,-2.9371,-2.9965,-2.9805,-2.9835,-3.0067,-2.9774,-2.9651,-2.9656,-2.982,-2.982,-2.9593,-2.9859,0.0,0.0,-2.9731,-2.9655,-2.9416,-2.934,-2.9126,-2.8888,-2.8561,-2.8298,-2.8059,0.0,0.0,0.0,0.0,0.0,1.3511,1.2545,1.0797,0.8479,0.5429,0.2919,0.0443,-0.2136,-0.3115,-0.302,-0.1716,-0.1257,0.0,0.0,0.0,0.0,0.0,0.0,0.0,0.0,0.0,-0.5257,-0.5546,-0.6107,-0.6615,0.0,0.0,-0.9165,-0.999,0.0,0.0,0.0,0.0,0.0,0.0,0.0,0.0,0.0,0.0,0.0,0.0,0.0,0.0,0.0,0.0,0.0,-1.9767,-1.9747,-1.9711,-1.9811,-2.0498,-2.0614,-2.0643,-2.1361,-2.1062,-2.0547,-2.0547,-1.9287,-1.8257,-1.9054,-1.7987,-1.7094,-1.7974,-1.8358,-1.8567,-1.875,-1.9774,-2.0698,-2.1046,-2.2571,-2.3844,-2.4218,-2.5946,-2.7348,-2.7809,-2.9484,-3.0603,-3.0529,-3.0925,-3.0851,-2.9946,-3.0068,-2.9808,-2.9022,-2.9071,-2.938,-2.9781,-2.9832,-2.9883,-2.9876,-2.9777,-2.9783,-2.9805,-2.965,-2.9426,-2.9305,-2.9776,-2.9738,-2.9305,-2.9656,0.0,0.0,-2.9707,-2.9492,-2.9071,-2.9126,-2.9076,-2.8875,-2.8499,-2.8461,-2.8499,0.0,0.0,0.0,0.0,0.0,0.0,1.1415,0.8788,0.5918,0.3101,0.0402,-0.1893,-0.351,-0.4103,-0.4392,-0.4462,-0.3351,0.0,0.0,0.0,0.0,0.0,0.0,0.0,0.0,0.0,-0.7086,-0.7747,-0.8923,-0.9787,-1.0479,-1.1901,-1.2881,-1.3572,0.0,0.0,0.0,0.0,0.0,0.0,0.0,0.0,0.0,0.0,0.0,0.0,0.0,0.0,0.0,0.0,0.0,0.0,0.0,-2.0185,-2.0167,-2.0595,-2.072,-2.0881,-2.1585,-2.1849,-2.1885,-2.1885,-2.0635,-1.951,-1.9988,-1.8934,-1.8025,-1.85,-1.8812,-1.8993,-1.8993,-2.003,-2.0963,-2.1087,-2.2321,-2.3555,-2.4296,-2.589,-2.707,-2.7268,-2.9122,-3.0373,-3.0309,-3.0718,-3.0837,-3.0524,-3.0208,0.0,-2.9808,-2.917,-2.8638,-2.8158,-2.9416,-2.9824,-2.9287,-2.9119,-2.9248,-2.9805,-2.9274,-2.8931,-2.8703,-2.8944,-2.8931,0.0,0.0,0.0,0.0,-2.9618,-2.934,-2.8707,-2.9492,-2.9428,-2.8925,-2.8925,-2.9289,-2.9616,0.0,0.0,0.0,0.0,0.0,0.0,0.0,0.6045,0.3419,0.0784,-0.1396,-0.3294,-0.4694,-0.5041,-0.5324,-0.5697,-0.4503,0.0,0.0,0.0,0.0,0.0,0.0,0.0,0.0,0.0,-0.8696,-0.9361,-1.0805,-1.1865,-1.2669,-1.4406,-1.5595,-1.6356,-1.7279,-1.8084,0.0,0.0,0.0,0.0,0.0,0.0,0.0,0.0,0.0,0.0,0.0,0.0,0.0,0.0,0.0,0.0,0.0,0.0,0.0,-2.0535,-2.046,-2.0517,-2.1295,-2.1225,-2.0951,-2.0951,-2.0146,-1.9433,-1.9874,-1.9194,-1.8574,-1.9049,-1.9191,-1.9205,-1.9205,-2.0161,-2.1162,-2.1754,-2.32,-2.4507,-2.5257,-2.6457,-2.7407,-2.775,-2.9039,-3.0083,-3.0762,0.0,-3.0021,-2.9884,-2.9775,-2.9387,-2.8702,-2.9149,-2.925,-2.8866,-2.916,-2.9356,-2.9416,-2.9022,-2.9031,-2.9594,-2.8877,-2.8521,-2.8534,-2.895,-2.8982,0.0,0.0,0.0,0.0,-2.9244,-2.9122,-2.8813,-2.9063,-2.9089,-2.8925,-2.8925,-2.88,-2.8649,0.0,0.0,0.0,0.0,0.0,0.0,0.0,0.3013,0.0746,-0.1567,-0.3221,-0.4628,-0.5728,-0.5987,-0.6199,-0.657,-0.58,0.0,0.0,0.0,0.0,0.0,0.0,0.0,0.0,-0.944,-1.0308,-1.1073,-1.2859,-1.4135,-1.4915,-1.6794,-1.8012,-1.8647,-1.9431,-1.9993,0.0,0.0,0.0,0.0,0.0,0.0,0.0,0.0,0.0,0.0,0.0,0.0,0.0,0.0,0.0,0.0,0.0,0.0,0.0,0.0,-2.061,-2.0835,-2.1348,-2.1347,-2.1204,-2.1204,-2.0586,-2.0001,-2.025,-1.9698,-1.9169,-1.9472,-1.9362,-1.9338,-1.9648,-2.0346,-2.1206,-2.2144,-2.3522,-2.4715,-2.5485,-2.6413,-2.738,-2.8182,-2.9258,-3.006,0.0,-3.0001,-2.9637,-2.9338,-2.9212,-2.8766,-2.8,-2.8677,-2.8945,-2.8545,-2.9038,-2.9276,-2.9075,-2.8858,-2.8858,-2.9061,-2.8625,-2.8268,-2.8072,-2.8673,-2.869,0.0,0.0,0.0,0.0,-2.8656,-2.8651,-2.8505,-2.8773,-2.8925,-2.895,-2.9176,-2.9038,-2.8725,0.0,0.0,0.0,0.0,0.0,0.0,0.0,-0.0253,-0.209,-0.3962,-0.5033,-0.5914,-0.6635,-0.6931,-0.7166,-0.7244,0.0,0.0,0.0,0.0,0.0,0.0,0.0,0.0,0.0,-1.0957,-1.1918,-1.2846,-1.4972,-1.6403,-1.7159,-1.8981,-2.0028,-2.0416,-2.078,-2.1119,0.0,0.0,0.0,0.0,0.0,0.0,0.0,0.0,0.0,0.0,0.0,0.0,0.0,0.0,0.0,0.0,0.0,0.0,0.0,0.0,0.0,0.0,0.0,-2.203,-2.2406,-2.2406,-2.1772,-2.109,-2.1044,-2.047,0.0,-1.9762,-1.9465,-1.9461,-2.0268,-2.0611,-2.118,-2.2372,-2.3438,-2.4405,-2.5177,-2.6103,-2.7257,-2.868,-2.9828,-3.0184,-2.9492,-2.9697,-2.9594,-2.8867,-2.8481,0.0,-2.7855,-2.8,-2.7868,-2.7523,-2.8913,-2.9313,-2.8386,-2.8605,-2.8605,-2.8454,-2.8333,-2.8033,-2.7549,-2.8072,-2.8155,0.0,0.0,0.0,0.0,-2.8061,-2.8071,-2.7915,-2.8697,-2.8963,-2.9001,-2.9578,-2.9767,-2.9578,0.0,0.0,0.0,0.0,0.0,0.0,0.0,0.0,0.0,0.0,-0.6719,-0.7328,-0.7693,-0.798,-0.8335,0.0,0.0,0.0,0.0,0.0,0.0,0.0,0.0,0.0,0.0,-1.2353,-1.3308,-1.4318,-1.634,-1.7646,-1.8253,-1.9956,-2.0927,-2.1213,-2.1462,-2.1781,0.0,0.0,0.0,0.0,0.0,0.0,0.0,0.0,0.0,0.0,-2.2332,-2.222,0.0,0.0,0.0,0.0,0.0,0.0,0.0,0.0,-2.2106,-2.2607,-2.2571,0.0,-2.2534,-2.2534,-2.2388,-2.2102,0.0,-2.1183,-2.0778,-2.0152,-2.0182,-2.0324,-2.0395,-2.1208,-2.2104,-2.2834,-2.4238,-2.5484,-2.6176,-2.7664,-2.9062,-2.9988,-3.0131,-3.0218,-3.0455,-2.96,-2.9085,-2.9022,-2.856,-2.8235,-2.8066,-2.7934,-2.7789,-2.7523,-2.7865,-2.814,-2.8386,-2.8454,-2.8536,-2.8605,-2.8009,-2.7721,-2.7723,-2.7734,-2.7654,0.0,0.0,0.0,-2.7615,-2.8555,-2.873,-2.8503,-2.9428,-2.9467,-2.9001,-2.9578,-2.9515,-2.9089,0.0,0.0,0.0,0.0,0.0,0.0,0.0,0.0,0.0,0.0,0.0,0.0,0.0,0.0,0.0,0.0,0.0,0.0,0.0,0.0,0.0,0.0,0.0,0.0,-1.2687,-1.3618,-1.4536,-1.5447,-1.7452,-1.8643,-1.9083,-2.0744,-2.1582,-2.1718,-2.1957,-2.226,0.0,0.0,0.0,0.0,0.0,0.0,0.0,0.0,0.0,0.0,-2.2579,-2.2443,0.0,-2.2203,-2.2044,-2.189,0.0,0.0,0.0,0.0,-2.2925,-2.3444,-2.337,-2.3022,-2.2676,-2.2676,-2.266,-2.2477,-2.2155,-2.1931,-2.1713,-2.1218,-2.1061,-2.1114,-2.1386,-2.1777,-2.244,-2.354,-2.4536,-2.5616,-2.689,-2.8312,-2.9462,-2.998,-3.0191,-3.0206,0.0,-2.9512,-2.9035,-2.8651,0.0,-2.8118,-2.7815,-2.7723,-2.759,-2.7523,-2.7785,-2.7941,-2.7994,-2.7926,-2.8129,-2.8532,-2.8,-2.7973,-2.8365,-2.8314,-2.8118,0.0,0.0,0.0,-2.7468,-2.8395,-2.8634,-2.8464,-2.9277,-2.9265,-2.8963,-2.9289,-2.9038,-2.8511,0.0,0.0,0.0,0.0,0.0,0.0,0.0,0.0,0.0,0.0,0.0,0.0,0.0,0.0,0.0,0.0,0.0,0.0,0.0,0.0,0.0,0.0,0.0,-1.2133,-1.3872,-1.4701,-1.5579,-1.6472,-1.835,-1.9438,-1.9847,-2.1334,-2.2056,-2.2073,-2.2304,-2.2569,0.0,0.0,0.0,0.0,0.0,0.0,0.0,0.0,0.0,0.0,0.0,0.0,0.0,-2.246,-2.24,-2.2353,-2.2673,0.0,0.0,0.0,0.0,0.0,-2.4119,-2.3617,-2.3154,-2.3154,-2.3064,-2.2942,-2.2811,-2.272,-2.2592,-2.2355,-2.1961,-2.1843,-2.2521,-2.2451,-2.2746,-2.425,-2.4863,-2.5807,-2.7556,-2.8684,-2.9354,-2.958,-3.0219,0.0,-2.9435,-2.9449,-2.9162,-2.8197,0.0,-2.7947,-2.7603,-2.7523,-2.7523,-2.7523,-2.7994,-2.8059,-2.7667,-2.76,-2.7854,-2.8487,-2.821,-2.8549,-2.9301,-2.914,-2.9027,-2.8838,0.0,0.0,-2.7575,-2.8247,-2.8368,-2.818,-2.8735,-2.8824,-2.8687,-2.8837,-2.8522,-2.7981,0.0,0.0,0.0,0.0,0.0,0.0,0.0,0.0,0.0,0.0,0.0,0.0,0.0,0.0,0.0,0.0,0.0,0.0,0.0,0.0,0.0,0.0,-1.2934,-1.3456,-1.4852,-1.5418,-1.6307,-1.7641,-1.8914,-1.9969,-2.0799,-2.1776,-2.2237,-2.2265,-2.2432,-2.2605,-2.2816,0.0,0.0,0.0,0.0,0.0,0.0,0.0,0.0,0.0,0.0,0.0,0.0,-2.2579,-2.2897,-2.3253,-2.307,0.0,0.0,0.0,0.0,0.0,-2.4909,-2.4791,-2.465,-2.465,-2.465,-2.4453,-2.3755,-2.3498,-2.3211,-2.2447,-2.2552,-2.2697,-2.2554,-2.326,-2.4097,-2.4813,-2.6323,-2.7769,-2.8728,0.0,-3.0043,-3.0141,0.0,-3.0629,-2.9808,-2.9498,-2.9058,0.0,0.0,-2.8079,-2.8013,-2.7669,-2.759,-2.7789,-2.7681,-2.785,-2.8242,-2.8501,-2.8839,-2.9226,-2.8842,-2.9206,-3.0104,-2.9398,-2.9361,-2.979,0.0,-2.8853,-2.8406,-2.9145,-2.8904,-2.8164,-2.9099,-2.8666,-2.7654,-2.8397,-2.829,-2.7864,0.0,0.0,0.0,0.0,0.0,0.0,0.0,0.0,0.0,0.0,0.0,0.0,0.0,0.0,0.0,0.0,0.0,0.0,0.0,0.0,0.0,-1.4746,-1.46,-1.4818,-1.5448,-1.595,-1.6573,-1.74,-1.896,-1.9944,-2.0435,-2.1731,-2.231,-2.2366,-2.2487,-2.2685,-2.2902,-2.3168,0.0,0.0,0.0,0.0,0.0,0.0,0.0,0.0,0.0,0.0,0.0,0.0,-2.3429,-2.3687,-2.4197,0.0,0.0,0.0,0.0,0.0,-2.5107,-2.5029,-2.5005,-2.5005,-2.4942,-2.4823,-2.4414,-2.4138,-2.3869,-2.344,-2.3629,-2.3816,-2.3686,-2.413,-2.4752,-2.5568,-2.7108,-2.8339,-2.8907,-2.9303,-2.9651,0.0,0.0,-3.0237,-2.996,-2.956,0.0,0.0,0.0,0.0,-2.7921,-2.7789,-2.7723,-2.7776,-2.7723,-2.809,-2.8856,-2.9214,-2.9508,-2.9693,-2.9959,-3.0247,-3.0449,-3.0444,-3.0241,-3.0059,0.0,-2.9435,-2.8614,-2.9525,-2.9241,-2.8313,-2.9096,-2.8825,-2.7831,-2.7976,-2.7864,-2.7644,0.0,0.0,0.0,0.0,0.0,0.0,0.0,0.0,0.0,0.0,0.0,0.0,0.0,0.0,0.0,0.0,0.0,0.0,0.0,0.0,-1.5697,-1.5726,-1.5797,-1.5839,-1.5868,-1.6258,-1.6712,-1.7184,-1.8861,-1.9944,-2.0418,-2.1714,-2.2338,-2.2422,-2.2569,-2.2764,-2.2995,-2.3217,-2.343,0.0,0.0,0.0,0.0,0.0,0.0,0.0,0.0,0.0,0.0,0.0,0.0,0.0,0.0,0.0,0.0,-2.5587,-2.5486,-2.5278,-2.5185,-2.5084,-2.5005,-2.5005,-2.4902,-2.4829,-2.4945,-2.4756,-2.4537,-2.4606,-2.4715,-2.4821,-2.4775,-2.5051,-2.5655,-2.6623,-2.7824,-2.877,-2.9132,-2.9096,-2.9327,-2.9993,-2.996,-2.9898,-2.9988,0.0,0.0,0.0,0.0,0.0,-2.8105,-2.8039,-2.8039,-2.8039,-2.7973,-2.8425,-2.9402,-2.9753,-3.0055,-3.0303,-3.0922,-3.1183,-3.1032,-3.1221,-3.0997,-3.0434,-3.0519,-3.0021,-2.9063,-2.9748,-2.9422,-2.8556,-2.9143,-2.89,-2.826,-2.7814,-2.7656,-2.7669,0.0,0.0,0.0,0.0,0.0,0.0,0.0,0.0,0.0,0.0,0.0,0.0,0.0,0.0,0.0,0.0,0.0,0.0,0.0,0.0,-1.6123,-1.6067,-1.6123,-1.6123,-1.6067,-1.6289,-1.6858,-1.7736,-1.8794,-2.0207,-2.1876,-2.2141,-2.2338,-2.2405,-2.2623,-2.2764,-2.2902,-2.3193,-2.3383,-2.3539,0.0,0.0,0.0,0.0,0.0,0.0,0.0,0.0,0.0,0.0,0.0,0.0,0.0,0.0,-2.6087,-2.5901,-2.5659,-2.5394,-2.5333,-2.5201,-2.5068,-2.5005,-2.4902,-2.4914,-2.5346,-2.5342,-2.5295,-2.553,-2.5588,-2.5446,-2.5224,-2.6059,-2.7176,-2.8094,-2.88,-2.9416,-2.9954,0.0,-2.9685,-3.005,-3.0111,-2.9988,0.0,0.0,0.0,0.0,0.0,0.0,-2.9035,-2.8817,-2.8739,-2.8739,-2.8638,-2.8899,-2.9656,-3.0192,-3.0853,-3.1544,-3.1367,-3.17,-3.2338,-3.1177,-3.093,-3.1362,-3.0829,-3.0447,-3.0129,-2.9927,-2.9505,-2.9041,-2.9082,-2.8797,-2.8289,-2.8249,-2.8183,-2.8079,0.0,0.0,0.0,0.0,0.0,0.0,0.0,0.0,0.0,0.0,0.0,0.0,0.0,0.0,0.0,0.0,0.0,0.0,0.0,0.0,-1.5883,-1.6274,-1.6316,-1.6316,-1.6289,-1.6371,-1.6615,-1.7056,-1.86,-2.024,-2.194,-2.2209,-2.2366,-2.246,-2.2632,-2.2764,-2.2919,-2.3052,-2.3217,-2.3383,-2.3383,0.0,0.0,0.0,0.0,0.0,0.0,0.0,0.0,0.0,-2.4689,-2.4957,-2.593,-2.6199,-2.617,-2.5954,-2.5621,-2.5317,-2.5294,-2.5162,-2.5045,-2.5005,-2.5217,-2.5503,-2.5501,-2.5584,-2.5697,-2.6111,-2.6005,-2.5909,-2.5988,-2.7137,-2.8115,-2.824,-2.9172,-2.9932,-3.0068,-2.9988,-2.9988,-3.0205,-3.0158,0.0,0.0,0.0,0.0,0.0,0.0,0.0,-2.9261,-2.9121,-2.9058,-2.9022,-2.8972,-2.9247,-2.9928,-3.0538,-3.1283,-3.2239,-3.2097,-3.1859,-3.1445,-3.1267,-3.1076,-3.0916,-3.0684,-3.0462,-3.0158,-3.0144,-2.9837,-2.9415,-2.9261,-2.9121,-2.8917,-2.8817,-2.8766,-2.878,0.0,0.0,0.0,0.0,0.0,0.0,0.0,0.0,0.0,0.0,0.0,0.0,0.0,0.0,0.0,0.0,0.0,0.0,-1.5215,-1.5411,-1.5716,-1.6161,-1.6354,-1.6436,-1.6436,-1.6409,-1.6463,-1.6554,-1.8443,-2.02,-2.1869,-2.2163,-2.2366,-2.2487,-2.2632,-2.2738,-2.2816,-2.2919,-2.3045,-2.3168,-2.3193,-2.3241,0.0,0.0,0.0,0.0,0.0,0.0,0.0,0.0,-2.4636,-2.4866,-2.5899,-2.6164,-2.6099,-2.597,-2.5621,-2.5333,-2.5294,-2.5162,-2.5045,-2.5005,-2.5595,-2.6103,-2.5889,-2.6016,-2.6314,-2.6718,-2.6665,-2.6585,-2.6862,-2.7885,-2.8753,0.0,-2.9462,-3.0096,-3.0129,-3.0111,-3.0172,-3.0251,0.0,0.0,0.0,0.0,0.0,0.0,0.0,0.0,0.0,-2.9574,-2.9512,-2.9415,-2.9338,-2.9645,-3.034,-3.0745,-3.1409,-3.2326,-3.2247,-3.1909,-3.1248,-3.1302,-3.117,-3.0762,-3.0702,-3.0522,-3.0355,-3.0387,-3.0266,-2.996,-2.9747,-2.9623,-2.9435,-2.9275,-2.9162,-2.9099,0.0,0.0,0.0,0.0,0.0,0.0,0.0,0.0,0.0,0.0,0.0,0.0,0.0,0.0,0.0,0.0,0.0,0.0,-1.463,-1.5336,-1.5759,-1.5694,-1.6285,-1.6554,-1.6501,-1.6436,-1.6436,-1.6501,-1.8322,-2.0103,-2.1811,-2.2152,-2.2338,-2.2405,-2.2605,-2.2659,-2.2605,-2.2816,-2.2893,-2.2919,-2.3119,-2.3168,0.0,0.0,0.0,0.0,0.0,0.0,0.0,0.0,-2.4062,-2.4582,-2.5195,-2.5678,-2.5974,-2.5917,-2.5659,-2.5378,-2.5333,-2.5201,-2.5068,-2.5005,-2.5874,-2.6647,-2.6543,-2.6765,-2.7085,-2.7333,-2.7568,-2.7683,-2.7668,-2.8371,-2.9068,-2.9508,-2.9624,-2.9783,-3.0225,-3.0158,-3.0158,0.0,0.0,0.0,0.0,0.0,0.0,0.0,0.0,0.0,0.0,-3.0158,-3.0111,-3.0111,-2.9898,-3.0129,-3.0836,-3.0807,-3.1146,-3.1739,-3.1682,-3.1912,-3.2168,-3.1427,-3.1087,-3.1087,-3.0895,-3.0836,-3.0821,-3.0821,-3.0807,-3.0777,-3.0687,-3.0251,-2.9808,-2.9651,-2.9415,-2.9162,0.0,0.0,0.0,0.0,0.0,0.0,0.0,0.0,0.0,0.0,0.0,0.0,0.0,0.0,0.0,0.0,0.0,0.0,-1.3972,-1.4633,-1.524,-1.5743,-1.6403,-1.6717,-1.6717,-1.6596,-1.6849,-1.742,-1.8607,-1.9841,-2.1048,-2.1854,-2.2265,-2.2338,-2.2432,-2.2487,-2.246,-2.2525,-2.2632,-2.2764,-2.2893,-2.2952,0.0,0.0,0.0,0.0,0.0,0.0,0.0,0.0,0.0,0.0,-2.4846,-2.5157,-2.5245,-2.5628,-2.5567,-2.5333,-2.5294,-2.51,-2.5012,-2.546,-2.6135,-2.6741,-2.6873,-2.7467,-2.7913,-2.7969,-2.8093,-2.8078,-2.7645,-2.819,0.0,-2.8927,-2.9334,-2.9783,-3.0225,-2.9892,0.0,0.0,0.0,0.0,0.0,0.0,0.0,0.0,0.0,0.0,0.0,-3.0462,-3.0401,-3.0266,-3.0525,-3.105,-3.1856,-3.2164,-3.2512,-3.2879,-3.2779,-3.2397,-3.1735,-3.1842,-3.1619,-3.1132,-3.2016,-3.1838,-3.1014,-3.1117,-3.1219,-3.1248,-3.097,-3.0792,-3.0598,-3.0387,-3.0144,-2.996,0.0,0.0,0.0,0.0,0.0,0.0,0.0,0.0,0.0,0.0,0.0,0.0,0.0,0.0,0.0,0.0,0.0,0.0,0.0,0.0,-1.5147,-1.5895,-1.652,-1.6785,-1.6691,-1.6596,-1.6812,-1.7364,-1.8603,-1.9698,-2.0732,-2.1664,-2.2163,-2.2254,-2.2293,-2.2276,-2.2248,-2.2321,-2.2432,-2.2579,-2.2712,-2.2816,-2.2944,0.0,0.0,0.0,0.0,0.0,0.0,0.0,0.0,0.0,-2.3918,-2.4426,-2.4811,-2.5216,-2.5282,-2.5294,-2.5294,-2.529,-2.5365,-2.5691,-2.6436,-2.7134,-2.7655,-2.7951,-2.8076,-2.7717,-2.7967,-2.8139,-2.7549,-2.8078,0.0,-2.8624,-2.9,-2.932,-2.9446,-2.9246,0.0,0.0,0.0,0.0,0.0,0.0,0.0,0.0,0.0,0.0,0.0,-3.0,-3.0071,-3.0012,-3.0448,-3.1264,-3.2363,-3.2629,-3.2916,-3.3398,-3.3299,-3.2776,-3.1811,-3.2315,-3.2437,-3.2288,-3.266,-3.2452,-3.184,-3.1571,-3.1567,-3.1781,-3.1509,-3.1263,-3.1087,-3.0866,-3.0613,-3.0447,0.0,0.0,0.0,0.0,0.0,0.0,0.0,0.0,0.0,0.0,0.0,0.0,0.0,0.0,0.0,0.0,0.0,0.0,0.0,0.0,-1.5385,-1.6066,-1.6579,-1.6759,-1.6501,-1.6501,-1.6581,-1.6696,-1.8377,-1.9666,-2.0605,-2.1545,-2.2061,-2.2168,-2.2152,-2.2089,-2.1998,-2.2192,-2.2293,-2.2405,-2.2605,-2.2738,-2.2816,-2.2868,0.0,0.0,0.0,0.0,0.0,0.0,0.0,0.0,-2.2718,-2.3504,-2.4512,-2.4642,-2.4911,-2.5214,-2.5278,-2.5608,-2.5983,-2.589,-2.6694,-2.7743,-2.8567,-2.8265,-2.7671,-2.7074,-2.7636,-2.8011,-2.7383,-2.7909,-2.841,-2.841,-2.8537,-2.8495,-2.8254,-2.8268,0.0,0.0,0.0,0.0,0.0,0.0,0.0,0.0,0.0,0.0,0.0,-2.916,-2.9507,-2.9624,-3.0158,-3.1068,-3.2421,-3.2452,-3.2749,-3.3321,-3.3306,-3.2942,-3.2221,-3.2856,-3.3469,-3.4121,-3.293,-3.2704,-3.3029,-3.2098,-3.191,-3.2191,-3.2094,-3.1754,-3.1336,-3.1146,-3.0925,-3.0628,0.0,0.0,0.0,0.0,0.0,0.0,0.0,0.0,0.0,0.0,0.0,0.0,0.0,0.0,0.0,0.0,0.0,0.0,0.0,0.0,-1.5905,-1.6021,-1.6438,-1.6623,-1.6501,-1.6501,-1.6581,-1.6696,-1.8377,-1.9409,-1.9855,-2.1213,-2.1857,-2.1886,-2.1844,-2.1827,-2.184,-2.1945,-2.2135,-2.2338,-2.2542,-2.2659,-2.2738,-2.279,-2.279,0.0,0.0,0.0,0.0,0.0,0.0,0.0,-2.2361,-2.2703,-2.3108,-2.4152,-2.4462,-2.4537,-2.5003,-2.5447,-2.5873,-2.6361,-2.7057,-2.7705,-2.8254,-2.789,-2.7567,-2.8151,-2.8165,-2.7868,-2.7383,-2.7438,-2.765,-2.7816,-2.7705,-2.7752,-2.8126,0.0,0.0,0.0,0.0,0.0,0.0,0.0,0.0,0.0,0.0,0.0,-2.8681,-2.9218,-2.961,-2.9769,-3.0804,-3.1529,-3.1892,-3.2915,-3.3211,0.0,-3.2669,-3.2536,-3.2373,-3.3429,-3.4531,-3.5427,-3.3004,-3.2685,-3.3829,-3.2482,-3.2079,-3.2342,-3.2191,-3.2038,-3.1826,-3.1655,-3.1409,-3.1161,0.0,0.0,0.0,0.0,0.0,0.0,0.0,0.0,0.0,0.0,0.0,0.0,0.0,0.0,0.0,0.0,0.0,0.0,0.0,0.0,-1.6198,-1.6345,-1.6469,-1.6501,-1.6394,-1.6436,-1.6501,-1.6659,-1.8338,-1.9272,-1.9542,-2.0944,-2.1631,-2.1694,-2.1573,-2.1556,-2.1631,-2.1768,-2.1945,-2.2175,-2.2377,-2.2515,-2.2605,-2.2632,-2.2579,-2.2487,-2.2349,0.0,0.0,0.0,0.0,0.0,0.0,0.0,-2.2606,-2.33,-2.3613,-2.3834,-2.4385,-2.5098,-2.6018,-2.7041,-2.7361,-2.7484,-2.7924,-2.7708,-2.7469,-2.7838,-2.7653,-2.7244,-2.672,-2.6661,-2.6771,-2.688,-2.688,-2.6885,-2.7143,0.0,0.0,0.0,0.0,0.0,0.0,0.0,0.0,0.0,0.0,-2.8277,-2.8876,-2.9448,-2.9841,-3.0041,-3.1058,-3.1915,-3.2479,-3.3236,-3.341,-3.3129,-3.3239,-3.3216,-3.2958,-3.3573,-3.4344,-3.5171,-3.3226,-3.292,-3.3744,-3.2505,-3.2135,-3.2398,-3.2342,-3.2191,-3.2094,-3.2053,-3.1826,-3.1539,0.0,0.0,0.0,0.0,0.0,0.0,0.0,0.0,0.0,0.0,0.0,0.0,0.0,0.0,0.0,0.0,0.0,0.0,0.0,-1.6731,-1.6419,-1.668,-1.6538,-1.6421,-1.6301,-1.6355,-1.6463,-1.6596,-1.8143,-1.9111,-1.9483,-2.0754,-2.1402,-2.1528,-2.1325,-2.1261,-2.1355,-2.1556,-2.1751,-2.1957,-2.2163,-2.2304,-2.2415,-2.2432,-2.2377,-2.2282,-2.2192,-2.2061,-2.1899,-2.1768,0.0,0.0,0.0,0.0,-2.2345,-2.2476,-2.2731,-2.3135,-2.3618,-2.4681,-2.5954,-2.7258,-2.7318,-2.7187,-2.7578,-2.7417,-2.7195,-2.7073,-2.6919,-2.6624,-2.606,-2.6002,-2.6056,-2.6111,-2.6179,-2.6233,0.0,0.0,0.0,0.0,0.0,0.0,0.0,0.0,0.0,0.0,0.0,-2.837,-2.8921,-2.9616,-3.0127,-3.0324,-3.1249,-3.2148,-3.3059,-3.3224,-3.3295,-3.3426,-3.381,-3.3699,-3.324,-3.3161,-3.3553,-3.4376,-3.338,-3.3093,-3.3295,-3.2368,-3.2135,-3.2342,-3.2398,-3.2342,-3.2191,-3.2191,-3.2038,-3.1784,0.0,0.0,0.0,0.0,0.0,0.0,0.0,0.0,0.0,0.0,-1.594,-1.6234,-1.6474,-1.6686,0.0,0.0,0.0,0.0,-1.7395,0.0,0.0,-1.6607,-1.6421,-1.6328,-1.6301,-1.6355,-1.6436,-1.6501,-1.7604,-1.8671,-1.9688,-2.0734,-2.1199,-2.1167,-2.1007,-2.1007,-2.1151,-2.1355,-2.1526,-2.1664,-2.1928,-2.2056,-2.2084,-2.2192,-2.2265,-2.2282,-2.2073,-2.1969,-2.1899,-2.1811,-2.1724,0.0,0.0,0.0,-2.182,-2.2281,-2.2376,-2.2451,-2.298,-2.4075,-2.5228,-2.5795,-2.6263,-2.6736,-2.7236,-2.6731,-2.6339,-2.7099,-2.699,-2.6624,-2.617,-2.6002,-2.6002,-2.6233,-2.6111,-2.6002,0.0,0.0,0.0,0.0,0.0,0.0,0.0,0.0,0.0,0.0,-2.8385,-2.8773,-2.8233,-2.9709,-3.0548,-3.0507,-3.1738,-3.2261,-3.1836,-3.2423,-3.2517,-3.2243,-3.2538,-3.2376,-3.187,-3.1918,-3.2716,-3.3989,-3.3051,-3.2859,-3.3138,-3.2327,-3.2094,-3.2247,-3.2342,-3.2342,-3.2191,-3.2191,-3.2094,-3.194,0.0,0.0,0.0,0.0,0.0,0.0,0.0,0.0,0.0,0.0,0.0,-1.6163,-1.6367,-1.6554,0.0,0.0,0.0,0.0,-1.7248,-1.6975,0.0,0.0,-1.6382,-1.6301,-1.6301,-1.6355,-1.6436,-1.6554,-1.7797,-1.8786,-1.9609,-2.0807,-2.1345,-2.1295,-2.0852,-2.0778,-2.0925,-2.1071,-2.123,-2.145,-2.1678,-2.1797,-2.184,-2.1986,-2.2061,-2.2061,-2.1998,-2.1969,-2.194,-2.1911,-2.1869,-2.1811,-2.1797,0.0,0.0,0.0,-2.1795,-2.1855,-2.2854,-2.3626,-2.4358,-2.5261,-2.572,-2.6012,-2.6246,-2.6162,-2.6141,-2.6465,-2.6411,-2.6217,-2.6059,-2.5948,-2.5948,-2.6056,-2.6002,0.0,0.0,0.0,0.0,0.0,0.0,0.0,0.0,0.0,0.0,0.0,-2.9524,-2.9999,-3.0492,-3.1177,-3.1566,-3.1551,-3.2228,-3.2517,-3.2322,-3.2671,-3.3029,-3.3315,-3.345,-3.3324,-3.2941,-3.3334,-3.3161,-3.2566,-3.2316,-3.2253,-3.2329,-3.2272,-3.2191,-3.2191,-3.2342,-3.2342,-3.2287,-3.2287,-3.2247,-3.2094,0.0,0.0,0.0,0.0,0.0,0.0,0.0,0.0,0.0,0.0,0.0,0.0,-1.6246,0.0,0.0,0.0,0.0,0.0,-1.7016,0.0,0.0,0.0,0.0,-1.6274,-1.6301,-1.6355,-1.6463,-1.6554,-1.7839,-1.8792,-1.9466,-2.0543,-2.1237,-2.1631,-2.119,-2.0983,-2.0946,-2.1047,-2.1117,-2.1167,-2.1388,-2.1578,-2.1835,-2.2049,-2.2239,-2.2415,-2.2333,-2.2341,-2.2324,-2.2168,-2.2073,-2.2027,-2.1928,-2.184,0.0,0.0,0.0,-2.129,-2.2263,-2.2746,-2.3229,-2.4349,-2.4771,-2.4983,-2.5283,-2.553,-2.5711,0.0,-2.5853,-2.5742,-2.5642,-2.5655,-2.5655,-2.5614,-2.56,0.0,0.0,0.0,0.0,0.0,0.0,0.0,0.0,0.0,0.0,0.0,-3.0458,-3.1036,-3.209,-3.2321,-3.2413,-3.2453,-3.2711,-3.2904,-3.3005,-3.3203,-3.3607,-3.425,-3.4497,-3.4407,-3.4006,-3.4509,-3.3656,-3.1838,-3.2053,-3.1997,-3.1678,-3.1975,-3.2078,-3.2023,-3.2231,-3.2287,-3.2302,-3.2398,-3.2342,-3.2247,0.0,0.0,0.0,0.0,0.0,0.0,0.0,0.0,0.0,0.0,0.0,0.0,-1.6194,-1.6316,-1.6517,-1.6789,0.0,0.0,0.0,0.0,0.0,0.0,0.0,0.0,-1.6301,-1.6355,-1.6436,-1.6501,-1.7393,-1.8352,-1.9319,-1.9591,-2.055,-2.2095,-2.2238,-2.1941,-2.1372,-2.1581,-2.129,-2.076,-2.1038,-2.1487,-2.213,-2.2508,-2.3144,-2.3768,-2.3362,-2.3262,-2.3224,-2.2587,-2.2276,-2.2163,-2.1957,-2.184,-2.1768,0.0,0.0,0.0,-2.0744,-2.1089,-2.1674,-2.2281,-2.2856,-2.3533,-2.4671,-2.4769,-2.4803,-2.5727,-2.5702,-2.537,-2.4922,-2.497,-2.5022,-2.4864,-2.4864,0.0,0.0,0.0,0.0,0.0,0.0,0.0,0.0,0.0,0.0,0.0,-3.0851,-3.1489,-3.1428,-3.2453,-3.292,-3.2602,-3.3156,-3.3398,-3.3309,-3.3642,-3.3949,-3.4101,-3.4739,-3.4705,-3.4034,-3.4158,-3.3651,-3.264,-3.2835,-3.2406,-3.1511,-3.1397,-3.1414,-3.1552,-3.1868,-3.2053,-3.2038,-3.2302,-3.2398,-3.2398,0.0,0.0,0.0,0.0,0.0,0.0,0.0,0.0,0.0,0.0,0.0,0.0,0.0,-1.6219,-1.6436,-1.6633,-1.6889,0.0,0.0,0.0,0.0,0.0,0.0,0.0,0.0,-1.6436,-1.6517,-1.6554,-1.7306,-1.8232,-1.9302,-1.9849,-2.0817,-2.2087,-2.1824,-2.1595,-2.1383,-2.147,-2.1167,-2.0642,-2.1232,-2.165,-2.1972,-2.2692,-2.3666,-2.4663,-2.4545,-2.4734,-2.4965,-2.4739,-2.393,-2.3016,-2.2841,-2.2387,-2.1781,-2.134,-2.0893,-2.0581,-2.0706,-2.0765,-2.0956,-2.1411,-2.205,-2.2681,-2.3118,-2.3649,-2.4135,-2.4462,-2.4518,-2.4396,-2.4225,-2.4504,-2.459,-2.4135,0.0,0.0,0.0,0.0,0.0,0.0,0.0,0.0,0.0,0.0,0.0,0.0,0.0,-3.0833,-3.1656,-3.1908,-3.1899,-3.1679,-3.1848,-3.2222,-3.2838,-3.3707,-3.4349,-3.4756,-3.5152,-3.5157,-3.4843,-3.4889,-3.4334,-3.3408,-3.3581,-3.3192,-3.244,-3.2065,-3.2035,-3.2312,-3.2287,-3.2247,-3.2247,-3.2342,-3.2398,-3.2398,0.0,0.0,0.0,0.0,0.0,0.0,0.0,0.0,0.0,-1.5712,0.0,0.0,0.0,0.0,-1.6409,-1.6665,-1.6853,-1.6853,-1.6596,-1.6528,0.0,0.0,0.0,0.0,-1.6436,-1.6474,-1.6528,-1.6596,-1.7267,-1.7997,-1.8765,-1.9681,-2.0601,-2.1519,-2.1399,-2.1342,-2.1363,-2.1327,-2.1064,-2.0729,-2.135,-2.1873,-2.2451,-2.3235,-2.433,-2.5477,-2.5715,-2.5892,-2.6018,-2.6035,-2.5103,-2.3908,-2.3448,-2.2575,-2.1601,-2.1151,-2.0695,-2.0381,-2.0412,-2.0221,-2.0141,-2.0593,-2.1055,-2.1561,-2.2151,-2.2748,-2.3312,-2.3664,-2.3682,-2.3626,-2.3483,-2.362,-2.3653,-2.3358,0.0,0.0,0.0,0.0,0.0,0.0,0.0,0.0,0.0,0.0,0.0,0.0,0.0,0.0,-3.1742,-3.1598,-3.142,-3.1257,-3.1124,-3.1462,-3.2287,-3.3145,-3.384,-3.4309,-3.4554,-3.4645,-3.4492,-3.4492,-3.4134,-3.3425,-3.3516,-3.3132,-3.2417,-3.226,-3.1967,-3.172,-3.2103,-3.2093,-3.1925,-3.225,-3.2398,-3.2398,0.0,0.0,0.0,0.0,0.0,0.0,0.0,0.0,-1.561,-1.561,0.0,0.0,0.0,0.0,0.0,-1.6785,-1.6853,-1.6785,-1.6528,-1.6501,0.0,0.0,0.0,0.0,-1.6501,-1.6501,-1.6528,-1.6596,-1.7235,-1.7569,-1.7616,-1.8874,-1.9776,-2.0388,-2.1073,-2.1332,-2.1255,-2.1146,-2.1109,-2.1109,-2.1265,-2.2192,-2.3569,-2.4164,-2.5134,-2.6208,-2.6842,-2.6754,-2.6298,-2.6398,-2.5759,-2.479,-2.3663,-2.2363,-2.1214,-2.0893,-2.0494,-2.003,0.0,0.0,0.0,-1.9738,-1.9727,-2.0034,-2.1735,-2.2016,-2.2269,-2.3285,-2.3313,-2.2994,-2.2602,-2.2278,-2.219,-2.2492,0.0,0.0,0.0,0.0,0.0,0.0,0.0,0.0,0.0,0.0,0.0,0.0,-2.95,-3.0464,-3.1486,-3.1566,-3.1469,-3.134,-3.1225,-3.1356,-3.1678,-3.2026,-3.2384,-3.2729,-3.2977,-3.3004,-3.2917,-3.2917,-3.2829,-3.268,-3.268,-3.2194,-3.1356,-3.189,-3.1062,-2.9738,-3.1308,-3.1485,-3.0945,-3.1956,-3.2367,-3.2367,0.0,0.0,0.0,0.0,0.0,-1.5871,-1.577,-1.5668,-1.5639,0.0,0.0,0.0,-1.6219,-1.6474,-1.6701,-1.6785,-1.6853,-1.6785,-1.6528,-1.6501,-1.6448,-1.6382,-1.6436,-1.6474,-1.6501,-1.6554,-1.6596,-1.6596,-1.6801,-1.7121,-1.7616,-1.8465,-1.9155,-1.9725,-2.0392,-2.0582,-2.0457,-2.091,-2.1088,-2.1075,-2.1712,-2.2548,-2.3576,-2.446,-2.5643,-2.6928,-2.7936,-2.8425,-2.8693,-2.9379,-2.8273,-2.6237,-2.3826,-2.2269,-2.1214,-2.0893,-2.0494,-2.003,-1.9747,0.0,0.0,0.0,0.0,0.0,0.0,0.0,-2.1177,-2.163,-2.1594,-2.1458,-2.1246,-2.1527,-2.1677,-2.1522,0.0,0.0,0.0,0.0,0.0,0.0,0.0,0.0,0.0,0.0,0.0,0.0,-2.8936,-2.9916,-3.0559,-3.0367,-3.014,-3.0048,-3.0402,-3.0893,-3.1536,-3.2027,-3.2578,-3.3141,-3.3201,-3.3125,-3.2917,-3.3004,-3.2917,-3.268,-3.2785,-3.2187,-3.1172,-3.1598,-3.1517,-3.1111,-3.0701,-3.0652,-3.083,-3.1217,-3.1387,-3.1387,0.0,0.0,0.0,-1.6347,-1.6291,-1.6308,-1.6517,-1.6517,-1.6578,0.0,0.0,0.0,-1.734,-1.7332,-1.7279,-1.7253,-1.7039,-1.6811,-1.6607,-1.6607,-1.6596,-1.6543,-1.6596,-1.6623,-1.6623,-1.6623,-1.6596,-1.6596,-1.6596,-1.6801,-1.7216,-1.7896,-1.8543,-1.9092,-1.9745,-2.0061,-2.0131,-2.0492,-2.0923,-2.1356,-2.1919,-2.2808,-2.394,-2.4721,-2.5724,-2.6919,-2.8446,-2.911,-2.9397,-3.0575,-2.9277,-2.6742,-2.4269,-2.2731,-2.1681,-2.1005,-2.0527,-2.0115,-1.9833,-1.9472,-1.9228,-1.913,0.0,0.0,-1.9789,-2.0268,-2.0755,0.0,-2.0941,-2.0917,-2.0817,-2.098,-2.1091,-2.1125,0.0,0.0,0.0,0.0,0.0,0.0,0.0,0.0,0.0,-2.6796,-2.7736,-2.7137,-2.8522,-2.9621,-3.0076,-2.9842,-2.9681,-2.9608,-2.9948,-3.0412,-3.0985,-3.1336,-3.1828,-3.2345,-3.2303,-3.2203,-3.1957,-3.2059,-3.1957,-3.1802,-3.2204,-3.1644,-3.0445,-3.0924,-3.1003,-3.0829,-3.0525,-3.0356,-3.0328,-3.0749,-3.0728,-3.0431,0.0,0.0,-1.6253,-1.6804,-1.6788,-1.6904,-1.7528,-1.773,-1.7842,0.0,-1.8191,-1.853,-1.8887,-1.8455,-1.8092,-1.7957,-1.7369,-1.6943,-1.6738,-1.6769,-1.6769,-1.6722,-1.6769,-1.6811,-1.6811,-1.6665,-1.6596,-1.6596,-1.6596,-1.6596,-1.6612,-1.7338,-1.8019,-1.8622,-1.9233,-1.9723,-2.0115,-2.0025,-2.0728,-2.1822,-2.1955,-2.2949,-2.4451,-2.5108,-2.5777,-2.6697,-2.8713,-2.9281,-2.9243,-3.0623,-2.9346,-2.6819,-2.5026,-2.362,-2.2411,-2.1276,-2.067,-2.0327,-1.9935,-1.9617,-1.9413,-1.9376,-1.925,0.0,-1.9812,-2.0272,-2.0623,0.0,-2.084,-2.0834,-2.0781,-2.0598,-2.0612,0.0,0.0,0.0,0.0,0.0,0.0,0.0,0.0,0.0,-2.4462,-2.6168,-2.7179,-2.6748,-2.836,-2.9502,-2.9874,-2.9826,-2.9782,-2.9726,-2.9782,-2.9968,-3.0309,-3.0468,-3.0692,-3.1015,-3.0952,-3.0814,-3.0733,-3.0692,-3.0651,-3.0559,-3.1222,-3.0735,-2.9608,-3.0172,-3.0022,-2.9558,-3.0327,-3.0196,-2.9589,-3.0268,-3.0102,-2.9484,0.0,-1.6095,-1.6196,-1.6804,-1.6788,-1.6936,-1.7593,-1.7794,-1.7923,-1.805,-1.8529,-1.8914,-1.9131,-1.9086,-1.8778,-1.8125,-1.7883,-1.7524,-1.6911,-1.6879,-1.6879,-1.6863,-1.6811,-1.6811,-1.6811,-1.6665,-1.6596,-1.6596,-1.6596,-1.6596,-1.6612,-1.7338,-1.8019,-1.8622,-1.9233,-1.9789,-2.027,-2.0115,-2.0786,-2.1955,-2.1994,-2.3143,-2.4958,-2.5902,-2.6906,-2.8047,-2.9666,-3.0317,-3.049,-3.0957,-2.9744,-2.7808,-2.6522,-2.4863,-2.3158,-2.2095,-2.1478,-2.1003,-2.0253,-1.9904,-1.969,-1.9654,-1.9617,0.0,-1.9649,-1.9745,-1.9868,0.0,-2.0039,-2.0014,-1.9886,-2.0395,-2.0746,0.0,0.0,0.0,0.0,0.0,0.0,0.0,0.0,0.0,-2.3995,-2.609,-2.7285,-2.6895,-2.8554,-2.9681,-2.9902,-2.9902,-2.9858,-2.9874,-2.9946,-3.013,-3.0468,-3.0593,-3.0773,-3.1015,-3.0975,-3.0952,-3.0871,-3.0733,-3.0692,-3.0651,-3.0717,-3.0405,-2.9886,-2.9749,-2.9533,-2.92,-2.8622,-2.8583,-2.8801,-2.8868,-2.877,-2.8651,-1.6055,-1.597,-1.608,-1.6653,-1.698,-1.7396,-1.8071,-1.8661,-1.9073,-1.9271,-1.9767,-2.018,-2.03,-2.0049,-1.9719,-1.9276,-1.8864,-1.8291,-1.7555,-1.747,-1.731,-1.7023,-1.6905,-1.6853,-1.6853,-1.6691,-1.6596,-1.6596,-1.6596,-1.6596,-1.6596,-1.6975,-1.7701,-1.8651,-1.8935,-1.9544,-2.0392,-2.0289,-2.0946,-2.2056,-2.2071,-2.3102,-2.4752,-2.556,-2.6395,-2.735,-2.8779,-2.9816,-3.04,-3.0082,-2.9223,-2.8047,-2.6521,-2.5162,-2.3921,-2.2831,-2.2307,-2.1994,-2.1435,-2.0916,-2.0512,-2.0455,-2.0125,0.0,0.0,-1.9959,-2.0072,-1.9968,-2.0059,-2.0114,-1.9952,0.0,-2.033,0.0,0.0,0.0,0.0,0.0,0.0,0.0,0.0,0.0,-2.336,-2.5287,-2.6729,-2.6993,-2.8263,-2.9062,-2.9106,-2.9134,-2.9265,-2.9564,-2.9346,-2.9534,-3.0182,-3.0381,-3.0684,-3.1112,-3.1112,-3.1072,-3.0952,-3.0895,-3.0814,-3.0773,-3.0485,-3.013,-2.9782,-2.9364,-2.903,-2.874,-2.8389,-2.8396,-2.854,-2.8314,-2.8001,-2.7682,-1.5856,-1.5799,-1.5935,-1.6485,-1.7154,-1.784,-1.8612,-1.95,-2.0204,-2.0561,-2.099,-2.134,-2.1433,-2.1019,-2.0626,-2.0437,-1.9825,-1.9102,-1.8346,-1.813,-1.7872,-1.7504,-1.7126,-1.6969,-1.7097,-1.6755,-1.6596,-1.6596,-1.657,-1.657,-1.6596,-1.6596,-1.7338,-1.8708,-1.8635,-1.9343,-2.0561,-2.0475,-2.1034,-2.207,-2.2278,-2.3257,-2.4653,-2.5305,-2.5999,-2.6764,-2.8015,-2.9155,-2.9969,-2.9257,-2.8702,-2.8013,-2.6387,-2.5444,-2.4704,-2.3567,-2.3122,-2.2965,-2.2514,-2.1921,-2.1312,-2.1147,-2.0594,-2.0076,0.0,0.0,0.0,-2.0152,-2.0234,0.0,0.0,0.0,0.0,0.0,0.0,0.0,0.0,0.0,0.0,0.0,0.0,0.0,0.0,-2.4426,-2.6036,-2.7116,-2.7944,-2.8414,-2.8387,-2.8414,-2.8656,-2.9198,-2.8721,-2.8887,-2.9719,-2.9892,-3.0272,-3.0806,-3.0768,-3.0796,-3.0813,-3.0796,-3.0841,-3.0912,-3.0485,-3.0087,-2.9617,-2.9227,-2.8826,-2.8458,-2.8531,-2.8538,-2.8449,-2.8068,-2.7586,-2.7055,-1.561,-1.5639,-1.5817,-1.6393,-1.7122,-1.784,-1.8612,-1.95,-2.0273,-2.0795,-2.1103,-2.1388,-2.1559,-2.1507,-2.1196,-2.0557,-2.0339,-1.9939,-1.9135,-1.8459,-1.8346,-1.894,-1.7641,-1.7193,-1.7786,-1.695,-1.6501,-1.6501,-1.6463,-1.6463,-1.6501,-1.6501,-1.7294,-1.8708,-1.8635,-1.9405,-2.0761,-2.0561,-2.1051,-2.1963,-2.2635,-2.3995,-2.5727,-2.649,-2.7458,-2.8527,-2.9367,-2.9887,-3.0056,0.0,-2.9103,-2.8151,-2.7431,-2.6518,-2.5509,-2.4335,-2.3962,-2.3676,-2.2385,-2.185,-2.1506,-2.0926,-2.0537,-2.0354,-2.027,0.0,-2.0137,-2.0041,0.0,0.0,0.0,0.0,0.0,0.0,0.0,0.0,0.0,0.0,0.0,0.0,0.0,0.0,0.0,-2.3991,-2.5815,-2.7419,-2.8073,-2.8501,-2.8747,-2.8662,-2.8773,-2.9198,-2.8721,-2.8674,-2.9003,-2.9166,-2.9236,-2.9338,-2.9265,-2.9583,-3.0188,-3.0078,-3.0393,-3.0975,-3.0871,-3.0426,-2.975,-2.9705,-2.9273,-2.8541,-2.8229,-2.8076,-2.8026,-2.7607,-2.7358,-2.7181,-1.5418,-1.5477,-1.5566,-1.5815,-1.6481,-1.7243,-1.8044,-1.9495,-2.0628,-2.0974,-2.1294,-2.1528,-2.1589,-2.1664,-2.1562,-2.1177,-2.1101,-2.0747,-1.9897,-1.9544,-1.9317,-1.9216,-1.8538,-1.8086,-1.7914,-1.742,-1.6964,-1.6501,-1.6436,-1.6409,-1.6436,-1.6843,-1.759,-1.8621,-1.9013,-2.0051,-2.1496,-2.141,-2.1961,-2.3025,-2.3775,-2.471,-2.5631,-2.6257,-2.7038,-2.7912,-2.845,-2.8654,-2.8702,0.0,-2.8213,0.0,0.0,0.0,-2.6052,-2.5435,-2.5224,-2.4903,-2.3832,-2.3095,-2.2442,-2.1704,0.0,0.0,-2.0441,0.0,-2.027,0.0,0.0,0.0,0.0,0.0,0.0,0.0,-1.9797,0.0,0.0,0.0,0.0,0.0,0.0,0.0,0.0,0.0,0.0,0.0,-2.6094,-2.6885,-2.7943,-2.7464,-2.7582,-2.8516,-2.7736,-2.7609,-2.8262,-2.8561,-2.8887,-2.9228,-2.9193,-2.9327,-2.9634,-2.9488,-2.9583,-2.9922,-2.9978,-2.9741,-2.927,-2.9428,-2.9213,-2.8684,-2.8363,-2.8201,-2.8103,-2.774,-2.764,-2.7675,-1.5224,-1.5314,-1.5344,-1.5374,-1.5991,-1.6886,-1.8042,-1.9698,-2.0876,-2.1103,-2.1373,-2.1573,-2.1603,-2.1694,-2.1724,-2.162,-2.1573,-2.1269,-2.0613,-2.0402,-2.0143,-1.9829,-1.9341,-1.8913,-1.8519,-1.7956,-1.7373,-1.6756,-1.6491,-1.6437,-1.6651,-1.7148,-1.7877,-1.8811,-1.9359,-2.0399,-2.1706,-2.1738,-2.2407,-2.3539,-2.4398,-2.5163,-2.5897,-2.6286,-2.6757,-2.7244,-2.7582,-2.7672,-2.763,-2.76,-2.7496,0.0,-2.7021,-2.6741,-2.647,-2.621,-2.612,-2.5933,-2.5069,0.0,0.0,0.0,0.0,0.0,0.0,0.0,0.0,0.0,0.0,0.0,0.0,0.0,-1.9919,-1.9797,0.0,-1.9726,0.0,0.0,0.0,0.0,0.0,0.0,0.0,0.0,0.0,0.0,0.0,-2.5734,-2.6937,-2.6695,-2.6961,-2.7855,-2.7108,-2.6957,-2.7503,-2.786,-2.8268,-2.8716,-2.8699,-2.8802,-2.9008,-2.8867,-2.8915,-2.91,-2.912,-2.9057,-2.8958,-2.9062,-2.8993,-2.8826,-2.8589,-2.8444,-2.8284,-2.7989,-2.789,-2.7925,-1.4902,-1.5086,-1.5222,-1.5283,-1.5975,-1.713,-1.8991,-2.0141,-2.0909,-2.1151,-2.1309,-2.1479,-2.1694,-2.1634,-2.162,-2.1589,-2.1464,-2.1355,-2.1276,-2.0661,-2.061,-2.1289,-1.9903,-1.938,-2.0008,-1.8435,-1.7569,-1.748,-1.6629,-1.6573,-1.7277,-1.7308,-1.8067,-1.9467,-1.9562,-2.0099,-2.0925,-2.1054,-2.1794,-2.2912,-2.3926,-2.5389,-2.6973,0.0,-2.7293,-2.7244,-2.7582,0.0,0.0,-2.7557,-2.7417,0.0,0.0,0.0,0.0,0.0,0.0,0.0,0.0,0.0,0.0,-2.2914,0.0,0.0,0.0,0.0,-2.0626,0.0,0.0,0.0,0.0,-1.994,-1.9797,-1.9797,-1.9726,0.0,0.0,0.0,0.0,0.0,0.0,0.0,0.0,0.0,0.0,0.0,0.0,0.0,-2.5963,-2.7085,-2.7588,-2.7222,-2.7321,-2.7207,-2.6825,-2.7023,-2.7169,-2.7267,-2.7203,-2.7549,-2.8236,-2.8083,-2.8422,-2.9083,-2.8699,-2.8698,-2.9001,-2.8715,-2.8742,-2.8873,-2.8826,-2.87,-2.8525,-2.8152,-2.7905,-2.784,-1.4808,-1.5025,-1.5238,-1.5344,-1.5669,-1.6548,-1.847,-1.9956,-2.0942,-2.123,-2.134,-2.1495,-2.1694,-2.1634,-2.1589,-2.1589,-2.1388,-2.123,-2.1151,-2.0799,-2.0767,-2.1246,-2.0653,-2.0254,-2.021,-1.9489,-1.8819,-1.8228,-1.7848,-1.7744,-1.79,-1.8392,-1.8903,-1.94,-1.9882,-2.066,-2.1575,-2.1692,-2.2442,-2.3654,-2.4869,-2.6179,-2.7373,0.0,0.0,-2.7213,-2.7417,-2.7539,0.0,-2.7617,-2.7569,-2.7491,-2.7307,-2.7213,-2.7149,-2.6939,-2.6858,0.0,0.0,0.0,-2.3962,-2.3073,0.0,0.0,0.0,0.0,0.0,0.0,0.0,0.0,0.0,-2.0952,-2.0762,-2.0066,-1.9848,-1.9762,0.0,0.0,0.0,0.0,0.0,0.0,0.0,0.0,0.0,0.0,-2.3506,0.0,0.0,-2.6026,-2.625,-2.6972,-2.6966,-2.6825,-2.6556,-2.7085,-2.7386,-2.7386,-2.7373,-2.7494,-2.7722,-2.753,-2.7419,-2.7521,-2.7746,-2.7916,-2.8102,-2.8462,-2.8786,-2.9013,-2.8936,-2.8811,-2.8684,-2.8396,-2.8299,-2.8332,-1.4788,-1.5241,-1.5574,-1.5462,-1.604,-1.703,-1.8686,-2.0067,-2.1007,-2.1277,-2.1402,-2.1526,-2.1678,-2.1603,-2.1542,-2.1589,-2.1294,-2.1135,-2.1167,-2.0974,-2.0974,-2.1262,-2.1135,-2.0957,-2.0675,-2.0219,-1.9684,-1.9042,-1.8654,-1.8517,-1.8655,-1.9119,-1.9458,-1.9672,-2.0187,-2.0793,-2.1489,-2.1676,-2.2638,-2.4149,-2.5814,-2.6878,0.0,0.0,-2.723,-2.7293,0.0,-2.7539,-2.76,-2.763,-2.7659,-2.7642,-2.76,-2.7539,-2.7478,-2.7355,-2.7247,-2.6985,-2.6343,-2.5503,0.0,-2.4024,-2.3185,0.0,-2.2295,0.0,-2.2167,0.0,0.0,0.0,0.0,-2.1374,-2.0957,-2.0262,-2.001,-1.9904,0.0,-2.015,0.0,0.0,0.0,-2.0843,0.0,-2.1278,-2.1676,-2.237,-2.2744,0.0,0.0,0.0,-2.5872,-2.6652,-2.6904,-2.6859,-2.6556,-2.7166,-2.7496,-2.7526,-2.7526,-2.7526,-2.7496,-2.7166,-2.6891,-2.6725,-2.6797,-2.7153,-2.7639,-2.7965,-2.8375,-2.8728,-2.8872,-2.8685,-2.8389,-2.8463,-2.8493,-2.8541,-1.4886,-1.5676,-1.6252,-1.5757,-1.7061,-1.8516,-1.9547,-2.0384,-2.1007,-2.1277,-2.1481,-2.1603,-2.1694,-2.1526,-2.1464,-2.162,-2.1166,-2.1039,-2.1277,-2.1167,-2.1183,-2.1386,-2.1419,-2.1404,-2.1309,-2.0649,-2.0141,-1.9877,-1.9105,-1.8967,-1.9446,-1.9446,-1.977,-2.0304,-2.0388,-2.0525,-2.0726,-2.1038,-2.236,-2.4406,-2.6575,-2.7352,-2.7213,-2.7373,-2.7404,-2.7434,-2.7612,-2.7569,-2.7434,-2.7642,-2.7659,-2.7617,-2.7672,-2.7701,-2.7672,-2.7539,-2.7526,-2.7509,-2.7181,-2.649,-2.5831,-2.5639,0.0,0.0,0.0,0.0,-2.3885,0.0,0.0,0.0,0.0,0.0,-2.0605,-2.046,-2.0239,-2.01,-2.01,-2.027,-2.0441,0.0,0.0,-2.0958,-2.107,-2.1404,-2.165,-2.1694,-2.2598,-2.3421,0.0,0.0,-2.6282,-2.6264,-2.7123,-2.7332,-2.6825,-2.7198,-2.7465,-2.7587,-2.7587,-2.7557,-2.7465,-2.7021,-2.6758,-2.6624,-2.5977,-2.6438,-2.7566,-2.7285,-2.7545,-2.8158,-2.8652,-2.8388,-2.7797,-2.8372,-2.8493,-2.8411,-1.556,-1.6664,-1.7691,-1.8218,-1.8746,-1.9248,-1.9782,-2.0528,-2.1151,-2.134,-2.1371,-2.1481,-2.1694,-2.1526,-2.1479,-2.1738,-2.1388,-2.1167,-2.1277,-2.0974,-2.0974,-2.1309,-2.1682,-2.1779,-2.1603,-2.1601,-2.1359,-2.083,-2.04,-2.0238,-2.036,-2.0226,-2.0218,-2.0388,-2.0388,-2.0457,-2.0561,-2.1006,-2.2486,-2.4669,-2.5901,-2.6792,-2.7417,0.0,-2.7557,-2.7557,-2.7478,-2.7539,-2.7642,-2.7672,-2.7701,-2.7672,-2.7701,-2.7689,-2.76,-2.7587,-2.7448,-2.7276,-2.7181,-2.649,-2.572,-2.5639,-2.497,-2.4322,0.0,0.0,0.0,0.0,0.0,0.0,0.0,0.0,-2.234,-2.0919,-2.0426,-2.027,-2.027,-2.0373,-2.0527,-2.0695,0.0,0.0,-2.1119,-2.1404,-2.1634,-2.1768,-2.2111,0.0,0.0,0.0,0.0,-2.5681,-2.6657,-2.7079,-2.694,-2.7293,-2.7526,-2.7587,-2.7557,-2.7417,-2.7198,-2.6923,-2.659,-2.6189,-2.6049,-2.6553,-2.74,-2.6896,-2.7243,-2.811,-2.8239,-2.8386,-2.8498,-2.8479,-2.846,-2.8411,-1.6255,-1.7423,-1.8606,-1.951,-1.9834,0.0,-2.0384,-2.0799,0.0,-2.1277,-2.1388,-2.1481,-2.1556,-2.1556,-2.1587,-2.1708,-2.1433,-2.1325,-2.1419,-2.1183,-2.1166,-2.1495,-2.2053,-2.2134,-2.1711,-2.2102,-2.1956,-2.123,-2.0783,-2.048,-2.0335,-1.9876,-1.981,-2.004,-2.004,-2.0229,-2.0677,-2.1616,-2.3062,-2.4774,-2.5816,-2.6757,0.0,-2.763,-2.763,-2.763,-2.7569,-2.7612,-2.7701,-2.7701,-2.7701,-2.7701,-2.7701,-2.7672,-2.763,-2.7617,-2.7478,-2.7355,-2.7244,-2.6776,-2.6309,-2.6245,-2.581,-2.5392,-2.5409,-2.5344,-2.5379,0.0,0.0,0.0,0.0,0.0,0.0,-2.1579,-2.0832,-2.0441,-2.0407,-2.0758,-2.0973,-2.0826,-2.1244,0.0,0.0,-2.1435,-2.1634,-2.1738,-2.1911,0.0,0.0,0.0,0.0,-2.5656,-2.6597,-2.7152,-2.723,-2.7404,-2.7526,-2.7587,-2.7526,-2.7404,-2.7215,-2.6989,-2.6691,-2.6349,-2.6262,-2.6582,-2.7163,-2.6916,-2.7001,-2.7311,-2.7482,-2.8088,-2.8747,-2.8541,-2.8444,-2.8411,-1.6987,-1.8067,-1.9224,-1.9974,-2.0407,0.0,0.0,-2.1103,0.0,-2.1215,0.0,-2.1542,-2.1433,-2.1587,-2.1694,-2.1664,-2.1526,-2.1526,-2.1634,-2.157,-2.1615,-2.1811,-2.2448,-2.2467,-2.1754,-2.2307,-2.2197,-2.1371,-2.0659,-2.0199,-1.9953,-1.913,-1.901,-1.9515,-1.9531,-2.005,-2.099,-2.2479,-2.3735,-2.4821,-2.6022,-2.6935,-2.7617,-2.7672,-2.7701,-2.7701,-2.7701,-2.7701,-2.7701,-2.7701,-2.7701,-2.7701,-2.7701,-2.7701,-2.7672,-2.7617,-2.7587,-2.7526,-2.7293,-2.7166,-2.707,-2.704,-2.6859,-2.6742,-2.6876,-2.6792,-2.6691,-2.6742,-2.6101,-2.5547,0.0,0.0,0.0,-2.2403,-2.1462,-2.0884,-2.0811,-2.1271,-2.1418,-2.1,0.0,0.0,0.0,0.0,0.0,0.0,0.0,0.0,0.0,0.0,0.0,-2.5723,-2.6602,0.0,-2.7496,0.0,-2.7526,-2.7587,-2.7526,-2.7434,-2.7345,-2.712,-2.6923,-2.6741,-2.6521,-2.6607,-2.6913,-2.7057,-2.6798,-2.6395,-2.683,-2.7698,-2.8794,-2.8684,-2.8541,-2.8396,-1.7791,-1.8815,-1.9662,-1.9975,-2.0289,-2.0628,-2.0877,-2.1071,-2.1215,-2.1262,-2.1371,-2.1464,-2.1542,-2.1664,-2.1768,-2.1928,-2.1811,0.0,0.0,-2.1811,-2.1781,-2.1899,-2.2524,-2.2604,-2.1957,-2.2446,-2.2401,-2.1811,-2.079,-2.03,-2.0286,-1.9308,-1.889,-1.896,-1.9576,-2.0446,-2.153,-2.2742,0.0,-2.4893,-2.604,-2.6935,-2.7617,-2.7672,-2.7701,-2.7701,-2.7701,-2.7701,-2.7701,-2.7701,-2.7701,-2.7701,-2.7701,-2.7642,-2.7617,-2.7617,-2.7513,-2.7438,-2.7376,-2.7201,-2.704,-2.707,-2.6891,-2.6742,-2.6876,-2.6792,-2.6742,-2.6842,-2.6657,-2.6286,-2.5693,0.0,0.0,0.0,0.0,0.0,-2.2438,-2.1597,-2.1108,-2.1566,-2.1568,-2.1438,0.0,0.0,0.0,0.0,0.0,0.0,0.0,0.0,0.0,0.0,-2.5872,0.0,0.0,0.0,-2.7496,-2.7526,-2.7496,-2.7373,-2.7135,-2.7038,-2.6858,-2.6539,-2.6607,-2.6749,-2.6864,-2.664,-2.6754,-2.7141,-2.7326,-2.7949,-2.8794,-2.8747,-2.8684,-2.8541,-1.8461,-1.9082,-1.9581,-1.9797,-2.008,0.0,0.0,-2.099,-2.1151,-2.123,-2.134,-2.1417,-2.1495,-2.1648,-2.1797,-2.1899,-2.1945,-2.202,-2.1998,-2.2032,-2.2077,-2.2106,-2.2692,-2.2712,-2.2123,-2.2601,-2.254,-2.1899,0.0,-1.9958,-1.9902,-1.8583,-1.814,-1.8547,-1.9725,-2.1068,0.0,0.0,0.0,-2.5639,-2.6225,-2.6935,-2.7659,-2.7701,-2.7701,-2.7701,-2.7701,-2.7701,-2.7701,-2.7701,-2.7701,-2.7701,-2.7701,-2.7672,-2.7659,-2.7617,-2.7557,-2.7483,-2.7407,-2.7233,-2.7055,-2.7055,-2.6875,-2.6742,-2.6876,-2.6792,-2.6742,-2.6876,-2.6792,-2.659,-2.6168,-2.5346,0.0,0.0,0.0,0.0,0.0,-2.1706,-2.1627,-2.2011,-2.2194,-2.2231,0.0,0.0,0.0,0.0,0.0,0.0,0.0,0.0,0.0,0.0,0.0,0.0,0.0,0.0,0.0,-2.7557,-2.7386,-2.7279,-2.7247,-2.7233,-2.712,-2.694,-2.699,-2.6945,-2.6762,-2.6214,-2.6508,-2.728,-2.6855,-2.7454,-2.8463,-2.8279,-2.8326,-2.8493,-1.8879,-1.9093,-1.9339,-1.9581,-1.9869,-2.022,-2.0626,-2.0877,-2.1055,-2.123,-2.1371,-2.1448,-2.1448,-2.1661,-2.1811,-2.184,-2.2049,-2.2135,-2.2073,-2.2192,-2.235,-2.2519,-2.2761,-2.2765,-2.2449,-2.2718,-2.2605,0.0,0.0,0.0,0.0,-1.8306,-1.8,0.0,0.0,0.0,0.0,0.0,-2.4809,-2.6341,-2.6568,-2.7105,-2.7701,-2.7701,-2.7701,-2.7701,-2.7701,-2.7701,-2.7701,-2.7701,-2.7701,-2.7701,-2.7701,-2.7701,-2.7672,-2.7617,-2.7587,-2.7526,-2.7438,-2.7247,-2.7103,-2.7023,-2.6892,-2.6775,-2.6893,-2.6825,-2.6775,-2.6893,-2.6825,-2.6725,-2.6674,-2.6118,0.0,0.0,0.0,0.0,0.0,0.0,-2.2521,-2.2554,-2.2927,-2.3029,-2.2602,0.0,0.0,0.0,0.0,0.0,-2.1998,-2.2818,0.0,0.0,0.0,-2.6574,-2.7426,0.0,-2.7386,0.0,-2.7324,-2.7279,-2.7438,-2.7438,-2.7407,-2.7345,-2.7313,-2.7105,-2.6708,-2.5994,-2.6274,-2.7102,-2.6399,-2.6852,-2.7901,-2.759,-2.7721,-2.8028,0.0,-1.8865,0.0,0.0,0.0,0.0,-2.0626,-2.0827,-2.1023,-2.1355,-2.1556,-2.1648,-2.1648,-2.1738,-2.184,-2.1969,-2.1998,-2.2073,-2.2265,-2.2282,-2.2586,-2.3186,-2.2676,-2.2625,-2.3173,-2.2756,-2.2445,0.0,0.0,-2.1005,0.0,-1.975,-1.9695,0.0,0.0,0.0,0.0,-2.4557,-2.5496,-2.6464,-2.7274,-2.7631,-2.7701,-2.7701,-2.7701,-2.7701,-2.7701,-2.7701,-2.7701,-2.7701,-2.7701,-2.7701,-2.7701,-2.7659,-2.7617,-2.7617,-2.7513,-2.7407,-2.7407,-2.7247,-2.7103,-2.7103,-2.7023,-2.6942,-2.6926,-2.6893,-2.6893,-2.6893,-2.6893,-2.6893,-2.6893,-2.6708,-2.6539,0.0,0.0,0.0,0.0,0.0,-2.372,-2.342,-2.3368,-2.2949,0.0,-2.2049,0.0,0.0,-2.194,0.0,-2.1998,-2.2383,-2.3042,-2.3964,0.0,-2.5743,-2.6586,-2.7238,-2.7539,-2.7496,-2.7526,-2.7557,-2.7587,-2.7587,-2.7587,-2.7557,-2.7438,-2.725,-2.6909,-2.6225,-2.6274,-2.672,-2.6518,-2.6691,-2.6989,-2.6842,-2.6829,-2.6941,0.0,0.0,0.0,0.0,0.0,0.0,0.0,-2.0844,-2.1166,-2.1386,-2.1433,-2.1526,-2.1738,-2.1738,-2.1781,-2.194,-2.2061,-2.2106,-2.2061,-2.2209,-2.2417,-2.2635,-2.2406,-2.2474,-2.2819,-2.2613,-2.2487,0.0,0.0,-2.124,-2.1053,-2.019,0.0,0.0,0.0,-2.2323,-2.3932,-2.4344,-2.5,-2.5827,-2.6153,-2.6584,-2.7034,-2.7091,-2.7419,-2.7842,-2.7882,-2.7864,-2.7864,-2.7864,-2.7806,-2.7701,-2.7795,-2.7813,-2.7754,-2.7689,-2.7659,-2.76,-2.7496,-2.7404,-2.7324,-2.7293,-2.7198,-2.7135,-2.7201,-2.7201,-2.7201,-2.7201,-2.712,-2.7087,-2.7023,-2.6973,-2.6787,0.0,0.0,0.0,0.0,0.0,-2.3951,-2.3918,-2.3733,-2.3364,-2.2678,0.0,0.0,0.0,0.0,0.0,0.0,0.0,0.0,-2.3942,0.0,-2.5677,-2.6538,-2.7173,-2.7526,-2.763,-2.7509,-2.7526,-2.7587,-2.7587,-2.7496,-2.7293,-2.7103,-2.6875,-2.6555,-2.6154,-2.6081,-2.6194,-2.5873,-2.603,-2.6362,-2.608,-2.6156,-2.6499,-1.8228,0.0,-1.8827,0.0,-1.9551,-1.9965,-2.0444,-2.0877,-2.1198,-2.1433,-2.1402,-2.1495,-2.1797,-2.1797,-2.1827,-2.1974,-2.2123,-2.2168,-2.2032,-2.2209,-2.2383,-2.2517,-2.2372,0.0,-2.2683,-2.259,-2.2542,-2.246,-2.2047,-2.1764,-2.1606,0.0,0.0,0.0,-2.1927,-2.2832,-2.4174,-2.4191,-2.4681,-2.5428,-2.5374,-2.5875,-2.6623,-2.669,-2.7211,-2.7946,-2.7957,-2.7957,-2.7957,-2.794,-2.7836,-2.773,-2.7871,-2.7888,-2.7842,-2.7795,-2.7748,-2.7701,-2.76,-2.7509,-2.7496,-2.7434,-2.7355,-2.7293,-2.7324,-2.7373,-2.7404,-2.7341,-2.7261,-2.7181,-2.7198,-2.7166,-2.6963,-2.6447,0.0,0.0,0.0,-2.5007,0.0,-2.4337,-2.416,-2.376,-2.3038,-2.2954,0.0,0.0,0.0,0.0,0.0,0.0,0.0,0.0,0.0,0.0,0.0,-2.7081,-2.7569,-2.7701,-2.7569,-2.7539,-2.763,-2.763,-2.7478,-2.723,-2.7053,-2.6825,-2.6521,-2.6208,-2.601,-2.5844,-2.5476,-2.5511,-2.5717,-2.5462,-2.5548,-2.5852,-1.8439,-1.8595,-1.8851,-1.942,-1.9645,-2.0035,-2.0679,-2.0844,-2.1071,-2.1559,-2.1589,-2.1664,-2.1869,-2.1899,-2.1974,-2.2168,-2.2214,-2.2242,-2.2282,-2.231,-2.2603,0.0,0.0,-2.2546,-2.3087,-2.2829,-2.2605,-2.2405,0.0,0.0,-2.2561,0.0,-2.2615,-2.2694,-2.2902,-2.3516,-2.438,-2.438,-2.4821,-2.5482,-2.5482,-2.5985,-2.6717,-2.6772,-2.7295,-2.7986,-2.7917,-2.7888,-2.7888,-2.7748,-2.7701,-2.773,-2.794,-2.7864,-2.773,-2.7859,-2.7754,-2.7617,-2.7672,-2.76,-2.7496,-2.7496,-2.7496,-2.7448,-2.7261,-2.7293,-2.7373,-2.723,-2.7213,-2.7261,-2.7373,-2.7293,-2.7261,-2.7355,0.0,0.0,0.0,-2.6841,0.0,-2.4768,-2.4641,-2.4108,-2.2575,-2.2477,0.0,0.0,0.0,0.0,0.0,0.0,0.0,-2.279,-2.4425,0.0,-2.5419,-2.6929,-2.7701,-2.7701,-2.7701,-2.7701,-2.7701,-2.7701,-2.7659,-2.7587,-2.7434,-2.7261,-2.7053,-2.659,-2.6189,-2.5897,-2.568,-2.5355,-2.5021,-2.5021,-2.4862,-2.4714,-1.8319,-1.8542,-1.8851,-1.942,-1.9859,-2.0296,-2.0795,-2.1245,-2.154,-2.1664,-2.1797,-2.1945,-2.2094,-2.2032,-2.1998,0.0,-2.218,-2.2209,0.0,-2.2209,-2.2355,-2.2534,-2.2389,-2.244,-2.2671,-2.2752,-2.2738,-2.2659,0.0,0.0,0.0,-2.2842,-2.2876,-2.2919,-2.307,-2.3284,-2.3513,-2.3562,-2.3728,-2.3915,-2.3915,-2.4441,-2.5252,-2.5878,-2.6597,-2.7343,-2.7921,-2.7743,-2.7281,-2.7236,-2.68,-2.6303,-2.6446,-2.7108,-2.7842,-2.7888,-2.7888,-2.7853,-2.773,-2.7777,-2.7824,-2.7689,-2.7707,-2.7724,-2.7582,-2.7582,-2.763,-2.7665,-2.76,-2.7552,-2.7557,-2.7478,-2.7496,-2.7526,-2.7355,0.0,0.0,0.0,-2.5811,-2.5045,-2.4849,-2.4413,0.0,-2.3981,0.0,0.0,0.0,0.0,0.0,0.0,0.0,0.0,-2.4488,0.0,-2.5401,-2.6929,-2.7701,-2.7701,-2.7659,-2.7569,-2.7478,-2.7478,-2.7386,-2.7184,-2.707,-2.6825,-2.6556,-2.6555,-2.6189,-2.568,-2.568,-2.5416,-2.4966,-2.4791,-2.467,-2.462,-1.8411,-1.8644,-1.9026,-1.966,-2.0124,-2.0565,-2.1103,-2.1509,-2.1768,-2.1768,-2.1928,-2.2044,-2.2185,-2.222,0.0,-2.2101,-2.2237,-2.2237,-2.2061,-2.2209,-2.231,-2.2366,-2.231,-2.2405,-2.2605,0.0,0.0,-2.2893,-2.3028,-2.307,-2.2995,-2.3052,-2.3095,-2.3095,-2.3193,-2.3193,-2.3144,-2.3217,-2.3241,-2.3241,-2.3265,-2.3791,-2.4601,-2.5173,-2.5857,-2.6543,-2.7059,-2.6943,-2.6498,-2.6472,-2.6074,-2.5631,-2.5753,-2.6641,-2.7571,-2.7476,-2.767,-2.7864,-2.7795,-2.7853,-2.7929,-2.7824,-2.7842,-2.7859,-2.773,-2.7701,-2.773,-2.7795,-2.7748,-2.7701,-2.7659,-2.763,-2.763,-2.763,-2.7526,-2.7496,-2.7659,0.0,-2.563,0.0,0.0,0.0,0.0,-2.4691,-2.499,0.0,0.0,0.0,0.0,0.0,0.0,-2.3406,-2.4997,0.0,-2.5803,-2.7029,-2.7659,-2.7612,-2.7569,-2.7496,-2.7404,-2.7404,-2.7279,-2.7055,-2.6989,-2.6791,-2.6589,-2.6623,-2.6295,-2.5754,-2.5754,-2.5492,-2.5029,-2.4926,-2.4791,-2.4686,-1.8673,-1.8912,0.0,0.0,-2.0447,0.0,-2.1511,-2.1694,-2.1768,-2.1899,-2.1969,-2.2073,-2.2225,-2.246,-2.2542,-2.2366,0.0,0.0,0.0,-2.2338,-2.2432,-2.2605,-2.2432,-2.2487,-2.2816,-2.2632,-2.2712,-2.3045,-2.3217,-2.3313,-2.3289,-2.3289,-2.3265,-2.3217,-2.3289,-2.3265,-2.3217,-2.3289,-2.3313,-2.3313,-2.336,-2.3851,-2.4551,-2.4652,-2.5122,-2.5704,-2.5699,-2.5674,-2.562,-2.5543,-2.5508,-2.5498,-2.5697,-2.6351,-2.7002,-2.6764,-2.719,-2.7777,-2.7888,-2.7917,-2.7917,-2.7906,-2.7906,-2.7888,-2.773,-2.7701,-2.7701,-2.7701,-2.7701,-2.7701,-2.7701,-2.7701,-2.7701,-2.7701,-2.76,-2.7509,-2.7517,0.0,-2.563,0.0,0.0,0.0,0.0,-2.4847,-2.5281,0.0,0.0,0.0,0.0,0.0,-2.4243,-2.4287,-2.5795,-2.6584,-2.6498,-2.7233,-2.7557,-2.7496,-2.7496,-2.7434,-2.7373,-2.7373,-2.731,-2.7181,-2.7181,-2.7103,-2.6975,-2.6775,-2.6418,-2.601,-2.5954,-2.5605,-2.5169,-2.5278,-2.51,-2.4822,0.0,0.0,-1.963,-2.0296,-2.0812,-2.1291,-2.1751,-2.1961,-2.2111,-2.2123,-2.218,-2.2293,-2.2487,-2.2569,-2.2632,-2.2764,-2.2764,-2.2764,-2.2764,-2.2764,-2.279,-2.2842,-2.279,-2.279,-2.285,-2.2995,-2.3102,-2.3313,-2.336,-2.3336,-2.3289,-2.3289,-2.3289,-2.3289,-2.3383,-2.3401,-2.3289,-2.3383,-2.3407,-2.3383,-2.3383,-2.3554,-2.3832,-2.4462,-2.4819,-2.5033,-2.5579,-2.5419,-2.4938,-2.4913,-2.4534,-2.4198,-2.4895,-2.5703,-2.6483,-2.6835,-2.7513,-2.8119,-2.8014,-2.8014,-2.8042,-2.7986,-2.7986,-2.7957,-2.7871,-2.7842,-2.7842,-2.773,-2.7701,-2.7701,-2.7701,-2.7701,-2.7701,-2.7701,-2.7672,-2.742,-2.6789,-2.6469,0.0,0.0,-2.5692,-2.6045,-2.59,-2.6533,-2.6742,0.0,0.0,0.0,0.0,-2.5536,-2.5484,-2.4993,-2.6048,-2.6584,-2.6498,-2.7233,-2.7496,-2.7276,-2.7276,-2.7166,-2.7007,-2.7007,-2.7007,-2.6975,-2.704,-2.7007,-2.6926,-2.6775,-2.6556,-2.6279,-2.6046,-2.5901,-2.5754,-2.5454,-2.5317,-2.524,-1.8959,-1.9413,-1.9919,-2.0649,-2.1166,-2.1601,-2.1991,-2.214,-2.2225,-2.2366,-2.2405,-2.2515,-2.2659,-2.2764,-2.2868,-2.2944,-2.2919,-2.2893,-2.2893,-2.2868,-2.2919,-2.3045,-2.2919,-2.2952,-2.3168,-2.3095,-2.3126,-2.3313,-2.3383,-2.3424,-2.3383,-2.3383,-2.3378,-2.3336,-2.3453,-2.3424,-2.3313,-2.3504,-2.3553,-2.3508,-2.362,-2.3682,-2.3779,-2.4212,-2.4329,-2.4338,-2.482,-2.4671,-2.4284,-2.4329,-2.4089,-2.3868,-2.4381,-2.5117,-2.5889,-2.6144,-2.7252,-2.8362,-2.8246,-2.8228,-2.8182,-2.8071,-2.8025,-2.7986,-2.7917,-2.7888,-2.7859,-2.773,-2.7701,-2.7701,-2.7701,-2.7701,-2.7701,-2.7701,-2.7642,-2.743,-2.6969,-2.6603,0.0,-2.5652,-2.6133,-2.6498,-2.6498,-2.7121,-2.7322,-2.6844,-2.6657,0.0,-2.6083,-2.6506,-2.6445,-2.5813,-2.6603,-2.7005,-2.6946,-2.7239,-2.7324,-2.712,-2.712,-2.7023,-2.6893,-2.6893,-2.6876,-2.6825,-2.6942,-2.6959,-2.6893,-2.6742,-2.6624,-2.6487,-2.6118,-2.5954,-2.5917,-2.553,-2.5339,-2.5262,-1.9295,-1.9773,-2.0299,-2.1039,-2.1493,-2.189,-2.2225,-2.2225,-2.231,-2.2605,-2.2605,-2.2659,-2.2842,-2.2995,-2.3052,-2.3045,-2.2995,-2.2995,-2.2995,-2.2902,-2.2995,-2.3217,-2.302,-2.3095,-2.3494,-2.3168,-2.3095,-2.3265,-2.3407,-2.3494,-2.3494,-2.3517,-2.3494,-2.343,-2.3522,-2.3499,-2.3389,-2.3646,-2.3714,-2.3671,-2.3896,-2.3996,-2.3996,-2.3976,-2.3896,-2.3816,-2.3937,-2.3896,-2.3816,-2.3876,-2.3937,-2.4052,-2.424,-2.4833,-2.5445,-2.5515,-2.6826,-2.8214,-2.8178,-2.807,-2.8004,-2.8022,-2.7931,-2.7883,-2.794,-2.7917,-2.7824,-2.759,-2.7613,-2.7666,-2.7561,-2.7613,-2.7648,-2.7543,-2.7425,-2.7317,-2.7165,0.0,-2.6254,-2.6224,-2.651,-2.6685,-2.6685,-2.7143,-2.7386,-2.7261,-2.7166,-2.7087,0.0,-2.7296,-2.717,-2.6691,-2.7225,-2.7526,-2.7526,-2.7324,-2.7135,-2.7007,-2.6975,-2.6942,-2.6876,-2.6876,-2.6792,-2.6691,-2.6892,-2.6959,-2.6893,-2.6775,-2.6725,-2.6691,-2.617,-2.599,-2.5954,-2.5567,-2.5339,-2.5169,-1.9449,-2.0212,-2.0959,-2.1306,-2.1781,-2.2225,-2.2515,-2.2377,-2.2405,-2.2816,-2.2659,-2.2659,-2.3003,-2.3045,-2.3095,-2.3241,-2.3289,-2.3313,-2.3313,-2.3265,-2.3265,-2.336,-2.3336,-2.336,-2.3494,-2.3494,-2.3517,-2.3539,-2.3517,-2.3494,-2.3494,-2.3562,-2.3585,-2.3585,-2.3768,-2.3792,-2.3732,-2.3955,-2.3996,-2.3937,-2.3917,-2.3917,-2.3917,-2.3837,-2.3816,-2.3816,-2.3896,-2.3876,-2.3816,-2.3876,-2.3976,-2.4203,-2.4959,-2.5371,-2.5708,-2.6431,-2.6816,-2.6946,-2.67,-2.6644,-2.676,-2.7429,-2.745,-2.7476,-2.8031,-2.8014,-2.7712,-2.6996,-2.7291,-2.7537,-2.6951,-2.7309,-2.749,-2.6876,-2.6742,-2.6457,-2.5662,0.0,-2.6481,-2.6394,-2.7052,-2.7526,-2.7526,-2.7361,-2.7293,-2.7448,-2.7184,-2.712,-2.7404,-2.739,-2.74,-2.7412,-2.7589,-2.7659,-2.7587,-2.7324,-2.7149,-2.707,-2.6975,-2.6842,-2.6742,-2.6742,-2.6742,-2.6691,-2.6892,-2.6959,-2.6893,-2.6808,-2.6842,-2.6909,-2.6435,-2.6347,-2.6434,-2.5848,-2.5626,-2.5551,-2.0004,-2.0583,-2.115,-2.1642,-2.2003,-2.2338,-2.2552,-2.2515,-2.2623,-2.302,-2.2919,-2.2944,-2.3241,-2.3193,-2.3193,-2.3289,-2.3336,-2.336,-2.3383,-2.336,-2.3383,-2.3448,-2.3407,-2.3448,-2.3539,-2.3629,-2.3634,-2.3634,-2.3611,-2.3585,-2.3562,-2.3629,-2.3678,-2.3725,-2.3834,-2.3899,-2.3921,-2.4115,-2.4153,-2.4058,-2.4173,-2.4192,-2.4115,-2.4154,-2.4114,-2.4016,-2.4095,-2.4075,-2.4036,-2.4134,-2.4209,-2.434,-2.4783,-2.4968,-2.5078,-2.5449,-2.6116,-2.6702,-2.6443,-2.6376,-2.6468,-2.6739,-2.7061,-2.7385,-2.7661,-2.7915,-2.7992,-2.7591,-2.7664,-2.7689,-2.7384,-2.7613,-2.7672,-2.7262,-2.7151,0.0,0.0,-2.6836,-2.7093,-2.7004,-2.7508,-2.7836,-2.7701,-2.7539,-2.7243,-2.6827,-2.6595,-2.6347,-2.6117,-2.61,-2.635,-2.6835,-2.7313,-2.7539,-2.7386,-2.7324,-2.723,-2.7103,-2.707,-2.7038,-2.6956,-2.6956,-2.694,-2.6859,-2.699,-2.7007,-2.6893,-2.6892,-2.6892,-2.6808,-2.6435,-2.6295,-2.6241,-2.5807,-2.568,-2.5663,-2.0299,-2.0831,-2.1385,-2.1998,-2.2276,-2.246,-2.2712,-2.2712,-2.2773,-2.2976,-2.2911,-2.2911,-2.3099,-2.3053,-2.3118,-2.3271,-2.3313,-2.3336,-2.3401,-2.3407,-2.3448,-2.3471,-2.3471,-2.3517,-2.3629,-2.3696,-2.3721,-2.3721,-2.3703,-2.3721,-2.3678,-2.3786,-2.3855,-2.3921,-2.3999,-2.404,-2.4099,-2.4284,-2.4284,-2.4211,-2.4426,-2.4426,-2.4357,-2.4429,-2.4358,-2.4228,-2.4247,-2.4247,-2.4247,-2.4358,-2.4394,-2.4412,-2.4482,-2.4482,-2.4465,-2.4412,-2.5264,-2.6185,-2.62,-2.6088,-2.6015,-2.6263,-2.6721,-2.7164,-2.7283,-2.7823,-2.8219,-2.7942,-2.7918,-2.7864,-2.7717,-2.7794,-2.7818,-2.7531,0.0,0.0,0.0,-2.7367,-2.7467,-2.76,-2.7666,-2.7646,-2.7496,-2.721,-2.6742,-2.6028,-2.5833,-2.5519,-2.4964,-2.5005,-2.5421,-2.6236,-2.7078,-2.7417,-2.7276,-2.7355,-2.7341,-2.7198,-2.7181,-2.7213,-2.7213,-2.7213,-2.7135,-2.7055,-2.7135,-2.712,-2.7007,-2.7072,-2.699,-2.6842,-2.6521,-2.6314,-2.6154,-2.5881,-2.5807,-2.5848,-1.9814,-2.0898,-2.1899,-2.2388,-2.2542,-2.2738,-2.3193,-2.3095,-2.2856,-2.2504,-2.2242,-2.2134,-2.2269,-2.2242,-2.2498,-2.3218,-2.336,-2.3383,-2.3383,-2.3471,-2.3471,-2.3407,-2.3517,-2.3652,-2.3783,-2.3804,-2.3804,-2.3804,-2.3792,-2.3855,-2.3976,-2.4096,-2.4211,-2.4283,-2.4318,-2.4372,-2.4372,-2.4442,-2.4478,-2.4478,-2.4495,-2.4495,-2.4478,-2.4357,-2.4321,-2.4303,-2.4247,-2.4229,-2.4284,-2.4376,-2.4394,-2.4412,-2.4482,-2.4465,-2.4412,-2.4394,-2.4395,-2.456,-2.5352,-2.4983,-2.4744,-2.6287,-2.6527,-2.655,-2.7157,-2.7779,-2.7977,-2.7166,-2.7528,-2.7784,-2.7112,-2.7518,-2.7738,-2.6994,0.0,0.0,-2.6861,-2.6861,-2.7126,-2.7869,-2.7275,-2.6806,-2.6778,-2.5876,-2.527,-2.5268,-2.5086,-2.5028,-2.5086,-2.5086,-2.5518,-2.6435,-2.7126,-2.7526,-2.7587,-2.7465,-2.7434,-2.7465,-2.7293,-2.7213,-2.7213,-2.7213,-2.7181,-2.7181,-2.7324,-2.7373,-2.7373,-2.7376,-2.7345,-2.7313,-2.694,-2.6741,-2.6691,-2.6349,-2.626,-2.6225,-1.9486,-2.0515,-2.1495,-2.1859,-2.2436,-2.277,-2.2594,-2.2482,-2.2223,-2.1661,-2.1508,-2.1444,-2.1512,-2.1896,-2.23,-2.2647,-2.3168,-2.3494,-2.3517,-2.3539,-2.3539,-2.3453,-2.3539,-2.3678,-2.3852,-2.3852,-2.3937,-2.4098,-2.4097,-2.4135,-2.4192,-2.4265,-2.4355,-2.4439,-2.4441,-2.451,-2.4575,-2.458,-2.4547,-2.4512,-2.4599,-2.4513,-2.4356,-2.4374,-2.4321,-2.4228,-2.421,-2.421,-2.4266,-2.4411,-2.443,-2.4504,-2.5112,-2.5262,-2.5189,-2.5097,-2.4653,-2.4484,-2.5807,-2.5201,-2.4466,-2.5625,-2.6188,-2.6542,-2.6804,-2.7761,-2.8446,-2.8036,-2.8085,-2.8075,-2.7708,-2.7857,-2.7936,-2.7607,0.0,-2.7599,-2.7553,-2.7581,-2.7688,-2.7979,-2.7776,-2.7404,-2.6825,-2.6425,-2.5807,-2.4769,-2.4584,-2.4321,-2.3816,-2.4153,-2.4497,-2.4809,-2.5571,-2.6479,-2.7569,-2.7557,-2.7526,-2.7557,-2.7539,-2.7522,-2.7522,-2.7522,-2.7461,-2.7386,-2.7434,-2.7386,-2.7293,-2.739,-2.7296,-2.7152,-2.7038,-2.6891,-2.6725,-2.659,-2.6624,-2.6691,-1.9194,-2.0092,-2.0909,-2.1243,-2.1864,-2.2206,-2.1866,-2.1821,-2.1562,-2.0878,-2.0787,-2.0784,-2.0769,-2.1405,-2.1957,-2.2268,-2.3057,-2.3539,-2.3603,-2.3585,-2.3585,-2.3544,-2.3634,-2.3725,-2.3896,-2.3978,-2.4116,-2.4301,-2.4356,-2.4409,-2.4441,-2.4491,-2.454,-2.4588,-2.4594,-2.4629,-2.4695,-2.4647,-2.458,-2.4547,-2.465,-2.4584,-2.4393,-2.4426,-2.4375,-2.4284,-2.4247,-2.4266,-2.4321,-2.4446,-2.4482,-2.4539,-2.5203,-2.5371,-2.53,-2.519,-2.4727,-2.4577,-2.6176,-2.5663,-2.4818,-2.5586,-2.619,-2.6573,-2.6573,-2.7707,-2.8737,-2.8612,-2.8458,-2.83,-2.8209,-2.8209,-2.8164,-2.8126,-2.794,-2.7851,-2.8073,-2.794,-2.778,-2.7708,-2.7566,-2.7121,-2.6215,-2.587,-2.526,-2.4098,-2.396,-2.3656,-2.3038,-2.3606,-2.3942,-2.3942,-2.4705,-2.5692,-2.6912,-2.7116,-2.7238,-2.7297,-2.7338,-2.735,-2.735,-2.7087,-2.6924,-2.6824,-2.6824,-2.6765,-2.6658,-2.6705,-2.6784,-2.6854,-2.6868,-2.6725,-2.6582,-2.6838,-2.6698,-2.6436,-1.89,-1.959,-2.0223,-2.0633,-2.0758,-2.0886,-2.1159,-2.1187,-2.092,-2.0187,-2.0098,-2.0061,-1.9984,-2.0644,-2.1411,-2.2214,-2.3079,-2.3585,-2.3607,-2.3607,-2.3629,-2.37,-2.3771,-2.3837,-2.3896,-2.4172,-2.4303,-2.4303,-2.4497,-2.4647,-2.4707,-2.4764,-2.4794,-2.4794,-2.4802,-2.476,-2.4701,-2.4701,-2.4666,-2.4615,-2.4666,-2.4666,-2.4599,-2.4534,-2.45,-2.4482,-2.4358,-2.4393,-2.45,-2.45,-2.4497,-2.4512,-2.4599,-2.4568,-2.4501,-2.443,-2.4376,-2.4654,-2.626,-2.6151,-2.5745,-2.6434,-2.6612,-2.6591,-2.653,-2.7643,-2.8669,-2.8612,-2.8484,-2.838,-2.838,-2.838,-2.838,-2.8282,-2.7619,-2.7368,-2.8174,-2.7583,-2.71,-2.71,-2.6387,-2.5544,-2.4686,-2.3766,-2.3217,-2.3193,-2.3144,-2.3052,-2.302,-2.3694,-2.4112,-2.42,-2.4917,-2.5302,-2.5384,-2.605,-2.6452,-2.6595,-2.6595,-2.6595,-2.6578,-2.577,-2.5401,-2.5401,-2.5401,-2.5401,-2.5401,-2.532,-2.5764,-2.6481,-2.6342,-2.6295,-2.6382,-2.7122,-2.6402,-2.5299,-1.8234,-1.9117,-1.9874,-2.0023,-2.0628,-2.0927,-2.0489,-2.0419,-2.0132,-1.9289,-1.9182,-1.9182,-1.9163,-2.0323,-2.1218,-2.1509,-2.2797,-2.3674,-2.381,-2.381,-2.3855,-2.3998,-2.3917,-2.3999,-2.4247,-2.4392,-2.4528,-2.4719,-2.4742,-2.4806,-2.4908,-2.4827,-2.4827,-2.487,-2.4817,-2.4791,-2.476,-2.4711,-2.4711,-2.4745,-2.4711,-2.466,-2.461,-2.4578,-2.4528,-2.4513,-2.4564,-2.461,-2.4639,-2.4753,-2.4783,-2.4862,-2.5367,-2.5473,-2.5388,-2.5317,-2.4855,-2.4616,-2.569,-2.5393,-2.5208,-2.7108,-2.7629,-2.7613,-2.7567,-2.7896,-2.8162,-2.7929,-2.7852,-2.7797,-2.7605,-2.7554,-2.7554,-2.7528,-2.6846,-2.6415,-2.6648,-2.6469,-2.6301,-2.6276,-2.6054,-2.5582,-2.4741,-2.4408,-2.4011,-2.346,-2.3336,-2.3265,-2.3144,-2.3348,-2.347,-2.3445,-2.3605,-2.3727,-2.3804,-2.5049,-2.5715,-2.577,-2.577,-2.577,-2.5752,-2.5507,-2.5401,-2.5401,-2.5401,-2.5401,-2.5401,-2.5374,-2.5515,-2.5725,-2.568,-2.5652,-2.5687,-2.5932,-2.5694,-2.5362,-1.8191,-1.8796,-1.9288,-1.933,-1.9818,-2.0057,-1.9611,-1.9558,-1.9397,-1.8878,-1.8788,-1.8931,-1.9271,-2.0416,-2.1294,-2.1678,-2.2983,-2.3831,-2.4056,-2.4057,-2.4115,-2.4248,-2.4211,-2.4248,-2.4409,-2.4528,-2.4657,-2.4827,-2.4817,-2.4846,-2.4917,-2.4842,-2.4813,-2.4813,-2.4821,-2.4791,-2.476,-2.4742,-2.4757,-2.4757,-2.4742,-2.4676,-2.4594,-2.4594,-2.4559,-2.4543,-2.4642,-2.4719,-2.4794,-2.4837,-2.4865,-2.496,-2.5336,-2.544,-2.5391,-2.5325,-2.4905,-2.4741,-2.593,-2.5873,-2.5892,-2.7657,-2.762,-2.7212,-2.7545,-2.7562,-2.7483,-2.7337,-2.7291,-2.7226,-2.7073,-2.7004,-2.6952,-2.6904,-2.6212,-2.5791,-2.6074,-2.5904,-2.5705,-2.5682,-2.5664,-2.5352,-2.4491,-2.4419,-2.4222,-2.3714,-2.3571,-2.3486,-2.3394,-2.3342,-2.3289,-2.3265,-2.3168,-2.3144,-2.3193,-2.4083,-2.469,-2.4963,-2.4963,-2.4963,-2.4945,-2.4647,-2.4489,-2.4489,-2.4489,-2.4489,-2.4489,-2.4489,-2.4682,-2.4963,-2.4963,-2.4963,-2.4998,-2.5296,-2.5015,-2.455,-1.8603,-1.8641,-1.8641,-1.8623,-1.8697,-1.8734,-1.8734,-1.877,-1.8806,-1.8806,-1.8806,-1.9128,-1.9989,-2.0761,-2.1552,-2.2422,-2.344,-2.4095,-2.4303,-2.4321,-2.4393,-2.4512,-2.4594,-2.4561,-2.4445,-2.4629,-2.4723,-2.4723,-2.4764,-2.4813,-2.4827,-2.4813,-2.4764,-2.4723,-2.4772,-2.476,-2.4698,-2.4776,-2.4772,-2.4723,-2.4787,-2.4742,-2.4647,-2.4647,-2.4626,-2.4639,-2.4654,-2.476,-2.4926,-2.4861,-2.4888,-2.4915,-2.4861,-2.4827,-2.4808,-2.4745,-2.4682,-2.4933,-2.6484,-2.6893,-2.7097,-2.7886,-2.686,-2.5875,-2.6805,-2.686,-2.6748,-2.6786,-2.6748,-2.671,-2.6691,-2.6573,-2.645,-2.6326,-2.5643,-2.5342,-2.6027,-2.5604,-2.521,-2.5189,-2.5189,-2.4897,-2.4069,-2.3996,-2.3976,-2.3896,-2.3795,-2.3714,-2.3714,-2.3616,-2.3544,-2.3544,-2.343,-2.336,-2.336,-2.3271,-2.3552,-2.4198,-2.4198,-2.4198,-2.4181,-2.3435,-2.3095,-2.3095,-2.3095,-2.3095,-2.3095,-2.3095,-2.3523,-2.4198,-2.4198,-2.4198,-2.4286,-2.4945,-2.4313,-2.3288,-1.8806,-1.8843,-1.8825,-1.8825,-1.8843,-1.886,-1.886,-1.8861,-1.8878,-1.8878,-1.8824,-1.9128,-1.9989,-2.0761,-2.1572,-2.2501,-2.35,-2.4191,-2.4444,-2.4461,-2.4547,-2.4726,-2.4742,-2.4738,-2.4704,-2.4813,-2.4856,-2.4856,-2.4827,-2.4856,-2.495,-2.4842,-2.4827,-2.4856,-2.4813,-2.4802,-2.4776,-2.4783,-2.4798,-2.4779,-2.4851,-2.4898,-2.4922,-2.4907,-2.4921,-2.494,-2.5038,-2.5099,-2.5138,-2.519,-2.516,-2.5126,-2.5056,-2.4968,-2.4874,-2.4856,-2.4768,-2.4786,-2.5177,-2.5299,-2.5483,-2.6349,-2.5791,-2.5351,-2.6763,-2.6611,-2.6141,-2.6074,-2.5984,-2.593,-2.5876,-2.5762,-2.5663,-2.5705,-2.4924,-2.4405,-2.4629,-2.4519,-2.4408,-2.4368,-2.4368,-2.4275,-2.4014,-2.3937,-2.3917,-2.3896,-2.3876,-2.3876,-2.3917,-2.3915,-2.3894,-2.3894,-2.3813,-2.3771,-2.3771,-2.354,-2.3442,-2.3439,-2.339,-2.3365,-2.3365,-2.319,-2.3095,-2.3095,-2.3095,-2.3095,-2.3095,-2.3095,-2.3207,-2.3365,-2.3365,-2.3365,-2.3383,-2.3558,-2.3375,-2.3154,-1.9019,-1.9036,-1.9035,-1.9034,-1.9016,-1.8999,-1.8983,-1.8984,-1.8932,-1.8896,-1.9201,-1.9739,-2.064,-2.1414,-2.2269,-2.3322,-2.3989,-2.4428,-2.4629,-2.4657,-2.4738,-2.4846,-2.4879,-2.4875,-2.4856,-2.4884,-2.4884,-2.4856,-2.4827,-2.4842,-2.4903,-2.4842,-2.4827,-2.4856,-2.4827,-2.4798,-2.4798,-2.4865,-2.4907,-2.4902,-2.5006,-2.5031,-2.5044,-2.5043,-2.5056,-2.5056,-2.5126,-2.5201,-2.5252,-2.5293,-2.5283,-2.5241,-2.522,-2.5134,-2.5043,-2.4994,-2.4921,-2.4917,-2.5351,-2.5416,-2.5476,-2.5947,-2.5706,-2.5581,-2.6397,-2.5979,-2.5408,-2.5346,-2.5362,-2.523,-2.477,-2.4582,-2.4351,-2.3959,-2.3484,-2.3269,-2.3674,-2.3784,-2.3932,-2.4247,-2.4303,-2.4284,-2.4229,-2.4172,-2.4134,-2.4134,-2.4114,-2.4114,-2.4134,-2.4077,-2.4057,-2.4057,-2.3978,-2.3955,-2.3955,-2.3774,-2.3646,-2.3531,-2.3295,-2.3193,-2.3193,-2.3241,-2.3241,-2.3241,-2.3217,-2.3193,-2.3193,-2.3144,-2.3095,-2.3102,-2.3144,-2.3144,-2.3102,-2.3144,-2.3144,-2.3095,-1.9216,-1.9235,-1.9216,-1.9216,-1.9182,-1.915,-1.912,-1.9087,-1.9035,-1.8948,-1.965,-2.0499,-2.1369,-2.2292,-2.3267,-2.4265,-2.4479,-2.4647,-2.4821,-2.4861,-2.4884,-2.4917,-2.4964,-2.4977,-2.4917,-2.4917,-2.4884,-2.4827,-2.4827,-2.4808,-2.4842,-2.4842,-2.4842,-2.4842,-2.4842,-2.4842,-2.4842,-2.4974,-2.5025,-2.5019,-2.516,-2.5182,-2.5138,-2.5149,-2.5141,-2.5143,-2.5154,-2.5224,-2.5322,-2.5322,-2.5332,-2.5321,-2.5312,-2.5273,-2.5212,-2.5149,-2.5087,-2.5171,-2.5853,-2.5953,-2.5861,-2.5827,-2.5831,-2.5816,-2.58,-2.5288,-2.4808,-2.4842,-2.4804,-2.4598,-2.403,-2.369,-2.3309,-2.2684,-2.2551,-2.2753,-2.338,-2.3542,-2.3836,-2.4437,-2.4512,-2.4513,-2.45,-2.4465,-2.443,-2.4412,-2.4375,-2.4339,-2.4339,-2.4248,-2.4192,-2.4173,-2.4135,-2.4114,-2.4114,-2.4018,-2.3998,-2.3978,-2.362,-2.3412,-2.3389,-2.3435,-2.3476,-2.3412,-2.3389,-2.336,-2.3313,-2.3217,-2.3168,-2.3168,-2.3247,-2.3223,-2.3193,-2.3247,-2.3223,-2.3175,-1.9292,-1.9341,-1.9341,-1.9308,-1.9326,-1.9329,-1.92,-1.923,-1.9246,-1.9168,-1.9908,-2.0763,-2.157,-2.2996,-2.4081,-2.453,-2.4478,-2.4559,-2.4856,-2.4832,-2.4865,-2.4977,-2.4996,-2.4996,-2.4996,-2.4996,-2.4945,-2.4884,-2.4884,-2.4917,-2.4964,-2.4964,-2.4964,-2.4964,-2.4964,-2.4964,-2.4977,-2.5063,-2.5101,-2.5094,-2.5222,-2.5283,-2.5282,-2.5332,-2.5313,-2.5283,-2.5339,-2.5376,-2.5385,-2.5385,-2.5378,-2.5389,-2.5388,-2.5341,-2.5282,-2.5271,-2.5228,-2.5203,-2.5317,-2.5325,-2.5271,-2.5165,-2.5099,-2.5031,-2.4978,-2.4917,-2.4898,-2.4964,-2.439,-2.4068,-2.4726,-2.4106,-2.3714,-2.4422,-2.4381,-2.4342,-2.4538,-2.4495,-2.4468,-2.458,-2.4547,-2.4513,-2.45,-2.4479,-2.4479,-2.4482,-2.4479,-2.4478,-2.4478,-2.4513,-2.4513,-2.4461,-2.4478,-2.4513,-2.4513,-2.4393,-2.4339,-2.4339,-2.4097,-2.3899,-2.3732,-2.3813,-2.3732,-2.3584,-2.3628,-2.3576,-2.3471,-2.3453,-2.3448,-2.3453,-2.3513,-2.3508,-2.3453,-2.3513,-2.35,-2.3432,-1.9532,-1.9564,-1.9564,-1.9532,-1.9522,-1.9497,-1.942,-1.9416,-1.9564,-1.9979,-2.0765,-2.1592,-2.2388,-2.3617,-2.4459,-2.4645,-2.4642,-2.4716,-2.494,-2.4903,-2.4922,-2.505,-2.5018,-2.5018,-2.5063,-2.5023,-2.4991,-2.5018,-2.4972,-2.4972,-2.4999,-2.4999,-2.4999,-2.4985,-2.4991,-2.5018,-2.5051,-2.513,-2.5209,-2.5273,-2.5369,-2.5412,-2.5401,-2.5448,-2.5437,-2.5414,-2.5437,-2.5456,-2.5456,-2.5456,-2.5432,-2.5406,-2.5445,-2.5448,-2.5416,-2.5415,-2.536,-2.5303,-2.5313,-2.5253,-2.5182,-2.5091,-2.5,-2.4949,-2.4921,-2.4945,-2.4945,-2.495,-2.4661,-2.439,-2.4276,-2.3915,-2.3604,-2.3523,-2.3431,-2.3559,-2.4063,-2.4076,-2.42,-2.4604,-2.4596,-2.4547,-2.4549,-2.4566,-2.4547,-2.4549,-2.4566,-2.4564,-2.4564,-2.458,-2.4564,-2.4495,-2.4564,-2.458,-2.4528,-2.4513,-2.4497,-2.4497,-2.4409,-2.4229,-2.3979,-2.4057,-2.4019,-2.3921,-2.3901,-2.384,-2.3774,-2.3707,-2.3682,-2.3664,-2.3732,-2.375,-2.3725,-2.371,-2.3692,-2.3649]},{"header":{"parameterUnit":"m.s-1","parameterCategory":1,"la1":30.6,"la2":28.766,"lo1":-90.7593,"lo2":-88.6598,"dy":0.0162,"dx":0.0183,"nx":116,"ny":114,"refTime":"2024-06-10T00:00:00:Z","depth":0,"parameterNumber":3,"parameterNumberName":"V-component_of_WINDS"},"data":[0.0,0.0,0.0,0.0,0.0,0.0,0.0,0.0,0.0,0.0,0.0,0.0,0.0,0.0,0.0,0.0,0.0,0.0,0.0,0.0,0.0,0.0,0.0,0.0,0.0,0.0,0.0,0.0,0.0,0.0,0.0,0.0,0.0,0.0,0.0,0.0,0.0,0.0,0.0,0.0,0.0,0.0,0.0,0.0,0.0,0.0,0.0,0.0,0.0,0.0,0.0,0.0,0.0,0.0,0.0,0.0,0.0,0.0,0.0,0.0,0.0,0.0,0.0,0.0,0.0,0.0,0.0,0.0,0.0,0.0,0.0,0.0,0.0,0.0,0.0,0.0,0.0,0.0,0.0,0.0,0.0,0.0,0.0,0.0,0.0,0.0,0.0,0.0,0.0,0.0,0.0,0.0,0.0,0.0,0.0,0.0,0.0,0.0,0.0,0.0,0.0,0.0,0.0,0.0,0.0,0.0,0.0,0.0,0.0,0.0,0.0,0.0,0.0,0.0,0.0,0.0,0.0,0.0,0.0,0.0,0.0,0.0,0.0,0.0,0.0,0.0,0.0,0.0,0.0,0.0,0.0,0.0,0.0,0.0,0.0,0.0,0.0,0.0,0.0,0.0,0.0,0.0,0.0,0.0,0.0,0.0,0.0,0.0,0.0,0.0,0.0,0.0,0.0,0.0,0.0,0.0,0.0,0.0,0.0,0.0,0.0,0.0,0.0,0.0,0.0,0.0,0.0,0.0,0.0,0.0,0.0,0.0,0.0,0.0,0.0,0.0,0.0,0.0,0.0,0.0,0.0,0.0,0.0,0.0,0.0,0.0,0.0,0.0,0.0,0.0,0.0,0.0,0.0,0.0,0.0,0.0,0.0,0.0,0.0,0.0,0.0,0.0,0.0,0.0,0.0,0.0,0.0,0.0,0.0,0.0,0.0,0.0,0.0,0.0,0.0,0.0,0.0,0.0,0.0,0.0,0.0,0.0,0.0,0.0,0.0,0.0,0.0,0.0,0.0,0.0,0.0,0.0,0.0,0.0,0.0,0.0,0.0,0.0,0.0,0.0,0.0,0.0,0.0,0.0,0.0,0.0,0.0,0.0,0.0,0.0,0.0,0.0,0.0,0.0,0.0,0.0,0.0,0.0,0.0,0.0,0.0,0.0,0.0,0.0,0.0,0.0,0.0,0.0,0.0,0.0,0.0,0.0,0.0,0.0,0.0,0.0,0.0,0.0,0.0,0.0,0.0,0.0,0.0,0.0,0.0,0.0,0.0,0.0,0.0,0.0,0.0,0.0,0.0,0.0,0.0,0.0,0.0,0.0,0.0,0.0,0.0,0.0,0.0,0.0,0.0,0.0,0.0,0.0,0.0,0.0,0.0,0.0,0.0,0.0,0.0,0.0,0.0,0.0,0.0,0.0,0.0,0.0,0.0,0.0,0.0,0.0,0.0,0.0,0.0,0.0,0.0,0.0,0.0,0.0,0.0,0.0,0.0,0.0,0.0,0.0,0.0,0.0,0.0,0.0,0.0,0.0,0.0,0.0,0.0,0.0,0.0,0.0,0.0,0.0,0.0,0.0,0.0,0.0,0.0,0.0,0.0,0.0,0.0,0.0,0.0,0.0,0.0,0.0,0.0,0.0,0.0,0.0,0.0,0.0,0.0,0.0,0.0,0.0,0.0,0.0,0.0,0.0,0.0,0.0,0.0,0.0,0.0,0.0,0.0,0.0,0.0,0.0,0.0,0.0,0.0,0.0,0.0,0.0,0.0,0.0,0.0,0.0,0.0,0.0,0.0,0.0,0.0,0.0,0.0,0.0,0.0,0.0,0.0,0.0,0.0,0.0,0.0,0.0,0.0,0.0,0.0,0.0,0.0,0.0,0.0,0.0,0.0,0.0,0.0,0.0,0.0,0.0,0.0,0.0,0.0,0.0,0.0,0.0,0.0,0.0,0.0,0.0,0.0,0.0,0.0,0.0,0.0,0.0,0.0,0.0,0.0,0.0,0.0,0.0,0.0,0.0,0.0,0.0,0.0,0.0,0.0,0.0,0.0,0.0,0.0,0.0,0.0,0.0,0.0,0.0,0.0,0.0,0.0,0.0,0.0,0.0,0.0,0.0,0.0,0.0,0.0,0.0,0.0,0.0,0.0,0.0,0.0,0.0,0.0,0.0,0.0,0.0,0.0,0.0,0.0,0.0,0.0,0.0,0.0,0.0,0.0,0.0,0.0,0.0,0.0,0.0,0.0,0.0,0.0,0.0,0.0,0.0,0.0,0.0,0.0,0.0,0.0,0.0,0.0,0.0,0.0,0.0,0.0,0.0,0.0,0.0,0.0,0.0,0.0,0.0,0.0,0.0,0.0,0.0,0.0,0.0,0.0,0.0,0.0,0.0,0.0,0.0,0.0,0.0,0.0,0.0,0.0,0.0,0.0,0.0,0.0,0.0,0.0,0.0,0.0,0.0,0.0,0.0,0.0,0.0,0.0,0.0,0.0,0.0,0.0,0.0,0.0,0.0,0.0,0.0,0.0,0.0,0.0,0.0,0.0,0.0,0.0,0.0,0.0,0.0,0.0,0.0,0.0,0.0,0.0,0.0,0.0,0.0,0.0,0.0,0.0,0.0,0.0,0.0,0.0,0.0,0.0,0.0,0.0,0.0,0.0,0.0,0.0,0.0,0.0,0.0,0.0,0.0,0.0,0.0,0.0,0.0,0.0,0.0,0.0,0.0,0.0,0.0,0.0,0.0,0.0,0.0,0.0,0.0,0.0,0.0,0.0,0.0,0.0,0.0,0.0,0.0,0.0,0.0,0.0,0.0,0.0,0.0,0.0,0.0,0.0,0.0,0.0,0.0,0.0,0.0,0.0,0.0,0.0,0.0,0.0,0.0,0.0,0.0,0.0,0.0,0.0,0.0,0.0,0.0,0.0,0.0,0.0,0.0,0.0,0.0,0.0,0.0,0.0,0.0,0.0,0.0,0.0,0.0,0.0,0.0,0.0,0.0,0.0,0.0,0.0,0.0,0.0,0.0,0.0,0.0,0.0,0.0,0.0,0.0,0.0,0.0,0.0,0.0,0.0,0.0,0.0,0.0,0.0,0.0,0.0,0.0,0.0,0.0,0.0,0.0,0.0,0.0,0.0,0.0,0.0,0.0,0.0,0.0,0.0,0.0,0.0,0.0,0.0,0.0,0.0,0.0,0.0,0.0,0.0,0.0,0.0,0.0,0.0,0.0,0.0,0.0,0.0,0.0,0.0,0.0,0.0,0.0,0.0,0.0,0.0,0.0,0.0,0.0,0.0,0.0,0.0,0.0,0.0,0.0,0.0,0.0,0.0,0.0,0.0,0.0,0.0,0.0,0.0,0.0,0.0,0.0,0.0,0.0,0.0,0.0,0.0,0.0,0.0,0.0,0.0,0.0,0.0,0.0,0.0,0.0,0.0,0.0,0.0,0.0,0.0,0.0,0.0,0.0,0.0,0.0,0.0,0.0,0.0,0.0,0.0,0.0,0.0,0.0,0.0,0.0,0.0,0.0,0.0,0.0,0.0,0.0,0.0,0.0,0.0,0.0,0.0,0.0,0.0,0.0,0.0,0.0,0.0,0.0,0.0,0.0,0.0,0.0,0.0,0.0,0.0,0.0,0.0,0.0,0.0,0.0,0.0,0.0,0.0,0.0,0.0,0.0,0.0,0.0,0.0,0.0,0.0,0.0,0.0,0.0,0.0,0.0,0.0,0.0,0.0,0.0,0.0,0.0,0.0,0.0,0.0,0.0,0.0,0.0,0.0,0.0,0.0,0.0,0.0,0.0,0.0,0.0,0.0,0.0,0.0,0.0,0.0,0.0,0.0,0.0,0.0,0.0,0.0,0.0,0.0,0.0,0.0,0.0,0.0,0.0,0.0,0.0,0.0,0.0,0.0,0.0,0.0,0.0,0.0,0.0,0.0,0.0,0.0,0.0,0.0,0.0,0.0,0.0,0.0,0.0,0.0,0.0,0.0,0.0,0.0,0.0,0.0,0.0,0.0,0.0,0.0,0.0,0.0,0.0,0.0,0.0,0.0,0.0,0.0,0.0,0.0,0.0,0.0,0.0,0.0,0.0,0.0,0.0,0.0,0.0,0.0,0.0,0.0,0.0,0.0,0.0,0.0,0.0,0.0,0.0,0.0,0.0,0.0,0.0,0.0,0.0,0.0,0.0,0.0,0.0,0.0,0.0,0.0,0.0,0.0,0.0,0.0,0.0,0.0,0.0,0.0,0.0,0.0,0.0,0.0,0.0,0.0,0.0,0.0,0.0,0.0,0.0,0.0,0.0,0.0,0.0,0.0,0.0,0.0,0.0,0.0,0.0,0.0,0.0,0.0,0.0,0.0,0.0,0.0,0.0,0.0,0.0,0.0,0.0,0.0,0.0,0.0,0.0,0.0,0.0,0.0,0.0,0.0,0.0,0.0,0.0,0.0,0.0,0.0,0.0,0.0,0.0,0.0,0.0,0.0,0.0,0.0,0.0,0.0,0.0,0.0,0.0,0.0,0.0,0.0,0.0,0.0,0.0,0.0,0.0,0.0,0.0,0.0,0.0,0.0,0.0,0.0,0.0,0.0,0.0,0.0,0.0,0.0,0.0,0.0,0.0,0.0,0.0,0.0,0.0,0.0,0.0,0.0,0.0,0.0,0.0,0.0,0.0,0.0,0.0,0.0,0.0,0.0,0.0,0.0,0.0,0.0,0.0,0.0,0.0,0.0,0.0,0.0,0.0,0.0,0.0,0.0,0.0,0.0,0.0,0.0,0.0,0.0,0.0,0.0,0.0,0.0,0.0,0.0,0.0,0.0,0.0,0.0,0.0,0.0,0.0,0.0,0.0,0.0,0.0,0.0,0.0,0.0,0.0,0.0,0.0,0.0,0.0,0.0,0.0,0.0,0.0,0.0,0.0,0.0,0.0,0.0,0.0,0.0,0.0,0.0,0.0,0.0,0.0,0.0,0.0,0.0,0.0,0.0,0.0,0.0,0.0,0.0,0.0,0.0,0.0,0.0,0.0,0.0,0.0,0.0,0.0,0.0,0.0,0.0,0.0,0.0,0.0,0.0,0.0,0.0,0.0,0.0,0.0,0.0,0.0,0.0,0.0,0.0,0.0,0.0,0.0,0.0,0.0,0.0,0.0,0.0,0.0,0.0,0.0,0.0,0.0,0.0,0.0,0.0,0.0,0.0,0.0,0.0,0.0,0.0,0.0,0.0,0.0,0.0,0.0,0.0,0.0,0.0,0.0,0.0,0.0,0.0,0.0,0.0,0.0,0.0,0.0,0.0,0.0,0.0,0.0,0.0,0.0,0.0,0.0,0.0,0.0,0.0,0.0,0.0,0.0,0.0,0.0,0.0,0.0,0.0,0.0,0.0,0.0,0.0,0.0,0.0,0.0,0.0,0.0,0.0,0.0,0.0,0.0,0.0,0.0,0.0,0.0,0.0,0.0,0.0,0.0,0.0,0.0,0.0,0.0,0.0,0.0,0.0,0.0,0.0,0.0,0.0,0.0,0.0,0.0,0.0,0.0,0.0,0.0,0.0,0.0,0.0,0.0,0.0,0.0,0.0,0.0,0.0,0.0,0.0,0.0,0.0,0.0,0.0,0.0,0.0,0.0,0.0,0.0,0.0,0.0,0.0,0.0,0.0,0.0,0.0,0.0,0.0,0.0,0.0,0.0,0.0,0.0,0.0,0.0,0.0,0.0,0.0,0.0,0.0,0.0,0.0,0.0,0.0,0.0,0.0,0.0,0.0,0.0,0.0,0.0,0.0,0.0,0.0,0.0,0.0,0.0,0.0,0.0,0.0,0.0,0.0,0.0,0.0,0.0,0.0,0.0,0.0,0.0,0.0,0.0,0.0,0.0,0.0,0.0,0.0,0.0,0.0,0.0,0.0,0.0,0.0,0.0,0.0,0.0,0.0,0.0,0.0,0.0,0.0,0.0,0.0,0.0,0.0,0.0,0.0,0.0,0.0,0.0,0.0,0.0,0.0,0.0,0.0,0.0,0.0,0.0,0.0,0.0,0.0,0.0,0.0,0.0,0.0,0.0,0.0,0.0,0.0,0.0,0.0,0.0,0.0,0.0,-1.6768,0.0,0.0,0.0,0.0,0.0,0.0,0.0,0.0,0.0,0.0,0.0,0.0,0.0,0.0,0.0,0.0,0.0,0.0,0.0,0.0,0.0,0.0,0.0,0.0,-0.3106,-0.3395,-0.3543,-0.4093,-0.4575,-0.4859,0.0,0.0,0.0,0.0,0.0,-0.6137,-0.6579,-0.6922,-0.7181,-0.7903,-1.0685,-1.5393,-1.5253,-1.5308,-1.5535,0.0,0.0,0.0,0.0,0.0,0.0,0.0,0.0,0.0,0.0,0.0,0.0,0.0,0.0,0.0,0.0,0.0,0.0,0.0,0.0,0.0,0.0,0.0,0.0,0.0,0.0,0.0,0.0,0.0,0.0,0.0,0.0,0.0,0.0,0.0,0.0,0.0,0.0,0.0,0.0,0.0,0.0,0.0,0.0,0.0,0.0,0.0,0.0,0.0,0.0,0.0,0.0,0.0,0.0,0.0,0.0,0.0,0.0,0.0,0.0,0.0,0.0,0.0,0.0,0.0,0.0,0.0,0.0,0.0,0.0,0.0,-1.8655,0.0,0.0,0.0,0.0,0.0,0.0,0.0,0.0,0.0,0.0,0.0,0.0,0.0,0.0,0.0,0.0,0.0,0.0,0.0,0.0,0.0,-0.3136,-0.3039,-0.3437,-0.3712,-0.37,-0.4487,-0.5148,-0.5544,-0.5846,0.0,0.0,0.0,-0.6191,-0.6504,-0.7062,-0.7418,-0.7577,-0.9872,-1.4799,-2.2131,-2.221,-2.0956,-1.862,-1.8352,0.0,0.0,0.0,0.0,0.0,0.0,0.0,0.0,0.0,0.0,0.0,0.0,0.0,0.0,0.0,0.0,0.0,0.0,0.0,0.0,0.0,0.0,0.0,0.0,0.0,0.0,0.0,0.0,0.0,0.0,0.0,0.0,0.0,0.0,0.0,0.0,0.0,0.0,0.0,0.0,0.0,0.0,0.0,0.0,0.0,0.0,0.0,0.0,0.0,0.0,0.0,0.0,0.0,0.0,0.0,0.0,0.0,0.0,0.0,0.0,0.0,0.0,0.0,-2.3088,-2.3513,-2.4098,-2.4553,-2.5155,-2.5817,-2.3119,-2.1598,-2.0998,-2.0182,0.0,0.0,0.0,0.0,0.0,0.0,0.0,0.0,0.0,0.0,0.0,0.0,0.0,0.0,0.0,0.0,0.0,0.0,0.0,-0.3072,-0.3157,-0.3487,-0.3689,-0.369,-0.5613,-0.7126,-0.7741,-0.7034,0.0,0.0,-0.6473,-0.6523,-0.6927,-0.7875,-0.8229,-0.784,-1.6334,-2.0824,-2.1423,-2.1856,-2.1451,-2.037,-2.0629,-2.0394,-1.9774,0.0,0.0,0.0,0.0,0.0,0.0,0.0,0.0,0.0,0.0,0.0,0.0,0.0,0.0,0.0,0.0,0.0,0.0,0.0,0.0,0.0,0.0,0.0,0.0,0.0,0.0,0.0,0.0,0.0,0.0,0.0,0.0,0.0,0.0,0.0,0.0,0.0,0.0,0.0,0.0,0.0,-1.8466,-1.8578,0.0,0.0,0.0,0.0,0.0,0.0,0.0,0.0,0.0,0.0,0.0,0.0,0.0,-2.43,-2.4539,-2.6129,-2.6566,-2.5845,-2.615,-2.6455,-2.6794,-2.6836,-2.7051,-2.7322,-2.6739,0.0,-2.4467,-2.3559,0.0,0.0,0.0,0.0,0.0,0.0,0.0,0.0,0.0,0.0,0.0,0.0,0.0,0.0,0.0,0.0,0.0,0.0,0.0,0.0,0.0,-0.4164,-0.4907,-0.6327,-0.7969,-0.9131,-0.9574,-0.9058,-0.8453,-0.7888,-0.7396,-0.7351,-0.7824,-0.8026,-0.936,-1.1832,-1.8489,-2.1703,-2.1636,-2.1917,-2.1919,-2.1712,-2.1876,-2.1409,-2.0517,-1.9458,0.0,0.0,0.0,0.0,0.0,0.0,0.0,0.0,0.0,0.0,0.0,0.0,0.0,0.0,0.0,0.0,0.0,0.0,0.0,0.0,0.0,0.0,0.0,0.0,0.0,0.0,0.0,0.0,0.0,0.0,0.0,0.0,0.0,0.0,0.0,0.0,0.0,0.0,0.0,-1.8217,-1.8473,-1.8601,-1.787,-1.7185,0.0,0.0,0.0,0.0,0.0,0.0,0.0,0.0,0.0,-2.3861,-2.4979,-2.5844,-2.6504,-2.7791,-2.8255,-2.7889,-2.8523,-2.9146,-2.9635,-2.9968,-2.9978,-2.9658,-2.9277,-2.8494,-2.745,-2.5917,-2.4766,-2.3916,0.0,0.0,0.0,0.0,-2.1378,-2.164,0.0,0.0,0.0,0.0,0.0,0.0,0.0,0.0,0.0,0.0,0.0,0.0,-0.4194,-0.5426,-0.7402,-1.0397,-1.1668,-1.2439,0.0,0.0,-1.0199,-0.9093,-0.8312,-0.8068,-0.8338,-0.9067,-1.1427,-1.5449,-1.9404,-2.148,-2.1703,-2.1922,-2.2102,-2.2304,-2.2385,-2.203,-2.1288,-2.0551,-1.9735,0.0,0.0,0.0,0.0,0.0,0.0,0.0,0.0,0.0,0.0,0.0,0.0,0.0,0.0,0.0,0.0,0.0,0.0,0.0,0.0,0.0,0.0,0.0,0.0,0.0,0.0,0.0,0.0,0.0,0.0,0.0,0.0,0.0,0.0,0.0,0.0,0.0,0.0,-1.8416,-1.8383,-1.8518,-1.8062,-1.7478,0.0,0.0,0.0,0.0,0.0,0.0,-2.0974,-2.2014,-2.3718,-2.62,-2.6878,-2.762,-2.8587,-2.9463,-2.9826,-2.969,-3.0495,-3.1149,-3.1662,-3.2166,-3.2036,-3.1358,-3.1084,-3.0318,-2.9237,-2.7534,-2.643,-2.5774,-2.5359,-2.5113,-2.4921,-2.4366,-2.422,-2.4396,0.0,0.0,0.0,0.0,0.0,0.0,0.0,0.0,0.0,0.0,0.0,-0.4276,-0.361,-0.7431,-1.1688,-1.5837,-1.7187,-1.7889,0.0,0.0,-1.1264,-1.0249,-0.9158,-0.835,-0.794,-1.1895,-1.4938,-1.6888,-1.9988,-2.1399,-2.1244,-2.1554,-2.1738,-2.1738,-2.2068,-2.2538,-2.3005,-2.2095,-2.1351,-2.0678,0.0,0.0,0.0,0.0,0.0,0.0,0.0,0.0,0.0,0.0,0.0,0.0,0.0,0.0,0.0,0.0,0.0,0.0,0.0,0.0,0.0,0.0,0.0,0.0,0.0,0.0,0.0,0.0,0.0,0.0,0.0,0.0,0.0,0.0,0.0,0.0,0.0,0.0,0.0,-1.9145,-1.9131,0.0,0.0,0.0,0.0,-1.9947,-2.086,-2.2027,-2.3279,-2.4216,-2.5893,-2.8373,-2.9423,-3.0465,-3.1374,-3.203,-3.2033,-3.147,-3.1915,-3.2196,-3.2321,-3.2384,-3.2109,-3.1626,-3.2166,-3.1199,-2.9246,-2.8312,-2.7648,-2.7189,-2.7079,-2.6781,-2.6417,-2.6651,-2.6623,-2.6536,0.0,0.0,0.0,0.0,0.0,0.0895,0.0512,-0.0047,-0.0731,-0.1598,-0.2601,-0.378,0.0,-1.0735,-1.505,-1.6773,-1.7439,-1.7843,-1.8025,0.0,-1.419,-1.3235,-1.2143,-1.1669,-1.189,-1.4692,-1.7219,-1.9325,-2.0327,-2.1023,-2.154,-2.1708,-2.1811,-2.1899,-2.1969,-2.2181,-2.2468,-2.2177,-2.1905,-2.1551,-1.9716,-1.8202,0.0,0.0,0.0,0.0,0.0,0.0,0.0,0.0,0.0,0.0,0.0,0.0,0.0,0.0,0.0,0.0,0.0,0.0,0.0,0.0,0.0,0.0,0.0,0.0,0.0,0.0,0.0,0.0,0.0,0.0,0.0,0.0,0.0,0.0,0.0,0.0,0.0,-1.9714,-1.9517,0.0,-1.9862,-2.0553,-2.1157,-2.1435,-2.2237,-2.3511,-2.5445,-2.6282,-2.7792,-3.0225,-3.0895,-3.1531,-3.2164,-3.2777,-3.2929,-3.2643,-3.3178,-3.3551,-3.3743,-3.3743,-3.3444,-3.2892,-3.3093,-3.2318,-3.0826,-3.0448,-2.9351,-2.7976,-2.7917,-2.8059,-2.8273,-2.7968,-2.8295,-2.8888,0.0,0.0,0.0,0.0,0.1385,0.123,0.0892,0.043,-0.0178,-0.108,-0.1883,-0.4487,-1.0077,-1.4538,-1.7182,-1.7233,-1.7468,-1.7664,-1.7791,0.0,-1.6151,-1.5377,-1.5167,-1.5536,-1.6531,-1.7815,-1.9231,-2.0682,-2.0571,-2.0893,-2.1573,-2.1587,-2.1708,-2.1899,-2.2089,-2.2278,-2.2433,-2.2565,-2.2468,-2.2111,-2.0805,-1.9614,-1.8492,0.0,0.0,0.0,0.0,0.0,0.0,0.0,0.0,0.0,0.0,0.0,0.0,0.0,0.0,0.0,0.0,0.0,0.0,0.0,0.0,0.0,0.0,0.0,0.0,0.0,0.0,0.0,0.0,0.0,0.0,0.0,0.0,0.0,0.0,0.0,-2.0238,-2.0079,-2.0179,-2.0395,-2.0759,-2.1783,-2.2662,-2.3299,-2.4,-2.5146,-2.6883,-2.7703,-2.9031,-3.099,-3.1612,-3.2303,-3.2961,-3.3387,-3.3535,-3.3437,-3.3774,-3.405,-3.425,-3.4349,-3.4055,-3.3479,-3.3661,-3.303,-3.1774,-3.1577,-3.0511,-2.9029,-2.8695,-2.8804,-2.9028,-2.8442,-2.8724,-2.9323,0.0,0.0,0.0,0.185,0.1585,0.1343,0.1139,0.0718,0.023,-0.0348,-0.1381,-0.6478,-1.8044,-1.8637,-1.8009,-1.758,-1.772,-1.7832,-1.7822,-1.7373,-1.6921,-1.6474,-1.7969,-1.956,-2.1199,-2.1135,-2.0989,-2.0789,-2.0793,-2.099,-2.1325,-2.1263,-2.142,-2.179,-2.2452,-2.2891,-2.3137,-2.3334,-2.3079,-2.2468,-2.2034,-2.1387,-2.0517,0.0,0.0,0.0,0.0,0.0,0.0,0.0,0.0,0.0,0.0,0.0,0.0,0.0,0.0,0.0,0.0,0.0,0.0,0.0,0.0,0.0,0.0,0.0,0.0,0.0,0.0,0.0,0.0,0.0,0.0,0.0,0.0,0.0,-2.1124,-2.1341,-2.1237,-2.0309,-2.1095,-2.182,-2.2043,-2.3568,-2.4827,-2.5574,-2.6178,-2.683,-2.7544,-2.844,-2.9504,-3.0724,-3.1763,-3.2841,-3.3899,-3.3899,-3.3899,-3.3899,-3.3745,-3.3694,-3.371,-3.3949,-3.3761,-3.3242,-3.3843,-3.3258,-3.1918,-3.154,-3.1028,-3.0247,-2.9439,-2.8961,-2.8665,-2.8167,-2.7989,-2.8054,0.0,0.0,0.2315,0.2052,0.1832,0.1607,0.1363,0.1079,0.0467,-0.0736,-0.1384,-0.6235,-1.8017,-1.8642,-1.8218,-1.8225,-1.8416,-1.8408,-1.8168,0.0,-1.7589,-1.7697,-1.8589,-1.9422,-2.013,-2.0782,-2.0942,-2.0592,-2.0844,-2.1119,-2.1448,-2.2174,-2.2609,-2.2812,-2.3543,-2.3829,-2.3749,-2.3924,-2.3594,-2.2982,-2.2598,-2.2065,-2.1393,0.0,0.0,0.0,0.0,0.0,0.0,0.0,0.0,0.0,0.0,0.0,0.0,0.0,0.0,0.0,0.0,0.0,0.0,0.0,0.0,0.0,0.0,0.0,0.0,0.0,0.0,0.0,0.0,0.0,0.0,0.0,-2.4315,-2.4244,-2.3016,-2.31,-2.2995,-2.2346,-2.2636,-2.311,-2.3599,-2.4464,-2.5481,-2.6557,-2.6986,-2.7661,-2.8753,-2.9675,-3.0684,-3.1668,-3.264,-3.3314,-3.3607,-3.371,-3.3745,-3.3745,-3.3503,-3.3503,-3.371,-3.3555,-3.3495,-3.3422,-3.3614,-3.3196,-3.2416,-3.2284,-3.1903,-3.1273,-2.9946,-2.9584,-2.9733,-2.9535,-2.995,-3.0551,0.0,0.2473,0.2429,0.2214,0.1964,0.174,0.1591,0.1303,0.0526,-0.1089,-0.281,-0.7743,-1.7978,-1.8826,-1.8625,-1.8502,-1.8682,-1.872,-1.8483,0.0,-1.8836,-1.947,-2.0055,-2.0567,-2.0993,-2.1462,-2.1428,-2.0926,-2.1103,-2.1354,-2.1631,-2.2167,-2.2762,-2.3351,-2.4,-2.4488,-2.482,-2.4725,-2.463,-2.447,-2.3509,-2.2712,-2.2063,-2.1735,-2.1164,-2.0433,-1.9846,-1.963,-1.9504,-1.8767,0.0,0.0,0.0,0.0,0.0,0.0,0.0,0.0,0.0,0.0,0.0,0.0,0.0,0.0,0.0,0.0,0.0,0.0,0.0,0.0,0.0,0.0,0.0,0.0,-2.5822,-2.5956,-2.5236,-2.4809,-2.4263,-2.3466,-2.3547,-2.3996,-2.4867,-2.524,-2.6073,-2.7536,-2.7773,-2.82,-2.8984,-2.9813,-3.052,-3.1202,-3.2185,-3.2834,-3.3102,-3.3346,-3.3503,-3.3607,-3.3398,-3.3309,-3.3346,-3.3309,-3.3504,0.0,-3.3826,-3.365,-3.3295,-3.3201,-3.2659,0.0,0.0,0.0,0.0,0.0,-3.0479,-3.1313,0.0,0.2451,0.2456,0.2351,0.203,0.1791,0.175,0.1359,0.0381,-0.1489,0.0,-1.0993,-1.8051,-1.9063,-1.9004,-1.851,-1.8661,-1.8825,0.0,0.0,-2.0315,-2.1461,-2.1888,-2.2331,-2.2856,-2.2677,-2.2252,-2.1568,-2.1598,-2.1705,-2.184,-2.1867,-2.2441,-2.3551,-2.4042,-2.491,-2.5983,-2.5622,-2.5794,-2.6249,-2.4609,-2.3453,-2.2657,-2.222,-2.1892,-2.1583,-2.1014,-2.086,-2.086,-2.0796,0.0,0.0,0.0,0.0,0.0,0.0,0.0,0.0,0.0,0.0,0.0,0.0,0.0,0.0,0.0,0.0,0.0,0.0,0.0,0.0,0.0,0.0,0.0,0.0,-2.7048,-2.7454,-2.7519,-2.6505,-2.5293,-2.4162,-2.4037,-2.4541,-2.5798,-2.5837,-2.6509,-2.8376,-2.8387,-2.8381,-2.856,0.0,0.0,0.0,0.0,-3.1879,-3.2547,-3.292,-3.3203,-3.345,-3.3309,-3.315,-3.2897,-3.3228,-3.3682,-3.425,-3.4383,-3.4415,-3.436,-3.4062,-3.3308,-3.2185,-3.1313,-3.0794,-3.0425,-2.9928,-3.0298,-3.1034,0.0,0.2412,0.2492,0.247,0.21,0.1734,0.1514,0.1087,-0.0,-0.2197,-1.0535,-1.6969,-1.8821,-1.8806,-1.8551,-1.8272,-1.8548,-1.9093,0.0,0.0,-2.0655,-2.273,-2.2753,-2.2876,-2.3189,-2.3124,-2.2681,-2.1915,-2.2265,-2.2337,-2.2124,-2.2994,-2.3511,-2.3766,-2.4464,-2.5266,-2.6061,-2.5797,-2.5922,-2.6194,-2.5756,-2.4925,-2.3885,-2.3263,-2.2867,-2.265,-2.2788,-2.2711,-2.2478,-2.2048,-2.1892,-2.1816,-2.1406,-2.1267,0.0,0.0,0.0,0.0,0.0,0.0,0.0,0.0,0.0,0.0,0.0,0.0,0.0,0.0,0.0,0.0,0.0,0.0,0.0,-2.7958,-2.8843,-2.9279,-2.9024,-2.8383,-2.7214,-2.5405,-2.5017,-2.5271,-2.6052,-2.5691,-2.6154,-2.8051,-2.8414,-2.8593,-2.8587,-2.9785,-3.0377,-3.0251,-3.1422,-3.2135,-3.2302,-3.2718,-3.3005,-3.315,0.0,0.0,-3.3074,-3.3552,-3.3865,-3.4022,-3.4738,-3.4917,-3.4757,-3.4376,-3.3693,-3.2866,-3.2164,-3.184,-3.1656,-3.1688,-3.1774,-3.1977,0.1978,0.2302,0.2496,0.2496,0.1994,0.1562,0.142,0.1259,0.0369,-0.1854,-0.7846,-1.1967,-1.2165,-1.3992,-1.4962,-1.4405,-1.5936,0.0,0.0,-2.0301,-2.1435,-2.3512,-2.3852,-2.3991,-2.4001,-2.393,-2.3555,-2.2859,-2.3106,-2.301,-2.2643,-2.3189,-2.3641,-2.4086,-2.4443,-2.5289,-2.6417,-2.6194,-2.645,-2.6899,-2.6325,-2.5825,-2.5339,-2.4662,-2.4032,-2.3624,-2.4264,-2.3869,-2.3077,-2.3271,-2.3236,-2.3022,-2.2941,-2.2799,-2.258,0.0,0.0,0.0,0.0,0.0,0.0,0.0,0.0,0.0,0.0,0.0,0.0,0.0,0.0,-2.5005,-2.5978,0.0,-2.8171,-2.9185,-3.0119,-3.0448,-2.9774,-2.9529,-2.864,-2.6603,-2.5741,-2.5631,-2.6375,-2.5948,-2.6206,-2.767,-2.8066,-2.8379,-2.8688,-2.9747,-3.0464,-3.0807,-3.1864,-3.2717,-3.3357,-3.3529,-3.3723,-3.3937,-3.3576,-3.3451,-3.3614,-3.3834,-3.431,-3.5096,-3.5597,-3.5812,-3.566,-3.4747,-3.3925,-3.3256,-3.2812,-3.2523,-3.2287,-3.2287,-3.2247,-3.2191,0.1702,0.2038,0.2245,0.2174,0.1747,0.1438,0.1426,0.156,0.0997,-0.0795,-0.293,-0.4546,-0.5257,-0.8514,-1.0672,0.0,0.0,0.0,0.0,-2.082,-2.2279,-2.4227,-2.4885,-2.5062,-2.4812,-2.4721,-2.4403,-2.3842,-2.3822,-2.3614,-2.3236,-2.3236,-2.3573,-2.4162,-2.418,-2.5002,-2.6393,-2.6289,-2.6725,-2.7449,-2.6748,-2.6544,-2.6667,-2.6131,-2.5323,-2.4559,-2.5323,-2.4653,-2.351,-2.4289,-2.4226,-2.384,-2.4155,-2.4038,-2.3747,-2.3819,-2.3437,0.0,0.0,0.0,0.0,0.0,0.0,0.0,0.0,-2.3454,-2.4112,-2.5023,-2.57,-2.6471,-2.7688,-2.8498,-2.9271,-3.0156,-3.0915,-3.1112,-3.0262,-3.0178,-2.9537,-2.7728,-2.6494,-2.6063,-2.6726,-2.6282,-2.6383,-2.7417,-2.7776,-2.8222,-2.8803,-2.9879,-3.0791,-3.1377,-3.2419,-3.3356,-3.425,-3.4206,-3.4292,-3.4505,-3.4038,-3.3818,-3.3842,-3.3873,-3.4664,-3.5969,-3.6411,-3.6673,-3.6637,-3.5371,-3.4498,-3.39,-3.3561,-3.3309,-3.3084,-3.2671,-3.2413,-3.2247,0.0,0.1524,0.1319,0.0959,0.1283,0.1586,0.1565,0.1756,0.1636,0.1062,0.0061,-0.1828,-0.5118,-0.5824,-0.7636,0.0,0.0,0.0,-2.0307,-2.1364,-2.2914,-2.5328,-2.55,-2.5415,-2.5152,-2.5015,-2.4759,-2.4323,-2.4251,-2.4063,-2.3723,-2.3723,-2.3753,-2.3754,-2.371,-2.419,-2.504,-2.5506,-2.6154,-2.6951,-2.7215,-2.7387,-2.7477,-2.7461,-2.6571,-2.5376,-2.5544,-2.5108,-2.4473,-2.4694,-2.4447,-2.4117,-2.4458,-2.4724,-2.4798,-2.4235,-2.4047,-2.4022,-2.4004,-2.3905,-2.3747,-2.3473,-2.3597,-2.3875,0.0,-2.5516,-2.6522,-2.637,-2.7181,-2.8169,-2.8956,-2.9171,-2.9634,-3.0794,-3.1021,-3.0923,-3.0591,-3.0148,-2.9529,-2.8724,-2.7565,-2.6869,-2.6938,-2.6514,-2.6503,-2.7297,-2.8157,-2.8739,-2.8803,-3.0957,-3.1974,-3.145,-3.316,-3.3855,-3.3356,-3.365,-3.3666,-3.3472,-3.3419,-3.3275,-3.3022,-3.3614,-3.4301,-3.5138,-3.6652,-3.7249,-3.7196,-3.6774,-3.6166,-3.5463,-3.4733,-3.4714,-3.4888,-3.3404,-3.2718,-3.2523,0.0,0.1636,0.1537,0.1308,0.132,0.1469,0.1727,0.1913,0.192,0.1687,0.1071,-0.0222,-0.2461,-0.364,-0.5576,-0.89,-1.1248,0.0,-1.929,-2.0742,-2.2543,-2.5024,-2.5121,-2.5166,-2.5263,-2.5128,-2.4946,-2.475,-2.4603,-2.4385,-2.4097,-2.4019,-2.3899,-2.3774,-2.3728,-2.4114,-2.4859,-2.5529,-2.6257,-2.6961,-2.7547,-2.7795,-2.7824,-2.7689,-2.7091,-2.6304,-2.6402,-2.5679,0.0,0.0,-2.476,-2.4388,-2.4731,-2.4987,-2.5119,-2.4923,-2.4891,-2.4942,-2.4842,-2.4227,-2.3745,-2.4337,-2.4264,-2.4272,-2.5119,-2.5647,-2.6286,-2.7364,-2.7926,-2.8586,-2.9782,-2.998,-3.029,-3.1191,-3.1118,-3.0835,-3.0567,-3.0096,-2.9498,-2.861,-2.7761,-2.7262,-2.731,-2.6822,-2.6904,-2.7815,-2.8481,-2.9107,-2.978,-3.1027,-3.1935,-3.2336,-3.3461,-3.4278,-3.47,-3.4406,-3.4265,-3.4265,-3.3661,-3.3388,-3.349,-3.3699,-3.4472,-3.5723,-3.6814,-3.7096,-3.6733,-3.6133,-3.5506,-3.4911,-3.4485,-3.4455,-3.4549,-3.3842,-3.3513,-3.3395,0.0,0.1869,0.1883,0.1838,0.1632,0.155,0.1828,0.1975,0.2026,0.1937,0.1408,0.0668,-0.0265,-0.1933,-0.3989,-0.6508,-0.9608,-1.3442,-1.8105,-2.0243,-2.2244,-2.431,-2.4591,-2.4841,-2.5139,-2.5107,-2.5057,-2.4979,-2.4842,-2.4607,-2.4339,-2.421,-2.4075,-2.3917,-2.3852,-2.4241,-2.4951,-2.5715,-2.6451,-2.7155,-2.7779,-2.8042,-2.8042,-2.7824,-2.7416,-2.697,-2.7014,-2.6079,0.0,-2.5254,-2.5038,-2.4659,-2.4966,-2.5163,-2.5302,-2.5399,-2.542,-2.5368,-2.5146,-2.4504,-2.4091,-2.4874,-2.4837,-2.4802,-2.5552,-2.5748,-2.631,-2.7992,-2.8444,-2.8973,-3.0294,-3.0485,-3.0674,-3.1469,-3.1031,-3.0547,-3.0558,-2.9761,-2.899,-2.8338,-2.7644,-2.7274,-2.7643,-2.7229,-2.7417,-2.8352,-2.8867,-2.9554,-3.071,-3.1531,-3.2307,-3.3279,-3.4064,-3.4726,-3.5307,-3.4804,-3.4446,-3.434,-3.3568,-3.3249,-3.3392,-3.3723,-3.4685,-3.6146,-3.6852,-3.6987,-3.6658,-3.6006,-3.5461,-3.5061,-3.4801,-3.4751,-3.4851,-3.4689,-3.4319,-3.3973,0.0,0.0,0.2113,0.2188,0.2115,0.2021,0.1841,0.1873,0.1942,0.1981,0.1345,0.0808,0.0504,-0.08,-0.276,-0.5497,-0.9321,-1.3252,-1.7182,-2.0228,-2.2326,-2.329,-2.4082,-2.4568,-2.4726,-2.4984,-2.5041,-2.4896,-2.4891,-2.4718,-2.4389,-2.4339,-2.4247,-2.417,-2.4054,-2.4452,-2.5233,-2.5832,-2.6549,-2.7335,-2.7888,-2.8126,-2.82,-2.8126,-2.7701,-2.7173,-2.7064,0.0,-2.523,-2.5504,-2.528,-2.4917,-2.5126,-2.5339,-2.5483,-2.5508,-2.5353,-2.515,-2.487,-2.4974,-2.5072,-2.4787,-2.5341,-2.587,-2.559,-2.6469,-2.7487,-2.8097,-2.8808,-2.9656,-3.0517,-3.0443,-3.056,-3.1609,-3.0616,-2.9963,-3.0588,-2.8998,-2.7845,-2.8078,-2.7092,-2.6818,0.0,-2.7842,-2.8039,-2.8739,-2.9435,-3.0249,-3.1409,-3.2914,-3.3819,-3.4071,-3.5221,-3.5249,-3.407,-3.4098,-3.3642,-3.2672,-3.2617,-3.2428,-3.2129,-3.3523,-3.4842,-3.597,-3.6687,-3.715,-3.7385,-3.7354,-3.7219,-3.7037,-3.6393,-3.6432,-3.6828,-3.6126,-3.5034,-3.3926,0.0,0.0,0.0,0.2755,0.2698,0.2566,0.2408,0.212,0.1811,0.1573,0.0973,0.0,0.0,0.0,0.0,0.0,-0.8857,-1.2624,-1.6729,-1.904,-2.1172,-2.3271,-2.3581,-2.4043,-2.4751,-2.4846,-2.4782,-2.4572,-2.4388,-2.4247,-2.4135,-2.3979,-2.3896,-2.3871,-2.3871,-2.4324,-2.5099,-2.5809,-2.6561,-2.7313,-2.7456,-2.7887,-2.834,-2.7216,-2.6799,-2.6822,0.0,0.0,-2.55,-2.5329,-2.5222,-2.5177,-2.5294,-2.5386,-2.5409,-2.5278,-2.5123,-2.501,-2.5054,-2.5042,-2.5081,-2.542,-2.5596,-2.571,-2.5812,-2.617,-2.666,-2.7328,-2.775,-2.8262,-2.9048,-2.914,-2.9419,-3.0449,-2.9693,-2.9283,-3.0156,-2.9053,-2.8085,-2.8118,-2.7353,-2.7155,0.0,0.0,0.0,-2.9016,-2.9242,-2.9897,-3.1438,-3.2511,-3.3306,-3.3729,-3.4224,-3.4258,-3.3817,-3.3255,-3.2873,-3.2586,-3.2342,-3.2379,-3.268,-3.3634,-3.4515,-3.5309,-3.606,-3.6476,-3.6585,-3.6136,-3.6011,-3.6191,-3.5973,-3.6035,-3.6313,-3.6562,-3.5767,-3.4644,0.0,0.0,0.0,0.0,0.0,0.0,0.0,0.0,0.0,0.0,0.0,0.0,0.0,0.0,0.0,0.0,0.0,-1.2069,-1.5685,-1.8009,-2.006,-2.1858,-2.244,-2.3032,-2.3687,-2.3671,-2.3472,-2.3088,-2.2514,-2.2352,-2.2574,-2.2559,-2.2752,-2.31,-2.3562,-2.4238,-2.5055,-2.586,-2.6522,-2.703,-2.7349,-2.7679,-2.7848,-2.6817,-2.6447,0.0,0.0,0.0,-2.5512,-2.5283,-2.5282,-2.544,-2.5757,-2.581,-2.5628,-2.5081,-2.4955,-2.5017,-2.5055,-2.5154,-2.5358,-2.5764,-2.5793,-2.5781,-2.5947,-2.6026,-2.6195,-2.6636,-2.6986,-2.7337,-2.7838,-2.8005,-2.8419,-2.9344,-2.8934,-2.8779,-2.96,-2.8919,-2.8235,-2.8,-2.7577,-2.751,-2.8105,-2.7493,0.0,-2.9268,-2.9529,-3.0268,-3.1801,-3.2623,-3.3319,-3.3799,-3.3857,-3.3614,-3.3211,-3.2609,-3.2272,-3.216,-3.191,-3.2231,-3.2955,-3.3379,-3.4061,-3.5002,-3.5427,-3.5809,-3.6117,-3.569,-3.563,-3.5814,-3.5875,-3.5936,-3.6104,-3.6645,-3.6166,-3.5422,0.0,0.0,0.0,0.0,0.0,0.0,0.0,0.0,0.0,0.0,0.0,0.0,0.0,0.0,0.0,0.0,0.0,0.0,-1.4142,-1.7198,0.0,-1.9324,-2.0847,-2.168,-2.1706,-2.1633,-2.1298,-2.0681,-1.9605,-1.9388,-1.997,-2.0266,-2.0955,-2.1926,-2.3094,-2.4104,-2.5012,-2.5947,-2.6439,-2.6594,-2.7539,-2.7474,-2.6822,-2.6883,0.0,0.0,0.0,-2.5823,-2.5308,-2.5375,-2.5431,-2.5605,-2.635,-2.6409,-2.5959,-2.4873,-2.485,-2.5118,-2.4883,-2.535,-2.5901,-2.5848,-2.6,-2.6168,-2.6026,-2.6079,-2.6132,-2.599,-2.6475,-2.6913,-2.6977,-2.7138,-2.7572,-2.8404,-2.8349,-2.8468,-2.8999,-2.8671,-2.8157,-2.7842,-2.7776,-2.7776,-2.7776,-2.7624,0.0,-2.9435,0.0,-3.119,-3.2318,-3.3194,-3.3818,-3.4125,-3.4136,-3.3517,-3.2362,-3.217,-3.1823,-3.1278,-3.1409,-3.1972,-3.2839,-3.2839,-3.3668,-3.5032,-3.5032,-3.5396,-3.5973,-3.5973,-3.5973,-3.6037,-3.6148,-3.618,-3.6228,-3.6368,-3.6259,-3.6029,0.0,0.0,0.0,0.0,0.0,0.0,0.0,0.0,0.0,0.0,0.0,0.0,0.0,0.0,0.0,0.0,0.0,0.0,-1.4246,0.0,0.0,0.0,-2.0771,-2.1498,-2.1984,-2.1633,-2.1078,-2.0331,-1.9504,-1.911,-1.9102,-1.9334,-1.9747,-2.0348,-2.1785,-2.3077,-2.4244,-2.5237,-2.6116,-2.6786,0.0,-2.6714,-2.7058,0.0,0.0,0.0,0.0,-2.5344,-2.5091,-2.5266,-2.5177,-2.5015,-2.5166,-2.4917,-2.452,-2.4118,-2.4395,-2.4846,-2.4927,-2.5426,-2.5928,-2.6135,-2.6127,-2.599,-2.5749,-2.5659,-2.5584,-2.5508,-2.5522,-2.5557,-2.5486,-2.5642,-2.614,-2.7303,-2.7565,-2.8018,-2.9101,-2.8796,-2.8314,-2.763,-2.7242,-2.7108,-2.7564,-2.7552,-2.7931,0.0,-2.9477,-3.0129,-3.0942,-3.2638,-3.3652,-3.3818,-3.3991,-3.3716,-3.3,-3.2093,-3.1452,-3.1132,-3.1366,-3.2138,-3.3306,-3.3306,-3.404,-3.5379,-3.5379,-3.5518,-3.5752,-3.5752,-3.5831,-3.6037,-3.6148,-3.5967,-3.5661,-3.56,-3.4956,-3.4217,0.0,0.0,0.0,0.0,0.0,0.0,0.0,0.0,0.0,0.0,0.0,0.0,0.0,0.0,0.0,0.0,0.0,0.0,0.0,-1.5928,0.0,-1.8896,-2.0012,-2.0743,-2.1039,-2.0597,-1.9956,-1.9137,0.0,0.0,-1.7768,-1.7993,-1.8531,-1.9401,-2.091,-2.2361,-2.3676,-2.4708,0.0,0.0,0.0,0.0,0.0,0.0,0.0,0.0,-2.5226,-2.4797,-2.4517,-2.4801,-2.5241,-2.5551,-2.5035,-2.5079,-2.519,-2.4585,-2.4804,-2.5216,-2.5264,-2.5678,-2.61,-2.6092,-2.603,-2.5917,-2.5562,-2.5508,-2.5395,-2.4932,-2.49,-2.48,-2.4233,-2.4421,-2.5042,-2.6086,-2.6636,-2.735,-2.8598,-2.8767,-2.8444,-2.7617,-2.7395,-2.7255,-2.7188,-2.7297,-2.7762,-2.8651,-2.9384,-3.0121,-3.0932,-3.2434,-3.3456,-3.3833,-3.3962,-3.3716,-3.3114,-3.2586,-3.2169,-3.1928,-3.2229,-3.2781,-3.3499,-3.3499,-3.4068,-3.5055,0.0,-3.5269,-3.5589,-3.5589,-3.5668,-3.5767,-3.5624,-3.5353,-3.5126,-3.476,-3.4241,-3.363,0.0,0.0,0.0,0.0,0.0,0.0,0.0,0.0,0.0,0.0,0.0,0.0,0.0,0.0,0.0,0.0,0.0,0.0,0.0,0.0,0.0,-1.7489,-1.9116,-1.9933,-1.9752,-1.9281,-1.866,-1.7876,-1.6454,0.0,0.0,0.0,0.0,0.0,0.0,0.0,0.0,0.0,0.0,0.0,0.0,0.0,0.0,0.0,0.0,0.0,-2.4557,-2.4089,-2.3658,-2.4017,-2.5145,-2.6167,-2.5223,-2.5731,-2.6462,-2.5322,-2.5403,-2.5822,-2.562,-2.59,-2.6173,-2.5868,-2.5783,-2.566,-2.5211,-2.5191,-2.504,-2.4207,-2.4304,-2.4238,-2.3381,-2.3572,-2.4175,-2.4864,-2.5639,-2.6549,-2.7882,-2.8507,-2.8542,-2.7736,-2.7819,-2.7674,-2.6956,-2.704,-2.7577,-2.8522,-2.9453,-3.0369,-3.1162,-3.2264,-3.3223,-3.3977,-3.3952,-3.3687,-3.3136,-3.325,-3.3206,-3.3004,-3.3315,-3.3529,-3.3619,-3.3619,-3.3978,-3.4607,-3.4607,0.0,-3.5504,-3.5504,-3.5504,-3.5444,-3.5007,-3.4723,-3.4512,-3.4228,-3.3834,-3.3442,0.0,0.0,0.0,0.0,0.0,0.0,0.0,0.0,0.0,0.0,-0.1362,-0.1624,0.0,0.0,0.0,0.0,0.0,0.0,0.0,0.0,0.0,0.0,-1.9188,-2.0046,-1.9945,-1.9484,-1.8939,-1.8299,-1.7429,-1.6924,0.0,0.0,0.0,0.0,0.0,0.0,0.0,0.0,0.0,0.0,0.0,0.0,0.0,0.0,0.0,0.0,-2.3365,-2.2888,-2.2574,-2.2777,-2.3549,-2.4413,-2.4128,-2.4448,-2.4773,-2.4019,-2.4658,-2.5624,-2.5396,-2.5609,-2.5868,-2.5775,-2.5077,-2.4383,-2.4179,-2.3554,-2.303,-2.3257,-2.3178,-2.3119,-2.3241,-2.3376,-2.3526,-2.3873,-2.484,-2.5921,-2.7129,-2.7732,-2.8179,-2.8309,-2.7788,-2.7494,-2.7749,-2.7351,-2.7443,0.0,-2.8473,-2.875,-2.9617,-3.1239,-3.2695,-3.3962,-3.3698,-3.3687,-3.38,-3.3443,-3.3114,-3.3004,-3.3176,-3.3645,-3.4307,-3.4307,-3.4681,-3.5325,-3.5325,0.0,-3.5504,-3.5504,-3.5504,-3.5489,-3.5518,-3.4844,-3.3939,-3.4423,-3.3578,-3.2191,0.0,0.0,0.0,0.0,0.0,0.0,0.0,0.2566,-0.0,-0.3131,-0.4127,-0.5222,-0.6987,-0.7981,-0.9236,0.0,0.0,0.0,0.0,0.0,0.0,0.0,0.0,-2.018,-2.0152,-1.9834,-1.9458,-1.9017,0.0,-1.8032,-1.7839,-1.7905,-1.8176,-1.8671,-1.9497,-2.0759,-2.2285,0.0,0.0,-2.4675,-2.4569,-2.4317,0.0,0.0,0.0,0.0,0.0,-2.1673,-2.1409,-2.1696,-2.2053,-2.2536,-2.331,-2.3801,-2.4063,-2.3635,-2.4235,-2.5005,-2.4874,-2.5148,-2.5384,-2.5169,-2.4718,-2.4154,-2.3639,-2.3092,-2.2611,-2.2398,-2.2184,-2.1987,-2.1945,-2.2222,-2.2525,-2.2804,-2.3809,-2.4962,-2.6105,-2.6799,-2.7282,-2.7466,-2.7115,-2.7027,-2.7417,-2.696,-2.7095,-2.8379,-2.817,-2.8487,-2.9628,-3.1053,-3.2385,-3.3543,-3.3574,-3.3849,-3.4463,-3.4283,-3.4199,-3.415,-3.4199,-3.449,-3.5011,-3.5011,-3.519,-3.5504,-3.5504,0.0,-3.5504,-3.5504,-3.5504,-3.5474,-3.5213,-3.4673,-3.4072,-3.3697,-3.3186,-3.2631,0.0,0.0,0.0,0.0,0.0,0.0,0.0,0.1838,-0.135,-0.4772,-0.714,-0.9169,-1.0896,-1.0968,-1.1385,0.0,0.0,0.0,0.0,0.0,0.0,0.0,0.0,-2.0316,-2.0295,0.0,0.0,-1.9716,-1.9316,0.0,0.0,0.0,0.0,0.0,-1.9361,-2.0384,-2.1987,-2.1938,-2.2707,0.0,0.0,-2.3334,0.0,0.0,0.0,0.0,0.0,-2.0424,-2.0158,-2.0555,-2.0512,-2.0541,-2.1931,-2.2834,-2.334,-2.3134,-2.3647,-2.4293,-2.4327,-2.4648,-2.495,-2.467,-2.4302,-2.3856,-2.3086,-2.2554,-2.2055,-2.1473,-2.1163,-2.0925,-2.0626,-2.1083,-2.1532,-2.1718,-2.2671,-2.3785,-2.497,-2.5716,-2.6299,-2.6799,-2.6614,-2.6701,-2.7175,-2.6633,-2.6769,-2.796,-2.7973,-2.8489,-2.9799,-3.0755,-3.171,-3.2782,-3.3121,-3.3695,-3.4648,-3.486,-3.5065,-3.5148,-3.4999,-3.516,-3.5504,-3.529,-3.529,-3.5504,-3.5504,0.0,0.0,-3.5504,-3.5504,-3.5444,-3.4906,-3.4607,-3.4352,-3.332,-3.317,-3.335,0.0,0.0,0.0,0.0,0.0,0.0,0.0,-0.0,-0.3158,-0.6756,-0.9528,-1.1799,-1.3474,-1.3121,-1.3146,0.0,0.0,0.0,0.0,0.0,0.0,0.0,0.0,0.0,0.0,0.0,0.0,-2.0043,-1.9881,0.0,0.0,0.0,0.0,0.0,0.0,-2.0003,-2.1282,-2.1092,0.0,0.0,0.0,0.0,0.0,0.0,0.0,0.0,0.0,-1.9045,-1.8921,-1.9176,-1.8887,-1.847,-1.9097,-2.0582,-2.2034,-2.1687,-2.2554,-2.367,-2.4029,-2.4358,-2.463,-2.4589,-2.3569,-2.247,-2.2031,-2.0978,-2.0113,-2.0157,-1.9958,-1.9861,-2.0189,-2.0629,-2.0909,-2.0702,-2.1466,-2.2548,-2.3879,-2.4503,-2.5542,-2.739,-2.7025,-2.6985,-2.7881,-2.704,-2.6633,-2.7335,-2.7456,-2.8052,-2.9317,-2.9449,-3.0136,-3.1406,-3.1824,-3.2547,-3.3761,-3.4164,-3.4525,-3.492,-3.4345,-3.4584,-3.5489,-3.4703,-3.4763,-3.5504,-3.5504,0.0,0.0,-3.5504,-3.5504,-3.5489,-3.5429,-3.5026,-3.4472,-3.4337,-3.3963,-3.3484,0.0,0.0,0.0,0.0,0.0,0.0,0.0768,-0.2164,-0.586,-1.0969,-1.2347,-1.3456,-1.5137,-1.4687,-1.4429,-1.4855,0.0,0.0,0.0,0.0,0.0,0.0,0.0,0.0,0.0,0.0,-2.0017,-1.9913,-1.9791,0.0,0.0,0.0,0.0,0.0,0.0,-1.9954,-2.0582,-2.0305,0.0,0.0,0.0,0.0,0.0,0.0,0.0,0.0,0.0,0.0,-1.7585,-1.7618,-1.7468,-1.731,-1.7505,-1.811,-1.8948,-1.9809,-2.1069,-2.2247,-2.2659,-2.3347,-2.3925,-2.3925,-2.3086,-2.2133,-2.149,-2.0474,-1.9545,-1.9084,-1.8787,-1.863,-1.87,-1.9448,-1.9953,-1.9601,-2.0729,-2.1812,-2.2153,-2.323,-2.44,-2.5647,-2.5844,-2.6413,-2.763,-2.7053,-2.6985,-2.8,-2.7855,-2.8235,-2.9401,-2.9184,-2.9692,-3.1189,-3.1711,-3.2478,-3.3573,-3.3688,-3.387,-3.4134,-3.395,-3.4109,-3.4569,-3.4608,-3.4608,-3.4649,-3.5115,0.0,0.0,-3.5275,-3.5185,-3.4748,-3.4812,-3.4711,-3.4427,-3.4038,-3.3724,-3.344,0.0,0.0,0.0,0.0,0.0,0.2443,-0.1346,-0.4555,-0.8369,-1.3353,-1.4036,-1.4505,-1.5695,-1.5311,-1.5012,-1.5059,-1.5124,0.0,0.0,0.0,0.0,0.0,0.0,0.0,0.0,0.0,-1.962,-1.95,-1.9516,-1.935,0.0,0.0,-1.9323,-1.8888,0.0,0.0,0.0,0.0,0.0,0.0,0.0,0.0,0.0,0.0,0.0,0.0,0.0,0.0,0.0,0.0,0.0,-1.6367,-1.6423,-1.6466,-1.6771,-1.8215,-1.9562,-2.0733,-2.1175,-2.2098,-2.292,-2.292,-2.2285,-2.1471,-2.0793,-1.9889,-1.8985,-1.8291,-1.7962,-1.7774,-1.7638,-1.8602,-1.9301,-1.895,-2.0145,-2.1095,-2.1053,-2.216,-2.3255,-2.4067,-2.463,-2.5453,-2.6891,-2.6883,-2.7175,-2.817,-2.8039,-2.8287,-2.9149,-2.9071,-2.9508,-3.0839,-3.1574,-3.2327,-3.318,-3.3216,-3.3369,-3.3688,-3.3513,-3.3554,-3.3711,-3.4103,-3.4059,-3.3711,-3.4569,0.0,0.0,-3.4937,-3.4837,-3.3888,-3.4558,-3.4651,-3.4412,-3.3963,-3.3918,-3.3963,0.0,0.0,0.0,0.0,0.0,0.0,-0.3545,-0.718,-1.0408,-1.2794,-1.4154,-1.488,-1.4905,-1.4793,-1.471,-1.4709,-1.4961,0.0,0.0,0.0,0.0,0.0,0.0,0.0,0.0,0.0,-1.9078,-1.8819,-1.9135,-1.9104,-1.8711,-1.8772,-1.8567,-1.8092,0.0,0.0,0.0,0.0,0.0,0.0,0.0,0.0,0.0,0.0,0.0,0.0,0.0,0.0,0.0,0.0,0.0,0.0,0.0,-1.5913,-1.6186,-1.7053,-1.8171,-1.9218,-1.9693,-2.0643,-2.1506,-2.1506,-2.0907,-2.0203,-1.9814,-1.8934,-1.8104,-1.7787,-1.7543,-1.7404,-1.7404,-1.8354,-1.9042,-1.8904,-1.9662,-2.0386,-2.0843,-2.1437,-2.2216,-2.3289,-2.3688,-2.4377,-2.5772,-2.6585,-2.7162,-2.7484,-2.7802,0.0,-2.8287,-2.8917,-2.9526,-3.0064,-3.1133,-3.1982,-3.2527,-3.2625,-3.3059,-3.3688,-3.3089,-3.2845,-3.3018,-3.2859,-3.2845,0.0,0.0,0.0,0.0,-3.4679,-3.4505,-3.317,-3.4837,-3.507,-3.4472,-3.4472,-3.4906,-3.5295,0.0,0.0,0.0,0.0,0.0,0.0,0.0,-0.9627,-1.1922,-1.3806,-1.4503,-1.5014,-1.5475,-1.4851,-1.4628,-1.5135,-1.4962,0.0,0.0,0.0,0.0,0.0,0.0,0.0,0.0,0.0,-1.8335,-1.7983,-1.8071,-1.7841,-1.7279,-1.7789,-1.7705,-1.7086,-1.7054,-1.6863,0.0,0.0,0.0,0.0,0.0,0.0,0.0,0.0,0.0,0.0,0.0,0.0,0.0,0.0,0.0,0.0,0.0,0.0,0.0,-1.5972,-1.7092,-1.8312,-1.8758,-1.945,-2.0057,-2.0057,-1.9625,-1.9097,-1.8695,-1.8135,-1.7626,-1.7227,-1.7128,-1.7141,-1.7141,-1.8153,-1.9054,-1.9331,-1.9991,-2.0655,-2.1099,-2.1329,-2.18,-2.2774,-2.4583,-2.6036,-2.6624,0.0,-2.8118,-2.8235,-2.8379,-2.8753,-2.9463,-2.9792,-3.0157,-3.0551,-3.0998,-3.1618,-3.2384,-3.1951,-3.2101,-3.2724,-3.2213,-3.1955,-3.197,-3.2436,-3.2329,0.0,0.0,0.0,0.0,-3.379,-3.3947,-3.3,-3.433,-3.4666,-3.4472,-3.4472,-3.4322,-3.4143,0.0,0.0,0.0,0.0,0.0,0.0,0.0,-1.1547,-1.3143,-1.4309,-1.453,-1.4678,-1.5019,-1.4454,-1.4257,-1.467,-1.4446,0.0,0.0,0.0,0.0,0.0,0.0,0.0,0.0,-1.7942,-1.7412,-1.6889,-1.7065,-1.6771,-1.6135,-1.6794,-1.6797,-1.6209,-1.6161,-1.5903,0.0,0.0,0.0,0.0,0.0,0.0,0.0,0.0,0.0,0.0,0.0,0.0,0.0,0.0,0.0,0.0,0.0,0.0,0.0,0.0,-1.632,-1.7252,-1.752,-1.8071,-1.8596,-1.8596,-1.8293,-1.8009,-1.7759,-1.7351,-1.7034,-1.6778,-1.6905,-1.7109,-1.7231,-1.8239,-1.9094,-1.942,-1.9825,-2.0283,-2.073,-2.0916,-2.1488,-2.2924,-2.4988,-2.6478,0.0,-2.7854,-2.8495,-2.883,-2.8958,-2.9401,-3.0158,-3.0219,-3.0369,-3.0745,-3.114,-3.1532,-3.2009,-3.1493,-3.1493,-3.1994,-3.1652,-3.1395,-3.1177,-3.1845,-3.1724,0.0,0.0,0.0,0.0,-3.3111,-3.3398,-3.2647,-3.3988,-3.4472,-3.4502,-3.4771,-3.4607,-3.4233,0.0,0.0,0.0,0.0,0.0,0.0,0.0,-1.2908,-1.3985,-1.4285,-1.4213,-1.4018,-1.3757,-1.3676,-1.362,-1.3624,0.0,0.0,0.0,0.0,0.0,0.0,0.0,0.0,0.0,-1.7034,-1.6328,-1.5583,-1.6055,-1.591,-1.5181,-1.5786,-1.586,-1.5454,-1.5028,-1.4582,0.0,0.0,0.0,0.0,0.0,0.0,0.0,0.0,0.0,0.0,0.0,0.0,0.0,0.0,0.0,0.0,0.0,0.0,0.0,0.0,0.0,0.0,0.0,-1.6752,-1.7193,-1.7193,-1.7086,-1.7002,-1.6965,-1.665,0.0,-1.6436,-1.6846,-1.7294,-1.7619,-1.8558,-1.9239,-1.9277,-1.9407,-1.9674,-2.0116,-2.0394,-2.1391,-2.3642,-2.4918,-2.6008,-2.6906,-2.7693,-2.8454,-2.9247,-2.9623,0.0,-3.0266,-3.0158,-3.028,-3.0568,-3.1415,-3.1711,-3.1526,-3.1353,-3.1353,-3.1464,-3.1467,-3.1134,-3.0597,-3.1177,-3.0997,0.0,0.0,0.0,0.0,-3.2566,-3.2867,-3.2254,-3.3898,-3.4517,-3.4562,-3.525,-3.5474,-3.525,0.0,0.0,0.0,0.0,0.0,0.0,0.0,0.0,0.0,0.0,-1.3476,-1.3289,-1.3126,-1.3023,-1.3147,0.0,0.0,0.0,0.0,0.0,0.0,0.0,0.0,0.0,0.0,-1.6026,-1.5242,-1.4381,-1.4777,-1.4611,-1.4006,-1.4633,-1.4721,-1.4376,-1.4071,-1.361,0.0,0.0,0.0,0.0,0.0,0.0,0.0,0.0,0.0,0.0,-1.2764,-1.2958,0.0,0.0,0.0,0.0,0.0,0.0,0.0,0.0,-1.6061,-1.65,-1.655,0.0,-1.7057,-1.7057,-1.7024,-1.6883,0.0,-1.6476,-1.6454,-1.6174,-1.6785,-1.7435,-1.7651,-1.8681,-1.9642,-2.0114,-2.061,-2.1101,-2.1674,-2.2104,-2.3013,-2.4941,-2.562,-2.6268,-2.7063,-2.8336,-2.9085,-2.9149,-2.9574,-2.9884,-3.0097,-3.0219,-3.0326,-3.0568,-3.0812,-3.1116,-3.1526,-3.1464,-3.1416,-3.1353,-3.0971,-3.0652,-3.0387,-3.0667,-3.0713,0.0,0.0,0.0,-3.0669,-3.2134,-3.2761,-3.2933,-3.4456,-3.4807,-3.4562,-3.525,-3.5175,-3.4666,0.0,0.0,0.0,0.0,0.0,0.0,0.0,0.0,0.0,0.0,0.0,0.0,0.0,0.0,0.0,0.0,0.0,0.0,0.0,0.0,0.0,0.0,0.0,0.0,-1.5738,-1.4992,-1.416,-1.3251,-1.3574,-1.3483,-1.2993,-1.36,-1.3815,-1.3637,-1.3324,-1.2852,0.0,0.0,0.0,0.0,0.0,0.0,0.0,0.0,0.0,0.0,-1.2323,-1.2569,0.0,-1.2949,-1.318,-1.3546,0.0,0.0,0.0,0.0,-1.6428,-1.6877,-1.6979,-1.6958,-1.6933,-1.6933,-1.6921,-1.6938,-1.6619,-1.6753,-1.6812,-1.6652,-1.7285,-1.7953,-1.8266,-1.9098,-1.9941,-2.0553,-2.0863,-2.14,-2.2464,-2.3443,-2.4503,-2.5946,-2.6477,-2.7078,0.0,-2.8624,-2.9162,-2.954,0.0,-3.0021,-3.0355,-3.0387,-3.0507,-3.0568,-3.0858,-3.1032,-3.109,-3.1151,-3.0968,-3.0597,-3.0424,-3.0129,-2.9761,-2.9837,-3.0021,0.0,0.0,0.0,-3.0775,-3.1675,-3.2507,-3.3327,-3.4431,-3.4722,-3.4517,-3.4906,-3.4607,-3.3978,0.0,0.0,0.0,0.0,0.0,0.0,0.0,0.0,0.0,0.0,0.0,0.0,0.0,0.0,0.0,0.0,0.0,0.0,0.0,0.0,0.0,0.0,0.0,-1.4269,-1.4811,-1.4073,-1.3247,-1.2412,-1.2611,-1.2563,-1.2282,-1.2882,-1.3122,-1.3132,-1.2813,-1.2382,0.0,0.0,0.0,0.0,0.0,0.0,0.0,0.0,0.0,0.0,0.0,0.0,0.0,-1.2578,-1.2803,-1.3233,-1.4099,0.0,0.0,0.0,0.0,0.0,-1.7443,-1.7237,-1.6977,-1.6977,-1.7066,-1.7132,-1.7111,-1.7199,-1.7335,-1.7387,-1.7943,-1.8573,-1.8981,-1.9603,-2.0302,-2.0987,-2.1142,-2.175,-2.3432,-2.4607,-2.5743,-2.6751,-2.721,0.0,-2.8675,-2.8688,-2.9035,-2.9974,0.0,-3.0233,-3.0522,-3.0568,-3.0568,-3.0568,-3.109,-3.1163,-3.0727,-3.0788,-3.0531,-2.9888,-2.9988,-2.9693,-2.9173,-2.914,-2.9281,-2.9603,0.0,0.0,-3.0626,-3.1098,-3.2065,-3.3287,-3.3943,-3.42,-3.4188,-3.4215,-3.3841,-3.3199,0.0,0.0,0.0,0.0,0.0,0.0,0.0,0.0,0.0,0.0,0.0,0.0,0.0,0.0,0.0,0.0,0.0,0.0,0.0,0.0,0.0,0.0,-1.387,-1.3995,-1.3971,-1.3403,-1.2913,-1.2467,-1.2401,-1.2418,-1.2559,-1.2827,-1.2968,-1.292,-1.2627,-1.2274,-1.1877,0.0,0.0,0.0,0.0,0.0,0.0,0.0,0.0,0.0,0.0,0.0,0.0,-1.2323,-1.2757,-1.3357,-1.3862,0.0,0.0,0.0,0.0,0.0,-1.785,-1.7847,-1.7909,-1.7909,-1.7909,-1.7848,-1.7577,-1.7627,-1.765,-1.7459,-1.8019,-1.871,-1.9093,-2.0131,-2.1133,-2.1856,-2.3186,-2.4676,-2.6324,0.0,-2.6231,-2.7499,0.0,-2.7338,-2.8287,-2.861,-2.9058,0.0,0.0,-3.0111,-3.0172,-3.0462,-3.0507,-3.0326,-3.0609,-3.093,-3.1366,-3.1104,-3.0791,-3.0397,-2.9736,-2.9462,-2.9583,-2.927,-2.9361,-2.979,0.0,-2.9233,-2.9803,-3.0312,-3.1131,-3.2115,-3.246,-3.2687,-3.2811,-3.3102,-3.2833,-3.2195,0.0,0.0,0.0,0.0,0.0,0.0,0.0,0.0,0.0,0.0,0.0,0.0,0.0,0.0,0.0,0.0,0.0,0.0,0.0,0.0,0.0,-1.3395,-1.3496,-1.3519,-1.3429,-1.2859,-1.2375,-1.1959,-1.2079,-1.2162,-1.2218,-1.2673,-1.2881,-1.2783,-1.2529,-1.2126,-1.1669,-1.1175,0.0,0.0,0.0,0.0,0.0,0.0,0.0,0.0,0.0,0.0,0.0,0.0,-1.2721,-1.3265,-1.4182,0.0,0.0,0.0,0.0,0.0,-1.7909,-1.8018,-1.8084,-1.8084,-1.8205,-1.8201,-1.8065,-1.8272,-1.8398,-1.8313,-1.9049,-1.9808,-1.9963,-2.0976,-2.2189,-2.3326,-2.4623,-2.5968,-2.7193,-2.6969,-2.7051,0.0,0.0,-2.7829,-2.8183,-2.8546,0.0,0.0,0.0,0.0,-3.0205,-3.0326,-3.0387,-3.0312,-3.0387,-3.0924,-3.2048,-3.1055,-3.0423,-3.0216,-3.009,-2.9465,-2.8519,-2.8638,-2.8824,-2.8901,0.0,-2.8675,-2.9631,-2.9914,-3.068,-3.1722,-3.2173,-3.2155,-3.2016,-3.176,-3.1494,-3.1245,0.0,0.0,0.0,0.0,0.0,0.0,0.0,0.0,0.0,0.0,0.0,0.0,0.0,0.0,0.0,0.0,0.0,0.0,0.0,0.0,-1.3288,-1.3254,-1.3138,-1.3057,-1.3022,-1.2532,-1.2087,-1.1755,-1.2016,-1.2162,-1.2208,-1.2663,-1.2832,-1.2686,-1.2382,-1.1977,-1.1528,-1.1074,-1.0616,0.0,0.0,0.0,0.0,0.0,0.0,0.0,0.0,0.0,0.0,0.0,0.0,0.0,0.0,0.0,0.0,-1.6935,-1.7434,-1.77,-1.7799,-1.7975,-1.8084,-1.8084,-1.8259,-1.8457,-1.8627,-1.891,-1.9257,-1.9485,-2.0283,-2.092,-2.0974,-2.197,-2.3201,-2.4718,-2.572,-2.6595,-2.7524,-2.7732,-2.783,-2.8091,-2.8183,-2.8249,-2.821,0.0,0.0,0.0,0.0,0.0,-3.0007,-3.0068,-3.0068,-3.0068,-3.0129,-3.075,-3.1947,-3.0676,-3.0187,-3.0436,-3.0255,-2.9334,-2.7941,-2.8111,-2.8155,-2.8133,-2.7722,-2.8118,-2.919,-2.9361,-3.0071,-3.1027,-3.1389,-3.1401,-3.1112,-3.0621,-3.0447,-3.0462,0.0,0.0,0.0,0.0,0.0,0.0,0.0,0.0,0.0,0.0,0.0,0.0,0.0,0.0,0.0,0.0,0.0,0.0,0.0,0.0,-1.2768,-1.2838,-1.2768,-1.2768,-1.2838,-1.2556,-1.2417,-1.2535,-1.2617,-1.2811,-1.308,-1.2977,-1.2832,-1.2676,-1.2283,-1.1977,-1.1669,-1.1124,-1.0718,-1.0419,0.0,0.0,0.0,0.0,0.0,0.0,0.0,0.0,0.0,0.0,0.0,0.0,0.0,0.0,-1.6301,-1.674,-1.7145,-1.7534,-1.7656,-1.781,-1.7963,-1.8084,-1.8259,-1.8604,-1.9361,-1.9622,-2.0031,-2.0952,-2.1281,-2.1542,-2.1831,-2.2954,-2.4255,-2.5744,-2.6506,-2.7192,-2.7933,0.0,-2.8417,-2.8145,-2.8079,-2.821,0.0,0.0,0.0,0.0,0.0,0.0,-2.9162,-2.9324,-2.9373,-2.9373,-2.9526,-2.9926,-3.0443,-2.98,-3.0187,-3.1681,-2.9766,-2.8921,-2.9118,-2.8072,-2.785,-2.8363,-2.7758,-2.7656,-2.7973,-2.8276,-2.8743,-2.9295,-2.9337,-2.9561,-2.9941,-2.9898,-2.996,-3.0111,0.0,0.0,0.0,0.0,0.0,0.0,0.0,0.0,0.0,0.0,0.0,0.0,0.0,0.0,0.0,0.0,0.0,0.0,0.0,0.0,-1.2187,-1.2544,-1.252,-1.252,-1.2556,-1.2449,-1.2351,-1.2278,-1.2487,-1.2832,-1.3314,-1.3017,-1.2783,-1.2578,-1.2224,-1.1977,-1.1678,-1.1368,-1.1074,-1.0718,-1.0718,0.0,0.0,0.0,0.0,0.0,0.0,0.0,0.0,0.0,-1.3266,-1.3834,-1.4971,-1.582,-1.6353,-1.6694,-1.72,-1.7645,-1.7711,-1.7865,-1.803,-1.8084,-1.849,-1.8958,-1.9479,-2.0169,-2.0995,-2.1813,-2.2211,-2.2621,-2.3298,-2.4327,-2.5315,-2.6105,-2.6966,-2.7669,-2.8039,-2.821,-2.821,-2.7921,-2.8,0.0,0.0,0.0,0.0,0.0,0.0,0.0,-2.8881,-2.8994,-2.9058,-2.9149,-2.9226,-2.9503,-2.9928,-2.9361,-2.9428,-3.0064,-2.9412,-2.8686,-2.8066,-2.803,-2.7981,-2.7837,-2.7628,-2.7669,-2.8,-2.7987,-2.8314,-2.878,-2.8881,-2.8994,-2.917,-2.9324,-2.9401,-2.9415,0.0,0.0,0.0,0.0,0.0,0.0,0.0,0.0,0.0,0.0,0.0,0.0,0.0,0.0,0.0,0.0,0.0,0.0,-1.1156,-1.1352,-1.1629,-1.2013,-1.2212,-1.233,-1.233,-1.2365,-1.2294,-1.2138,-1.244,-1.2931,-1.3467,-1.3055,-1.2783,-1.2529,-1.2224,-1.2026,-1.1877,-1.1678,-1.1427,-1.1175,-1.1124,-1.1023,0.0,0.0,0.0,0.0,0.0,0.0,0.0,0.0,-1.3446,-1.3997,-1.518,-1.5955,-1.6467,-1.6705,-1.72,-1.7656,-1.7711,-1.7865,-1.803,-1.8084,-1.8767,-1.9492,-1.9776,-2.0694,-2.1691,-2.2518,-2.318,-2.3832,-2.44,-2.5219,-2.589,0.0,-2.6997,-2.7578,-2.7973,-2.8079,-2.8013,-2.7842,0.0,0.0,0.0,0.0,0.0,0.0,0.0,0.0,0.0,-2.856,-2.8624,-2.878,-2.883,-2.8879,-2.8918,-2.8545,-2.8281,-2.81,-2.828,-2.7983,-2.7404,-2.7816,-2.7699,-2.7335,-2.7403,-2.7603,-2.7815,-2.7723,-2.7855,-2.8183,-2.8352,-2.8481,-2.8675,-2.8894,-2.9035,-2.9099,0.0,0.0,0.0,0.0,0.0,0.0,0.0,0.0,0.0,0.0,0.0,0.0,0.0,0.0,0.0,0.0,0.0,0.0,-1.0532,-1.0889,-1.1137,-1.1194,-1.1778,-1.2138,-1.221,-1.233,-1.233,-1.221,-1.2651,-1.3117,-1.3563,-1.3113,-1.2832,-1.2676,-1.2274,-1.2175,-1.2274,-1.1877,-1.1728,-1.1678,-1.1276,-1.1175,0.0,0.0,0.0,0.0,0.0,0.0,0.0,0.0,-1.3475,-1.4336,-1.4989,-1.5813,-1.6627,-1.6751,-1.7145,-1.7523,-1.7656,-1.781,-1.7963,-1.8084,-1.9146,-2.0263,-2.0367,-2.1195,-2.2228,-2.3242,-2.4283,-2.5035,-2.5022,-2.5322,-2.5831,-2.6569,-2.6674,-2.6935,-2.7696,-2.8,-2.8,0.0,0.0,0.0,0.0,0.0,0.0,0.0,0.0,0.0,0.0,-2.8,-2.8079,-2.8079,-2.8249,-2.7973,-2.7281,-2.7255,-2.6837,-2.6164,-2.6233,-2.6659,-2.7596,-2.7199,-2.7024,-2.7024,-2.7214,-2.7281,-2.7268,-2.7268,-2.7255,-2.7229,-2.739,-2.7842,-2.8287,-2.8509,-2.878,-2.9035,0.0,0.0,0.0,0.0,0.0,0.0,0.0,0.0,0.0,0.0,0.0,0.0,0.0,0.0,0.0,0.0,0.0,0.0,-0.9875,-1.0294,-1.0721,-1.1126,-1.1646,-1.1979,-1.1979,-1.2113,-1.2298,-1.2541,-1.2788,-1.2947,-1.3088,-1.3002,-1.292,-1.2832,-1.2627,-1.2529,-1.2578,-1.2421,-1.2224,-1.1977,-1.1728,-1.1569,0.0,0.0,0.0,0.0,0.0,0.0,0.0,0.0,0.0,0.0,-1.5226,-1.5873,-1.6316,-1.6802,-1.7245,-1.7656,-1.7711,-1.7986,-1.834,-1.8753,-1.9516,-2.0334,-2.109,-2.2441,-2.3946,-2.5184,-2.563,-2.5616,-2.5222,-2.5494,0.0,-2.6046,-2.6412,-2.6935,-2.7696,-2.7511,0.0,0.0,0.0,0.0,0.0,0.0,0.0,0.0,0.0,0.0,0.0,-2.7669,-2.7736,-2.7855,-2.8465,-2.8328,-2.7449,-2.7959,-2.7523,-2.6153,-2.6308,-2.647,-2.6747,-2.7196,-2.7245,-2.7062,-2.7831,-2.7798,-2.7079,-2.693,-2.6782,-2.6688,-2.704,-2.7242,-2.743,-2.7723,-2.7987,-2.8183,0.0,0.0,0.0,0.0,0.0,0.0,0.0,0.0,0.0,0.0,0.0,0.0,0.0,0.0,0.0,0.0,0.0,0.0,0.0,0.0,-1.041,-1.0873,-1.1514,-1.1918,-1.2016,-1.2113,-1.2215,-1.2385,-1.2726,-1.2915,-1.2892,-1.3017,-1.3055,-1.2978,-1.2871,-1.2861,-1.291,-1.2822,-1.2627,-1.2323,-1.2076,-1.1877,-1.1628,0.0,0.0,0.0,0.0,0.0,0.0,0.0,0.0,0.0,-1.5018,-1.5711,-1.6267,-1.6611,-1.7214,-1.7711,-1.7711,-1.8123,-1.8684,-1.9097,-1.983,-2.1009,-2.2797,-2.3872,-2.4622,-2.5287,-2.5853,-2.6012,-2.5355,-2.5616,0.0,-2.5887,-2.6112,-2.6516,-2.7101,-2.6799,0.0,0.0,0.0,0.0,0.0,0.0,0.0,0.0,0.0,0.0,0.0,-2.7131,-2.7315,-2.738,-2.8146,-2.815,-2.7397,-2.7868,-2.7498,-2.6093,-2.6251,-2.6188,-2.6107,-2.6876,-2.7218,-2.7213,-2.7771,-2.7594,-2.6836,-2.6609,-2.6371,-2.6082,-2.644,-2.6701,-2.6905,-2.7188,-2.7443,-2.7656,0.0,0.0,0.0,0.0,0.0,0.0,0.0,0.0,0.0,0.0,0.0,0.0,0.0,0.0,0.0,0.0,0.0,0.0,0.0,0.0,-1.0231,-1.0583,-1.1394,-1.1954,-1.221,-1.221,-1.2102,-1.1909,-1.2571,-1.2893,-1.2875,-1.3138,-1.319,-1.3123,-1.3113,-1.3142,-1.3218,-1.3007,-1.2871,-1.2676,-1.2274,-1.2026,-1.1877,-1.1778,0.0,0.0,0.0,0.0,0.0,0.0,0.0,0.0,-1.4613,-1.541,-1.6224,-1.631,-1.6961,-1.7655,-1.77,-1.835,-1.8965,-1.9157,-2.0299,-2.2068,-2.4833,-2.5117,-2.4697,-2.4485,-2.5435,-2.6121,-2.5535,-2.5686,-2.5919,-2.5919,-2.5808,-2.5883,-2.6233,-2.6131,0.0,0.0,0.0,0.0,0.0,0.0,0.0,0.0,0.0,0.0,0.0,-2.6488,-2.6803,-2.6674,-2.7394,-2.7608,-2.7085,-2.7352,-2.6996,-2.6033,-2.6021,-2.5853,-2.563,-2.6369,-2.7103,-2.7631,-2.7267,-2.6959,-2.6746,-2.6342,-2.5955,-2.5606,-2.5758,-2.6176,-2.6645,-2.6837,-2.7121,-2.7456,0.0,0.0,0.0,0.0,0.0,0.0,0.0,0.0,0.0,0.0,0.0,0.0,0.0,0.0,0.0,0.0,0.0,0.0,0.0,0.0,-1.0578,-1.0756,-1.1563,-1.2077,-1.221,-1.221,-1.2102,-1.1909,-1.2571,-1.2786,-1.2527,-1.3191,-1.3525,-1.3478,-1.3583,-1.3573,-1.3515,-1.3382,-1.3104,-1.2832,-1.2431,-1.2175,-1.2026,-1.1927,-1.1927,0.0,0.0,0.0,0.0,0.0,0.0,0.0,-1.4731,-1.5098,-1.5513,-1.6444,-1.6891,-1.7261,-1.7752,-1.8573,-1.9409,-1.9865,-2.133,-2.3042,-2.4238,-2.4892,-2.5595,-2.6714,-2.6727,-2.6331,-2.5535,-2.5475,-2.5448,-2.5266,-2.5387,-2.5654,-2.6228,0.0,0.0,0.0,0.0,0.0,0.0,0.0,0.0,0.0,0.0,0.0,-2.5824,-2.6424,-2.6661,-2.6453,-2.7494,-2.7528,-2.6407,-2.7254,-2.6894,0.0,-2.5409,-2.542,-2.5407,-2.6591,-2.7714,-2.8688,-2.7086,-2.6705,-2.7029,-2.6304,-2.5746,-2.5382,-2.5606,-2.5828,-2.6119,-2.6327,-2.6589,-2.685,0.0,0.0,0.0,0.0,0.0,0.0,0.0,0.0,0.0,0.0,0.0,0.0,0.0,0.0,0.0,0.0,0.0,0.0,0.0,0.0,-1.0772,-1.1286,-1.1856,-1.221,-1.2354,-1.233,-1.221,-1.1993,-1.2662,-1.2816,-1.251,-1.3472,-1.3847,-1.3821,-1.401,-1.3999,-1.3847,-1.3668,-1.3382,-1.2997,-1.2725,-1.248,-1.2274,-1.2224,-1.2323,-1.2529,-1.2774,0.0,0.0,0.0,0.0,0.0,0.0,0.0,-1.5105,-1.5716,-1.6229,-1.6766,-1.7474,-1.8487,-1.9606,-2.1032,-2.2355,-2.3577,-2.4381,-2.4949,-2.5615,-2.6533,-2.6472,-2.608,-2.5356,-2.519,-2.5074,-2.4957,-2.4957,-2.5181,-2.5534,0.0,0.0,0.0,0.0,0.0,0.0,0.0,0.0,0.0,0.0,-2.5572,-2.5547,-2.6168,-2.6401,-2.6114,-2.6879,-2.6898,-2.6184,-2.6675,-2.6457,-2.542,-2.5276,-2.4917,-2.4611,-2.5995,-2.7197,-2.7977,-2.6906,-2.6539,-2.6602,-2.6088,-2.5676,-2.5312,-2.5382,-2.5606,-2.5758,-2.584,-2.6119,-2.6465,0.0,0.0,0.0,0.0,0.0,0.0,0.0,0.0,0.0,0.0,0.0,0.0,0.0,0.0,0.0,0.0,0.0,0.0,0.0,-1.0814,-1.1075,-1.1898,-1.2126,-1.2318,-1.2508,-1.2437,-1.2294,-1.2113,-1.2704,-1.2951,-1.2957,-1.3868,-1.4233,-1.4114,-1.4384,-1.4408,-1.4269,-1.3999,-1.3658,-1.3324,-1.3055,-1.2813,-1.2618,-1.2627,-1.2725,-1.2929,-1.3007,-1.319,-1.342,-1.3668,0.0,0.0,0.0,0.0,-1.479,-1.4876,-1.5477,-1.6199,-1.7003,-1.8263,-1.9915,-2.2172,-2.3229,-2.3948,-2.4831,-2.5123,-2.5249,-2.5579,-2.577,-2.571,-2.5057,-2.4892,-2.4835,-2.4778,-2.4734,-2.4677,0.0,0.0,0.0,0.0,0.0,0.0,0.0,0.0,0.0,0.0,0.0,-2.488,-2.514,-2.5858,-2.6074,-2.5785,-2.599,-2.6033,-2.5829,-2.5841,-2.578,-2.5418,-2.4904,-2.426,-2.3492,-2.4763,-2.5862,-2.6617,-2.6433,-2.6323,-2.613,-2.5978,-2.5676,-2.5382,-2.5312,-2.5382,-2.5606,-2.5606,-2.5828,-2.6201,0.0,0.0,0.0,0.0,0.0,0.0,0.0,0.0,0.0,0.0,-1.2965,-1.2627,-1.2246,-1.1957,0.0,0.0,0.0,0.0,-1.1082,0.0,0.0,-1.2066,-1.2318,-1.2473,-1.2508,-1.2437,-1.233,-1.221,-1.2384,-1.3073,-1.4238,-1.4451,-1.4569,-1.4616,-1.4777,-1.4777,-1.4605,-1.4269,-1.4046,-1.3868,-1.3372,-1.3122,-1.3074,-1.3007,-1.292,-1.2929,-1.3132,-1.3266,-1.342,-1.3563,-1.3773,0.0,0.0,0.0,-1.4238,-1.4888,-1.5235,-1.5575,-1.6316,-1.8225,-2.052,-2.2721,-2.3751,-2.4392,-2.5177,-2.5146,-2.5104,-2.5381,-2.5724,-2.571,-2.4943,-2.4892,-2.4892,-2.4677,-2.4778,-2.4892,0.0,0.0,0.0,0.0,0.0,0.0,0.0,0.0,0.0,0.0,-2.4566,-2.5012,-2.4651,-2.5151,-2.5519,-2.5598,-2.5359,-2.4979,-2.4539,-2.4992,-2.4838,-2.3968,-2.3532,-2.2987,-2.2316,-2.2349,-2.3553,-2.5612,-2.5361,-2.5673,-2.636,-2.6061,-2.5758,-2.5535,-2.5382,-2.5382,-2.5606,-2.5606,-2.5758,-2.598,0.0,0.0,0.0,0.0,0.0,0.0,0.0,0.0,0.0,0.0,0.0,-1.2685,-1.2389,-1.2138,0.0,0.0,0.0,0.0,-1.1309,-1.1612,0.0,0.0,-1.2401,-1.2508,-1.2508,-1.2437,-1.233,-1.2138,-1.2753,-1.3586,-1.4576,-1.5256,-1.5579,-1.5614,-1.5359,-1.5096,-1.4926,-1.4686,-1.4455,-1.4197,-1.381,-1.3621,-1.3515,-1.3276,-1.319,-1.319,-1.3218,-1.3266,-1.3314,-1.3362,-1.3467,-1.3563,-1.3621,0.0,0.0,0.0,-1.4701,-1.5303,-1.6988,-1.8709,-2.0439,-2.2056,-2.3158,-2.394,-2.4262,-2.461,-2.4916,-2.5114,-2.5283,-2.5317,-2.4946,-2.4948,-2.4948,-2.4835,-2.4892,0.0,0.0,0.0,0.0,0.0,0.0,0.0,0.0,0.0,0.0,0.0,-2.4122,-2.462,-2.4913,-2.5247,-2.5448,-2.5436,-2.518,-2.4838,-2.4578,-2.4732,-2.4218,-2.3112,-2.2882,-2.2266,-2.1392,-2.1647,-2.2473,-2.3661,-2.4132,-2.4637,-2.5145,-2.5441,-2.5606,-2.5606,-2.5382,-2.5382,-2.5453,-2.5453,-2.5535,-2.5758,0.0,0.0,0.0,0.0,0.0,0.0,0.0,0.0,0.0,0.0,0.0,0.0,-1.2579,0.0,0.0,0.0,0.0,0.0,-1.1586,0.0,0.0,0.0,0.0,-1.2544,-1.2508,-1.2437,-1.2294,-1.2138,-1.2961,-1.3842,-1.4735,-1.548,-1.6149,-1.6598,-1.6114,-1.574,-1.5429,-1.5292,-1.4993,-1.4616,-1.4291,-1.4215,-1.418,-1.3845,-1.3762,-1.3736,-1.3419,-1.3292,-1.3282,-1.3123,-1.3132,-1.317,-1.3372,-1.3515,0.0,0.0,0.0,-1.5256,-1.7472,-1.8834,-1.9927,-2.126,-2.2402,-2.3297,-2.3577,-2.4227,-2.4829,0.0,-2.5075,-2.5077,-2.4871,-2.4774,-2.4774,-2.4844,-2.483,0.0,0.0,0.0,0.0,0.0,0.0,0.0,0.0,0.0,0.0,0.0,-2.3797,-2.4357,-2.5071,-2.5252,-2.5324,-2.5241,-2.4874,-2.4683,-2.4646,-2.4345,-2.3751,-2.2777,-2.2402,-2.1709,-2.0839,-2.1251,-2.1544,-2.1779,-2.2969,-2.3677,-2.4198,-2.4869,-2.5402,-2.5816,-2.5523,-2.5453,-2.5465,-2.5312,-2.5382,-2.5535,0.0,0.0,0.0,0.0,0.0,0.0,0.0,0.0,0.0,0.0,0.0,0.0,-1.2709,-1.252,-1.2222,-1.1811,0.0,0.0,0.0,0.0,0.0,0.0,0.0,0.0,-1.2508,-1.2437,-1.233,-1.221,-1.2579,-1.3518,-1.4959,-1.4763,-1.5697,-1.7496,-1.7219,-1.6836,-1.6326,-1.6115,-1.5753,-1.5222,-1.48,-1.4976,-1.5352,-1.4827,-1.4744,-1.478,-1.383,-1.3498,-1.3408,-1.2909,-1.2861,-1.3055,-1.3324,-1.3515,-1.3668,0.0,0.0,0.0,-1.7024,-1.8012,-1.9008,-2.0868,-2.188,-2.2726,-2.3825,-2.434,-2.4695,-2.4953,-2.5257,-2.526,-2.4491,-2.4218,-2.4164,-2.4327,-2.4327,0.0,0.0,0.0,0.0,0.0,0.0,0.0,0.0,0.0,0.0,0.0,-2.3673,-2.4381,-2.4554,-2.4567,-2.4694,-2.5016,-2.4311,-2.4043,-2.42,-2.3666,-2.3224,-2.3001,-2.2025,-2.1267,-2.0754,-2.0626,-2.052,-2.0594,-2.1836,-2.3115,-2.4288,-2.453,-2.5326,-2.6358,-2.6037,-2.584,-2.5828,-2.5465,-2.5312,-2.5312,0.0,0.0,0.0,0.0,0.0,0.0,0.0,0.0,0.0,0.0,0.0,0.0,0.0,-1.2615,-1.233,-1.2029,-1.1771,0.0,0.0,0.0,0.0,0.0,0.0,0.0,0.0,-1.233,-1.2222,-1.2138,-1.2632,-1.3614,-1.5013,-1.5231,-1.6118,-1.7569,-1.7051,-1.6645,-1.6408,-1.6326,-1.595,-1.5414,-1.5568,-1.5658,-1.5745,-1.5742,-1.559,-1.5337,-1.4894,-1.4424,-1.3981,-1.3784,-1.347,-1.3221,-1.3521,-1.3518,-1.361,-1.4326,-1.4971,-1.5721,-1.6917,-1.7579,-1.8137,-1.9449,-2.0743,-2.1808,-2.2227,-2.3139,-2.3925,-2.4039,-2.4094,-2.4079,-2.3806,-2.408,-2.4271,-2.3925,0.0,0.0,0.0,0.0,0.0,0.0,0.0,0.0,0.0,0.0,0.0,0.0,0.0,-2.2919,-2.2685,-2.2971,-2.3283,-2.3548,-2.3352,-2.3303,-2.3315,-2.3058,-2.2628,-2.2035,-2.1436,-2.1125,-2.104,-2.0964,-2.0937,-2.0876,-2.1188,-2.197,-2.3033,-2.3618,-2.4471,-2.5358,-2.5453,-2.5535,-2.5535,-2.5382,-2.5312,-2.5312,0.0,0.0,0.0,0.0,0.0,0.0,0.0,0.0,0.0,-1.3301,0.0,0.0,0.0,0.0,-1.2365,-1.2052,-1.1856,-1.1856,-1.2113,-1.2174,0.0,0.0,0.0,0.0,-1.233,-1.2246,-1.2174,-1.2113,-1.2718,-1.3439,-1.4334,-1.5033,-1.5951,-1.6965,-1.6644,-1.6525,-1.6467,-1.6513,-1.631,-1.5978,-1.6162,-1.6408,-1.6613,-1.6497,-1.618,-1.5766,-1.5375,-1.4723,-1.4053,-1.4062,-1.3772,-1.3389,-1.3606,-1.3699,-1.3894,-1.4605,-1.5244,-1.5852,-1.6752,-1.7194,-1.7586,-1.8461,-1.9548,-2.055,-2.1205,-2.216,-2.3008,-2.3458,-2.3578,-2.3523,-2.3279,-2.3723,-2.3965,-2.346,0.0,0.0,0.0,0.0,0.0,0.0,0.0,0.0,0.0,0.0,0.0,0.0,0.0,0.0,-2.1815,-2.2125,-2.2411,-2.2605,-2.2821,-2.2754,-2.2503,-2.2357,-2.1871,-2.1128,-2.0762,-2.0611,-2.0828,-2.0828,-2.0815,-2.0886,-2.074,-2.1311,-2.2384,-2.3117,-2.3979,-2.4783,-2.5308,-2.5414,-2.5281,-2.531,-2.5312,-2.5312,0.0,0.0,0.0,0.0,0.0,0.0,0.0,0.0,-1.3391,-1.3391,0.0,0.0,0.0,0.0,0.0,-1.1918,-1.1856,-1.1918,-1.2174,-1.221,0.0,0.0,0.0,0.0,-1.221,-1.221,-1.2174,-1.2113,-1.2695,-1.3,-1.3035,-1.4158,-1.5038,-1.5715,-1.617,-1.6443,-1.6606,-1.6745,-1.6791,-1.6791,-1.6688,-1.7183,-1.7922,-1.7078,-1.6557,-1.6218,-1.5264,-1.4375,-1.369,-1.3669,-1.3624,-1.353,-1.3662,-1.4042,-1.4512,-1.4971,-1.5513,-1.6076,0.0,0.0,0.0,-1.8008,-1.8395,-1.9094,-2.0989,-2.1541,-2.1979,-2.3285,-2.3724,-2.3708,-2.2999,-2.3069,-2.318,-2.2888,0.0,0.0,0.0,0.0,0.0,0.0,0.0,0.0,0.0,0.0,0.0,0.0,-2.1929,-2.2134,-2.2149,-2.2103,-2.224,-2.2355,-2.2582,-2.2366,-2.1874,-2.1501,-2.103,-2.0452,-2.0011,-1.9929,-2.0073,-2.0073,-2.0216,-2.042,-2.042,-2.1107,-2.2366,-2.3063,-2.3943,-2.4843,-2.558,-2.561,-2.5283,-2.5305,-2.5288,-2.5288,0.0,0.0,0.0,0.0,0.0,-1.3141,-1.3232,-1.3323,-1.3357,0.0,0.0,0.0,-1.2615,-1.2246,-1.1968,-1.1918,-1.1856,-1.1918,-1.2174,-1.221,-1.2282,-1.2401,-1.233,-1.2246,-1.221,-1.2138,-1.2113,-1.2113,-1.2263,-1.2554,-1.3035,-1.3726,-1.4434,-1.5136,-1.5647,-1.6008,-1.6199,-1.6633,-1.6849,-1.699,-1.7193,-1.7616,-1.8009,-1.7771,-1.7378,-1.6909,-1.6455,-1.5756,-1.5096,-1.5131,-1.4718,-1.4098,-1.3965,-1.4118,-1.4512,-1.4971,-1.5513,-1.6076,-1.6423,0.0,0.0,0.0,0.0,0.0,0.0,0.0,-2.0273,-2.1348,-2.1688,-2.1741,-2.162,-2.2002,-2.2155,-2.1429,0.0,0.0,0.0,0.0,0.0,0.0,0.0,0.0,0.0,0.0,0.0,0.0,-2.0545,-2.085,-2.0322,-2.0676,-2.1006,-2.1138,-2.1686,-2.1531,-2.0578,-2.0898,-2.0655,-1.9815,-1.9753,-1.9805,-2.0073,-1.9929,-2.0073,-2.042,-2.0288,-2.0505,-2.1125,-2.2023,-2.311,-2.4198,-2.453,-2.4932,-2.5301,-2.5166,-2.5078,-2.5078,0.0,0.0,0.0,-1.3238,-1.343,-1.3624,-1.3921,-1.3982,-1.391,0.0,0.0,0.0,-1.2948,-1.2363,-1.2099,-1.2137,-1.1931,-1.1881,-1.2066,-1.2066,-1.2113,-1.2186,-1.2113,-1.2077,-1.2077,-1.2077,-1.2113,-1.2113,-1.2113,-1.2263,-1.2623,-1.3182,-1.3784,-1.4452,-1.5014,-1.5533,-1.6013,-1.6374,-1.6867,-1.7449,-1.7592,-1.798,-1.837,-1.8043,-1.7433,-1.6739,-1.6589,-1.5888,-1.514,-1.5495,-1.5159,-1.452,-1.4367,-1.4411,-1.4624,-1.4983,-1.5468,-1.6001,-1.6349,-1.6778,-1.7086,-1.7225,0.0,0.0,-1.8213,-1.8817,-1.944,0.0,-2.0489,-2.0735,-2.0279,-2.0617,-2.0726,-1.9959,0.0,0.0,0.0,0.0,0.0,0.0,0.0,0.0,0.0,-2.1124,-2.1091,-1.9536,-2.0251,-2.0453,-1.9813,-2.0129,-2.0399,-2.054,-2.0872,-2.061,-1.9739,-2.006,-1.9792,-1.9052,-1.9123,-1.9254,-1.9583,-1.9454,-1.9583,-1.9872,-1.9928,-2.0159,-2.0632,-2.1453,-2.2422,-2.3443,-2.428,-2.4801,-2.5112,-2.5123,-2.4994,-2.4863,0.0,0.0,-1.3044,-1.3791,-1.4024,-1.4311,-1.4904,-1.4877,-1.4773,0.0,-1.4341,-1.39,-1.341,-1.2803,-1.2434,-1.2458,-1.2106,-1.1864,-1.1884,-1.1906,-1.1906,-1.1872,-1.1906,-1.1881,-1.1881,-1.2052,-1.2113,-1.2113,-1.2113,-1.2113,-1.2125,-1.2655,-1.3212,-1.3842,-1.4427,-1.5203,-1.6001,-1.6144,-1.686,-1.7989,-1.7858,-1.8336,-1.9018,-1.8075,-1.7143,-1.628,-1.6162,-1.5405,-1.458,-1.5268,-1.5195,-1.4866,-1.4815,-1.4831,-1.4904,-1.5106,-1.5506,-1.5953,-1.6287,-1.6607,-1.6876,-1.6918,-1.7031,0.0,-1.7839,-1.8495,-1.898,0.0,-1.9777,-2.0207,-1.9125,-1.9208,-1.9221,0.0,0.0,0.0,0.0,0.0,0.0,0.0,0.0,0.0,-2.0618,-2.1096,-2.095,-2.0065,-2.0511,-2.0658,-2.0151,-2.0118,-2.0183,-2.0335,-2.0183,-1.9835,-1.9309,-1.9131,-1.8808,-1.8269,-1.8414,-1.8607,-1.8741,-1.8808,-1.8875,-1.9096,-1.951,-2.0055,-2.054,-2.1029,-2.1812,-2.2886,-2.434,-2.4781,-2.4718,-2.5062,-2.4925,-2.463,0.0,-1.2803,-1.3115,-1.3791,-1.4024,-1.4274,-1.4828,-1.4799,-1.4644,-1.4487,-1.3836,-1.3305,-1.3026,-1.2813,-1.2606,-1.2283,-1.2291,-1.2157,-1.1841,-1.1819,-1.1819,-1.1808,-1.1881,-1.1881,-1.1881,-1.2052,-1.2113,-1.2113,-1.2113,-1.2113,-1.2125,-1.2655,-1.3212,-1.3842,-1.4427,-1.5116,-1.5836,-1.6001,-1.6757,-1.7858,-1.781,-1.8657,-1.9764,-1.8476,-1.7809,-1.7441,-1.6699,-1.612,-1.5619,-1.5519,-1.5319,-1.5177,-1.5312,-1.5386,-1.5473,-1.5471,-1.5893,-1.6262,-1.611,-1.6262,-1.6522,-1.6565,-1.6607,0.0,-1.6931,-1.7089,-1.7424,0.0,-1.8605,-1.8745,-1.8625,-1.8853,-1.8845,0.0,0.0,0.0,0.0,0.0,0.0,0.0,0.0,0.0,-1.9868,-2.0568,-2.0748,-1.9901,-2.0274,-2.0399,-2.0074,-2.0074,-2.014,-2.0151,-2.0009,-1.966,-1.9131,-1.8931,-1.8674,-1.8269,-1.8337,-1.8414,-1.8549,-1.8741,-1.8808,-1.8875,-1.9101,-1.9557,-2.0064,-2.0542,-2.1654,-2.3123,-2.3281,-2.3667,-2.4167,-2.4331,-2.4356,-2.4255,-1.2885,-1.299,-1.3256,-1.3912,-1.4311,-1.4727,-1.523,-1.5315,-1.524,-1.4989,-1.4296,-1.374,-1.3564,-1.327,-1.299,-1.288,-1.2724,-1.2454,-1.2009,-1.2063,-1.1952,-1.1645,-1.1782,-1.1856,-1.1856,-1.2016,-1.2113,-1.2113,-1.2113,-1.2113,-1.2113,-1.239,-1.2919,-1.3738,-1.4075,-1.4794,-1.5647,-1.578,-1.6587,-1.7702,-1.7714,-1.8458,-1.9426,-1.8316,-1.7554,-1.7007,-1.6283,-1.5687,-1.5323,-1.4998,-1.5051,-1.5228,-1.5235,-1.5571,-1.5983,-1.5986,-1.6282,-1.6573,-1.6597,-1.6563,-1.6536,-1.6638,-1.6516,0.0,0.0,-1.6748,-1.7068,-1.713,-1.7591,-1.7795,-1.7268,0.0,-1.7517,0.0,0.0,0.0,0.0,0.0,0.0,0.0,0.0,0.0,-1.9256,-1.9756,-1.996,-1.9701,-1.9975,-2.0161,-2.0098,-2.0023,-1.9832,-1.9383,-1.8966,-1.8635,-1.8405,-1.8075,-1.7984,-1.8144,-1.8144,-1.8212,-1.8414,-1.8472,-1.8607,-1.8674,-1.9142,-1.966,-2.0183,-2.0752,-2.1678,-2.2759,-2.3195,-2.3617,-2.4054,-2.4289,-2.4234,-2.4064,-1.3129,-1.3198,-1.343,-1.408,-1.4651,-1.517,-1.5618,-1.5862,-1.5856,-1.5424,-1.4834,-1.4326,-1.4186,-1.3715,-1.3459,-1.3463,-1.3184,-1.2824,-1.2374,-1.2344,-1.2168,-1.1806,-1.1771,-1.1827,-1.1916,-1.2062,-1.2113,-1.2113,-1.215,-1.215,-1.2113,-1.2113,-1.2655,-1.3593,-1.3726,-1.4378,-1.5424,-1.557,-1.6286,-1.7243,-1.7327,-1.8008,-1.8917,-1.7967,-1.7127,-1.6321,-1.5609,-1.5097,-1.4698,-1.4507,-1.4782,-1.5289,-1.5234,-1.5745,-1.6429,-1.6501,-1.6722,-1.6838,-1.6889,-1.6669,-1.6501,-1.6522,-1.6308,-1.6113,0.0,0.0,0.0,-1.6174,-1.6754,0.0,0.0,0.0,0.0,0.0,0.0,0.0,0.0,0.0,0.0,0.0,0.0,0.0,0.0,-1.8827,-1.909,-1.9431,-1.9749,-1.9896,-1.9969,-1.9896,-1.9511,-1.8691,-1.7947,-1.7529,-1.7506,-1.7171,-1.7214,-1.7696,-1.7764,-1.787,-1.815,-1.814,-1.8257,-1.8482,-1.9142,-1.9726,-2.0355,-2.0944,-2.1526,-2.2234,-2.3207,-2.3629,-2.3766,-2.4185,-2.4086,-2.3832,-1.3391,-1.3357,-1.3569,-1.4187,-1.4688,-1.517,-1.5618,-1.5862,-1.5768,-1.504,-1.464,-1.4291,-1.4067,-1.3967,-1.3765,-1.335,-1.3398,-1.326,-1.2846,-1.2451,-1.2374,-1.2715,-1.2125,-1.1983,-1.2396,-1.2258,-1.221,-1.221,-1.2294,-1.2294,-1.221,-1.221,-1.2681,-1.3593,-1.3726,-1.4294,-1.5153,-1.5424,-1.5648,-1.5957,-1.6295,-1.7514,-1.895,-1.7868,-1.7241,-1.672,-1.5451,-1.482,-1.4741,0.0,-1.507,-1.5444,-1.6158,-1.657,-1.6804,-1.7039,-1.7092,-1.6888,-1.6041,-1.5948,-1.5986,-1.5555,-1.5617,-1.576,-1.5836,0.0,-1.6162,-1.6156,0.0,0.0,0.0,0.0,0.0,0.0,0.0,0.0,0.0,0.0,0.0,0.0,0.0,0.0,0.0,-1.7915,-1.8329,-1.8933,-1.9566,-1.9772,-1.9482,-1.9607,-1.9408,-1.8691,-1.7947,-1.7314,-1.6914,-1.667,-1.6625,-1.6683,-1.6811,-1.708,-1.7517,-1.7629,-1.7903,-1.8337,-1.8549,-1.9198,-2.0161,-2.0226,-2.088,-2.1999,-2.2555,-2.2837,-2.2898,-2.3371,-2.3573,-2.3628,-1.3581,-1.3514,-1.3591,-1.3869,-1.4264,-1.4727,-1.5141,-1.5368,-1.5334,-1.4891,-1.443,-1.4114,-1.402,-1.3868,-1.3737,-1.3687,-1.3768,-1.3667,-1.3358,-1.3183,-1.303,-1.29,-1.2682,-1.2547,-1.2485,-1.2541,-1.2438,-1.221,-1.233,-1.2365,-1.233,-1.2634,-1.3135,-1.3778,-1.4069,-1.4635,-1.5404,-1.5556,-1.5593,-1.5531,-1.5886,-1.6278,-1.6725,-1.6728,-1.6246,-1.5392,-1.4418,-1.4053,-1.3999,0.0,-1.4453,0.0,0.0,0.0,-1.6358,-1.6597,-1.6775,-1.6798,-1.6151,-1.5947,-1.586,-1.5482,0.0,0.0,-1.5614,0.0,-1.5836,0.0,0.0,0.0,0.0,0.0,0.0,0.0,-1.6392,0.0,0.0,0.0,0.0,0.0,0.0,0.0,0.0,0.0,0.0,0.0,-1.8442,-1.8913,-1.9205,-1.9141,-1.8868,-1.8342,-1.7164,-1.6507,-1.64,-1.5913,-1.5848,-1.6201,-1.6265,-1.6424,-1.6596,-1.6854,-1.708,-1.7275,-1.8102,-1.8856,-1.965,-2.032,-2.1031,-2.1812,-2.2259,-2.2432,-2.2555,-2.2969,-2.309,-2.3017,-1.3828,-1.3728,-1.3695,-1.3661,-1.4024,-1.4422,-1.4807,-1.4979,-1.5028,-1.4776,-1.4348,-1.401,-1.3962,-1.3821,-1.3773,-1.3973,-1.401,-1.4011,-1.3903,-1.3761,-1.3587,-1.3249,-1.3169,-1.2999,-1.2847,-1.2867,-1.2739,-1.2456,-1.2484,-1.2556,-1.2661,-1.304,-1.3533,-1.4111,-1.439,-1.4821,-1.5412,-1.5434,-1.5328,-1.5141,-1.5319,-1.5269,-1.5027,-1.5561,-1.5216,-1.441,-1.3752,-1.3571,-1.37,-1.3761,-1.401,0.0,-1.4824,-1.5284,-1.5748,-1.614,-1.6322,-1.6363,-1.6048,0.0,0.0,0.0,0.0,0.0,0.0,0.0,0.0,0.0,0.0,0.0,0.0,0.0,-1.6275,-1.6392,0.0,-1.6479,0.0,0.0,0.0,0.0,0.0,0.0,0.0,0.0,0.0,0.0,0.0,-1.7935,-1.8427,-1.8605,-1.8357,-1.7746,-1.6693,-1.6038,-1.5879,-1.5285,-1.5189,-1.5591,-1.5663,-1.572,-1.5832,-1.6166,-1.636,-1.6548,-1.7671,-1.8512,-1.9167,-2.0161,-2.0968,-2.1624,-2.1937,-2.2123,-2.2297,-2.2665,-2.2787,-2.2714,-1.4203,-1.4007,-1.3888,-1.3821,-1.4072,-1.4437,-1.4904,-1.504,-1.4983,-1.4673,-1.4373,-1.4082,-1.3821,-1.3915,-1.3973,-1.402,-1.414,-1.4269,-1.4351,-1.3936,-1.3837,-1.4157,-1.3488,-1.3319,-1.3751,-1.3271,-1.3,-1.3053,-1.2818,-1.289,-1.3257,-1.3281,-1.38,-1.4669,-1.4541,-1.467,-1.4926,-1.4811,-1.4631,-1.4526,-1.4447,-1.4658,-1.4951,0.0,-1.4359,-1.441,-1.3752,0.0,0.0,-1.389,-1.4121,0.0,0.0,0.0,0.0,0.0,0.0,0.0,0.0,0.0,0.0,-1.4668,0.0,0.0,0.0,0.0,-1.5402,0.0,0.0,0.0,0.0,-1.6219,-1.6392,-1.6392,-1.6479,0.0,0.0,0.0,0.0,0.0,0.0,0.0,0.0,0.0,0.0,0.0,0.0,0.0,-1.686,-1.7927,-1.8087,-1.7176,-1.6907,-1.6267,-1.5254,-1.4902,-1.4675,-1.4575,-1.4693,-1.4958,-1.5411,-1.5727,-1.6081,-1.6538,-1.7159,-1.802,-1.8924,-1.946,-2.0313,-2.1463,-2.1624,-2.1824,-2.1987,-2.2494,-2.28,-2.2848,-1.43,-1.4072,-1.3841,-1.3695,-1.3681,-1.3824,-1.4173,-1.4633,-1.4869,-1.4523,-1.4326,-1.4093,-1.3821,-1.3915,-1.402,-1.402,-1.4291,-1.4523,-1.4605,-1.4699,-1.4677,-1.4466,-1.4328,-1.4116,-1.3696,-1.371,-1.3673,-1.3488,-1.3572,-1.3739,-1.3985,-1.4305,-1.4571,-1.4886,-1.5188,-1.5357,-1.5461,-1.533,-1.5137,-1.4924,-1.4503,-1.4288,-1.4249,0.0,0.0,-1.4469,-1.4121,-1.3881,0.0,-1.3769,-1.3821,-1.3932,-1.4291,-1.4469,-1.4588,-1.4932,-1.5118,0.0,0.0,0.0,-1.4612,-1.4417,0.0,0.0,0.0,0.0,0.0,0.0,0.0,0.0,0.0,-1.6296,-1.6221,-1.6249,-1.6362,-1.6436,0.0,0.0,0.0,0.0,0.0,0.0,0.0,0.0,0.0,0.0,-1.5192,0.0,0.0,-1.6581,-1.6884,-1.7349,-1.6364,-1.5801,-1.5642,-1.4706,-1.4181,-1.4181,-1.4249,-1.4312,-1.4508,-1.487,-1.5355,-1.5809,-1.6507,-1.7613,-1.8866,-1.9379,-2.025,-2.1273,-2.1411,-2.1612,-2.1812,-2.2185,-2.2309,-2.2235,-1.4406,-1.4213,-1.4023,-1.362,-1.3639,-1.3791,-1.4017,-1.4513,-1.4777,-1.4419,-1.4233,-1.4046,-1.381,-1.3962,-1.4057,-1.402,-1.443,-1.4662,-1.4616,-1.4891,-1.4891,-1.4477,-1.4593,-1.4404,-1.388,-1.3961,-1.3976,-1.3898,-1.393,-1.4144,-1.4509,-1.4803,-1.5066,-1.5301,-1.556,-1.5668,-1.5613,-1.5319,-1.5126,-1.4944,-1.4383,-1.4141,0.0,0.0,-1.4478,-1.4359,0.0,-1.3881,-1.3761,-1.37,-1.364,-1.3631,-1.3761,-1.3881,-1.4001,-1.424,-1.4488,-1.4728,-1.4678,-1.4576,0.0,-1.4435,-1.4348,0.0,-1.4548,0.0,-1.5022,0.0,0.0,0.0,0.0,-1.6033,-1.5936,-1.5973,-1.6132,-1.6262,0.0,-1.5957,0.0,0.0,0.0,-1.5074,0.0,-1.4488,-1.4279,-1.4251,-1.4281,0.0,0.0,0.0,-1.6167,-1.6979,-1.6165,-1.5742,-1.5642,-1.4597,-1.401,-1.395,-1.395,-1.395,-1.401,-1.4597,-1.5059,-1.543,-1.6341,-1.7465,-1.8819,-1.931,-2.0053,-2.0968,-2.1267,-2.142,-2.149,-2.1939,-2.2061,-2.1999,-1.4501,-1.4491,-1.4378,-1.3698,-1.4001,-1.4337,-1.4464,-1.4742,-1.4777,-1.4419,-1.415,-1.3962,-1.3821,-1.4046,-1.414,-1.3973,-1.4547,-1.4731,-1.4419,-1.4616,-1.4558,-1.4222,-1.4244,-1.4302,-1.4373,-1.4059,-1.4038,-1.431,-1.3944,-1.4163,-1.4922,-1.4922,-1.5238,-1.5792,-1.5715,-1.5537,-1.5267,-1.48,-1.459,-1.452,-1.413,-1.4163,-1.4469,-1.4249,-1.4189,-1.413,-1.3692,-1.3821,-1.413,-1.3631,-1.364,-1.3769,-1.3571,-1.3511,-1.3571,-1.3881,-1.395,-1.3941,-1.4529,-1.4533,-1.4392,-1.4654,0.0,0.0,0.0,0.0,-1.5143,0.0,0.0,0.0,0.0,0.0,-1.5527,-1.5558,-1.5812,-1.5988,-1.5988,-1.5836,-1.5614,0.0,0.0,-1.488,-1.4822,-1.4302,-1.3926,-1.3821,-1.3848,-1.4073,0.0,0.0,-1.5948,-1.6016,-1.6217,-1.594,-1.5177,-1.4538,-1.407,-1.383,-1.383,-1.389,-1.407,-1.4824,-1.5294,-1.5526,-1.6549,-1.7665,-1.8857,-1.9194,-1.9738,-2.0458,-2.1105,-2.1198,-2.1042,-2.1673,-2.2061,-2.2197,-1.4701,-1.4678,-1.4649,-1.4621,-1.4646,-1.457,-1.4241,-1.4575,-1.4673,-1.4326,-1.428,-1.415,-1.3821,-1.4046,-1.4082,-1.3716,-1.4291,-1.4616,-1.4419,-1.4891,-1.4891,-1.4373,-1.4901,-1.4829,-1.3962,-1.4708,-1.4887,-1.4518,-1.4753,-1.4975,-1.5203,-1.5381,-1.5584,-1.5715,-1.5715,-1.5626,-1.5424,-1.4846,-1.4395,-1.4028,-1.4063,-1.4096,-1.4121,0.0,-1.389,-1.389,-1.4001,-1.3881,-1.3631,-1.3571,-1.3511,-1.3571,-1.3511,-1.358,-1.3761,-1.383,-1.4061,-1.435,-1.4529,-1.4533,-1.4551,-1.4654,-1.4562,-1.447,0.0,0.0,0.0,0.0,0.0,0.0,0.0,0.0,-1.5426,-1.5268,-1.5603,-1.5836,-1.5836,-1.5703,-1.5468,-1.5244,0.0,0.0,-1.4787,-1.4302,-1.3915,-1.3668,-1.3484,0.0,0.0,0.0,0.0,-1.5279,-1.5313,-1.5243,-1.501,-1.4359,-1.395,-1.383,-1.389,-1.4121,-1.4538,-1.5001,-1.5584,-1.6285,-1.6436,-1.7492,-1.9097,-1.8658,-1.9253,-2.0423,-2.0611,-2.1005,-2.1572,-2.1951,-2.2135,-2.2197,-1.5358,-1.5146,-1.5134,-1.5381,-1.5219,0.0,-1.4473,-1.4631,0.0,-1.4419,-1.4291,-1.415,-1.3999,-1.3999,-1.3952,-1.3763,-1.4186,-1.4384,-1.4244,-1.4558,-1.4547,-1.4093,-1.4736,-1.472,-1.3831,-1.4698,-1.4949,-1.4523,-1.4552,-1.4676,-1.4842,-1.4775,-1.4928,-1.5239,-1.5239,-1.5313,-1.53,-1.458,-1.4063,-1.3803,-1.3727,-1.3781,0.0,-1.37,-1.37,-1.37,-1.3821,-1.3692,-1.3511,-1.3511,-1.3511,-1.3511,-1.3511,-1.3571,-1.37,-1.3769,-1.4001,-1.424,-1.441,-1.4538,-1.4659,-1.4773,-1.4827,-1.4808,-1.4818,-1.4929,-1.5099,0.0,0.0,0.0,0.0,0.0,0.0,-1.5321,-1.5485,-1.5614,-1.5659,-1.5714,-1.559,-1.5131,-1.5084,0.0,0.0,-1.4255,-1.3915,-1.3716,-1.3362,0.0,0.0,0.0,0.0,-1.4664,-1.4743,-1.4666,-1.4478,-1.4189,-1.395,-1.383,-1.395,-1.4189,-1.4547,-1.4883,-1.541,-1.5989,-1.6093,-1.7017,-1.8408,-1.79,-1.8471,-1.9661,-2.0058,-2.0784,-2.1761,-2.1999,-2.2123,-2.2197,-1.612,-1.5775,-1.5706,-1.5959,-1.5659,0.0,0.0,-1.4776,0.0,-1.4581,0.0,-1.4057,-1.4186,-1.3952,-1.3821,-1.3868,-1.4046,-1.4046,-1.3915,-1.3941,-1.3836,-1.3563,-1.4164,-1.4244,-1.3726,-1.4348,-1.4553,-1.428,-1.3869,-1.3817,-1.4102,-1.3709,-1.3875,-1.4441,-1.4584,-1.4769,-1.4903,-1.4115,-1.3772,-1.3758,-1.3331,-1.3429,-1.3769,-1.3571,-1.3511,-1.3511,-1.3511,-1.3511,-1.3511,-1.3511,-1.3511,-1.3511,-1.3511,-1.3511,-1.3571,-1.3769,-1.383,-1.395,-1.4359,-1.4597,-1.4775,-1.4911,-1.5196,-1.5362,-1.5205,-1.5313,-1.541,-1.5362,-1.5298,-1.5199,0.0,0.0,0.0,-1.5541,-1.5451,-1.5383,-1.5611,-1.5812,-1.5776,-1.5257,0.0,0.0,0.0,0.0,0.0,0.0,0.0,0.0,0.0,0.0,0.0,-1.4185,-1.4369,0.0,-1.401,0.0,-1.395,-1.383,-1.395,-1.413,-1.4387,-1.4725,-1.5001,-1.5284,-1.57,-1.6465,-1.7477,-1.7071,-1.7653,-1.8827,-1.9493,-2.0589,-2.1698,-2.1812,-2.1999,-2.2185,-1.6231,-1.6284,-1.628,-1.6175,-1.578,-1.5334,-1.496,-1.4754,-1.4581,-1.4477,-1.428,-1.414,-1.4057,-1.3868,-1.3668,-1.3372,-1.3563,0.0,0.0,-1.3563,-1.361,-1.342,-1.4006,-1.3988,-1.3324,-1.4094,-1.4202,-1.3563,-1.3566,-1.3564,-1.3619,-1.3457,-1.3474,-1.3712,-1.4093,-1.425,-1.4183,-1.38,0.0,-1.3586,-1.334,-1.3429,-1.3769,-1.3571,-1.3511,-1.3511,-1.3511,-1.3511,-1.3511,-1.3511,-1.3511,-1.3511,-1.3511,-1.3631,-1.3769,-1.3769,-1.4019,-1.4207,-1.4327,-1.4616,-1.4911,-1.4775,-1.5059,-1.5362,-1.5205,-1.5313,-1.5362,-1.5264,-1.5313,-1.5253,-1.4834,0.0,0.0,0.0,0.0,0.0,-1.6302,-1.5763,-1.5407,-1.574,-1.4962,-1.446,0.0,0.0,0.0,0.0,0.0,0.0,0.0,0.0,0.0,0.0,-1.3829,0.0,0.0,0.0,-1.401,-1.395,-1.401,-1.4249,-1.4656,-1.4834,-1.5118,-1.5555,-1.5517,-1.6232,-1.7445,-1.6485,-1.7291,-1.9093,-1.9134,-2.0213,-2.1698,-2.1761,-2.1812,-2.1999,-1.6916,-1.6809,-1.665,-1.6392,-1.6044,0.0,0.0,-1.4834,-1.4605,-1.4523,-1.4326,-1.4176,-1.4093,-1.3858,-1.3621,-1.342,-1.3382,-1.3296,-1.3218,-1.3238,-1.32,-1.3152,-1.377,-1.385,-1.3162,-1.3918,-1.4016,-1.342,0.0,-1.2838,-1.2925,-1.2476,-1.2468,-1.2807,-1.3368,-1.3747,0.0,0.0,0.0,-1.3561,-1.3363,-1.3429,-1.364,-1.3511,-1.3511,-1.3511,-1.3511,-1.3511,-1.3511,-1.3511,-1.3511,-1.3511,-1.3511,-1.3571,-1.364,-1.3769,-1.389,-1.4079,-1.4267,-1.4556,-1.4843,-1.4843,-1.5128,-1.5362,-1.5205,-1.5313,-1.5362,-1.5205,-1.5313,-1.5352,-1.5261,-1.5154,0.0,0.0,0.0,0.0,0.0,-1.5412,-1.5355,-1.5556,-1.5397,-1.5066,0.0,0.0,0.0,0.0,0.0,0.0,0.0,0.0,0.0,0.0,0.0,0.0,0.0,0.0,0.0,-1.389,-1.4181,-1.4428,-1.4488,-1.4556,-1.4725,-1.501,-1.4961,-1.5478,-1.6399,-1.654,-1.7132,-1.8056,-1.8717,-1.9764,-2.0966,-2.1213,-2.1637,-2.2061,-1.7528,-1.7267,-1.696,-1.665,-1.6306,-1.5869,-1.5402,-1.496,-1.4674,-1.4523,-1.428,-1.4129,-1.4129,-1.38,-1.3563,-1.3515,-1.3248,-1.3104,-1.3132,-1.3007,-1.2969,-1.3067,-1.3541,-1.3611,-1.3224,-1.365,-1.365,0.0,0.0,0.0,0.0,-1.1831,-1.1801,0.0,0.0,0.0,0.0,0.0,-1.3331,-1.3566,-1.3464,-1.344,-1.3511,-1.3511,-1.3511,-1.3511,-1.3511,-1.3511,-1.3511,-1.3511,-1.3511,-1.3511,-1.3511,-1.3511,-1.3571,-1.3769,-1.383,-1.395,-1.4207,-1.4488,-1.4715,-1.4902,-1.5137,-1.5303,-1.5215,-1.5254,-1.5303,-1.5215,-1.5254,-1.543,-1.5556,-1.5385,0.0,0.0,0.0,0.0,0.0,0.0,-1.5334,-1.5356,-1.5537,-1.5315,-1.4468,0.0,0.0,0.0,0.0,0.0,-1.3218,-1.3174,0.0,0.0,0.0,-1.3322,-1.3451,0.0,-1.4181,0.0,-1.43,-1.4428,-1.4207,-1.4207,-1.4267,-1.4387,-1.4446,-1.4793,-1.542,-1.656,-1.7062,-1.7183,-1.8313,-1.933,-2.0179,-2.0602,-2.1175,-2.18,0.0,-1.7515,0.0,0.0,0.0,0.0,-1.5402,-1.5062,-1.472,-1.4269,-1.3999,-1.3858,-1.3858,-1.3716,-1.3515,-1.3266,-1.3218,-1.3132,-1.292,-1.2929,-1.3106,-1.359,-1.3224,-1.3195,-1.365,-1.3006,-1.2763,0.0,0.0,-1.225,0.0,-1.2401,-1.2487,0.0,0.0,0.0,0.0,-1.3057,-1.3202,-1.3411,-1.345,-1.3476,-1.3511,-1.3511,-1.3511,-1.3511,-1.3511,-1.3511,-1.3511,-1.3511,-1.3511,-1.3511,-1.3511,-1.364,-1.3769,-1.3769,-1.4019,-1.4267,-1.4267,-1.4488,-1.4715,-1.4715,-1.4902,-1.5088,-1.5156,-1.5215,-1.5215,-1.5215,-1.5215,-1.5215,-1.5215,-1.5342,-1.54,0.0,0.0,0.0,0.0,0.0,-1.5039,-1.5502,-1.4461,-1.3721,0.0,-1.3511,0.0,0.0,-1.3314,0.0,-1.3218,-1.2793,-1.2576,-1.2675,0.0,-1.2975,-1.3255,-1.3655,-1.3881,-1.401,-1.395,-1.389,-1.383,-1.383,-1.383,-1.389,-1.4207,-1.4565,-1.5147,-1.6228,-1.7062,-1.777,-1.814,-1.8951,-1.9971,-2.0135,-2.0217,-2.0394,0.0,0.0,0.0,0.0,0.0,0.0,0.0,-1.5006,-1.4547,-1.4222,-1.4186,-1.4046,-1.3716,-1.3716,-1.361,-1.3314,-1.319,-1.3152,-1.319,-1.3017,-1.3008,-1.3333,-1.3067,-1.291,-1.2976,-1.2664,-1.2529,0.0,0.0,-1.2078,-1.2401,-1.2132,0.0,0.0,0.0,-1.2057,-1.2525,-1.2538,-1.267,-1.2807,-1.2897,-1.3038,-1.3185,-1.3067,-1.3152,-1.3354,-1.3224,-1.3216,-1.3216,-1.3216,-1.3338,-1.3511,-1.3407,-1.3415,-1.3536,-1.358,-1.364,-1.3761,-1.401,-1.4189,-1.43,-1.4359,-1.4538,-1.4656,-1.4616,-1.4616,-1.4616,-1.4616,-1.4725,-1.4784,-1.4902,-1.4951,-1.4925,0.0,0.0,0.0,0.0,0.0,-1.4966,-1.4945,-1.4687,-1.4318,-1.3829,0.0,0.0,0.0,0.0,0.0,0.0,0.0,0.0,-1.2464,0.0,-1.2802,-1.3087,-1.3696,-1.395,-1.37,-1.3941,-1.395,-1.383,-1.383,-1.401,-1.4359,-1.4715,-1.5128,-1.572,-1.6343,-1.6857,-1.7256,-1.7699,-1.8396,-1.9241,-1.9653,-2.007,-2.0425,-1.8149,0.0,-1.7556,0.0,-1.6625,-1.6095,-1.5546,-1.496,-1.4501,-1.4186,-1.4233,-1.4093,-1.3621,-1.3621,-1.3573,-1.3334,-1.3162,-1.3123,-1.3238,-1.3017,-1.2988,-1.3263,-1.3047,0.0,-1.2899,-1.2586,-1.2431,-1.2578,-1.2033,-1.194,-1.2224,0.0,0.0,0.0,-1.1597,-1.1633,-1.2053,-1.2061,-1.2172,-1.2334,-1.2444,-1.262,-1.2913,-1.273,-1.2906,-1.318,-1.3111,-1.3111,-1.3111,-1.3103,-1.3277,-1.345,-1.3294,-1.3302,-1.3354,-1.3407,-1.3459,-1.3511,-1.3761,-1.3941,-1.401,-1.413,-1.424,-1.4359,-1.43,-1.4249,-1.4189,-1.4309,-1.4419,-1.4529,-1.4538,-1.4597,-1.4563,-1.4285,0.0,0.0,0.0,-1.473,0.0,-1.4407,-1.4588,-1.4418,-1.3571,-1.3521,0.0,0.0,0.0,0.0,0.0,0.0,0.0,0.0,0.0,0.0,0.0,-1.3576,-1.3821,-1.3511,-1.3821,-1.3881,-1.37,-1.37,-1.4001,-1.4478,-1.4765,-1.5177,-1.57,-1.6218,-1.657,-1.6864,-1.7346,-1.7946,-1.8599,-1.9013,-1.9515,-2.0017,-1.7963,-1.7801,-1.7502,-1.6808,-1.6484,-1.6008,-1.5232,-1.5006,-1.4686,-1.4067,-1.402,-1.3868,-1.3467,-1.342,-1.3334,-1.3123,-1.3085,-1.3036,-1.2929,-1.2881,-1.3116,0.0,0.0,-1.3214,-1.3872,-1.2719,-1.2274,-1.2676,0.0,0.0,-1.2314,0.0,-1.2215,-1.2067,-1.1669,-1.1533,-1.1629,-1.1629,-1.1839,-1.2223,-1.2223,-1.2394,-1.2672,-1.2555,-1.2728,-1.305,-1.3241,-1.3302,-1.3302,-1.3459,-1.3511,-1.345,-1.3103,-1.3216,-1.345,-1.3363,-1.3536,-1.3769,-1.3571,-1.3761,-1.401,-1.401,-1.401,-1.4061,-1.4419,-1.4359,-1.4249,-1.4478,-1.4469,-1.4419,-1.4249,-1.4359,-1.4419,-1.424,0.0,0.0,0.0,-1.5108,0.0,-1.4013,-1.38,-1.3432,-1.2772,-1.2588,0.0,0.0,0.0,0.0,0.0,0.0,0.0,-1.1927,-1.2378,0.0,-1.2398,-1.3134,-1.3511,-1.3511,-1.3511,-1.3511,-1.3511,-1.3511,-1.364,-1.383,-1.413,-1.4419,-1.4765,-1.5584,-1.6285,-1.6818,-1.7078,-1.759,-1.8096,-1.8096,-1.8313,-1.8708,-1.8002,-1.7828,-1.7502,-1.6808,-1.6225,-1.5644,-1.504,-1.4398,-1.3988,-1.3868,-1.3621,-1.3382,-1.321,-1.3238,-1.3218,0.0,-1.3065,-1.3017,0.0,-1.3017,-1.3037,-1.3273,-1.3057,-1.289,-1.2958,-1.2289,-1.2026,-1.2175,0.0,0.0,0.0,-1.1828,-1.1719,-1.1678,-1.1377,-1.1294,-1.1405,-1.1302,-1.1318,-1.1471,-1.1471,-1.1592,-1.1842,-1.193,-1.2191,-1.2533,-1.2724,-1.2643,-1.2433,-1.2484,-1.2497,-1.2405,-1.2192,-1.2713,-1.3354,-1.3302,-1.3302,-1.3285,-1.345,-1.3398,-1.3346,-1.358,-1.3588,-1.3597,-1.3752,-1.3752,-1.37,-1.3718,-1.3761,-1.3812,-1.389,-1.4001,-1.401,-1.395,-1.424,0.0,0.0,0.0,-1.4308,-1.3387,-1.3422,-1.3324,0.0,-1.2684,0.0,0.0,0.0,0.0,0.0,0.0,0.0,0.0,-1.2209,0.0,-1.2389,-1.3134,-1.3511,-1.3511,-1.364,-1.3821,-1.4001,-1.4001,-1.4181,-1.4606,-1.4775,-1.5177,-1.5642,-1.572,-1.6285,-1.7078,-1.7078,-1.7468,-1.8139,-1.8344,-1.8506,-1.8637,-1.7935,-1.7693,-1.7282,-1.6497,-1.5864,-1.5287,-1.464,-1.4035,-1.3668,-1.3668,-1.3372,-1.318,-1.3133,-1.2958,0.0,-1.3084,-1.2968,-1.2968,-1.319,-1.3017,-1.2881,-1.2783,-1.2881,-1.2676,-1.2274,0.0,0.0,-1.1728,-1.1418,-1.1377,-1.1528,-1.1368,-1.1326,-1.1326,-1.1124,-1.1124,-1.1226,-1.1074,-1.1023,-1.1023,-1.0972,-1.1094,-1.1341,-1.1406,-1.1648,-1.2027,-1.226,-1.2137,-1.1936,-1.1994,-1.202,-1.1952,-1.1736,-1.2141,-1.2783,-1.3032,-1.3124,-1.3216,-1.3407,-1.3285,-1.3172,-1.3346,-1.3354,-1.3363,-1.345,-1.3511,-1.345,-1.3407,-1.3459,-1.3511,-1.364,-1.37,-1.37,-1.37,-1.395,-1.401,-1.364,0.0,-1.3989,0.0,0.0,0.0,0.0,-1.2717,-1.2733,0.0,0.0,0.0,0.0,0.0,0.0,-1.1797,-1.2327,0.0,-1.2724,-1.3329,-1.364,-1.3692,-1.3821,-1.401,-1.4189,-1.4189,-1.4428,-1.4843,-1.4883,-1.5235,-1.5662,-1.5604,-1.6114,-1.6965,-1.6965,-1.7357,-1.8018,-1.8193,-1.8344,-1.8518,-1.772,-1.7406,0.0,0.0,-1.5478,0.0,-1.4104,-1.3821,-1.3668,-1.342,-1.3266,-1.3132,-1.3027,-1.2578,-1.2431,-1.2783,0.0,0.0,0.0,-1.2832,-1.2627,-1.2274,-1.2627,-1.2529,-1.1877,-1.2224,-1.2076,-1.1427,-1.1074,-1.0871,-1.0922,-1.0922,-1.0972,-1.1074,-1.0922,-1.0972,-1.1074,-1.0922,-1.0871,-1.0871,-1.0769,-1.0869,-1.1124,-1.104,-1.1185,-1.1511,-1.1712,-1.1768,-1.1743,-1.1911,-1.1894,-1.1822,-1.1576,-1.1595,-1.1811,-1.248,-1.3042,-1.3398,-1.3302,-1.3241,-1.3241,-1.331,-1.331,-1.3302,-1.345,-1.3511,-1.3511,-1.3511,-1.3511,-1.3511,-1.3511,-1.3511,-1.3511,-1.3511,-1.3761,-1.3941,-1.3795,0.0,-1.3989,0.0,0.0,0.0,0.0,-1.2797,-1.3021,0.0,0.0,0.0,0.0,0.0,-1.2219,-1.2043,-1.2651,-1.3038,-1.3212,-1.3578,-1.389,-1.401,-1.401,-1.413,-1.4249,-1.4249,-1.4369,-1.4529,-1.4529,-1.4715,-1.5029,-1.5303,-1.5874,-1.657,-1.6694,-1.719,-1.7788,-1.77,-1.7986,-1.8367,0.0,0.0,-1.6471,-1.5644,-1.4983,-1.4294,-1.3658,-1.3392,-1.322,-1.3162,-1.3065,-1.2871,-1.2529,-1.2382,-1.2224,-1.1977,-1.1977,-1.1977,-1.1977,-1.1977,-1.1927,-1.1828,-1.1927,-1.1927,-1.1769,-1.1528,-1.1267,-1.0871,-1.0769,-1.082,-1.0922,-1.0922,-1.0922,-1.0922,-1.0718,-1.0726,-1.0922,-1.0718,-1.0667,-1.0718,-1.0718,-1.0672,-1.0673,-1.0891,-1.105,-1.1146,-1.1456,-1.1384,-1.1168,-1.1223,-1.0923,-1.0522,-1.0632,-1.0778,-1.1038,-1.1948,-1.2394,-1.2666,-1.2989,-1.2989,-1.2928,-1.305,-1.305,-1.3111,-1.3294,-1.3354,-1.3354,-1.345,-1.3511,-1.3511,-1.3511,-1.3511,-1.3511,-1.3511,-1.3571,-1.3596,-1.3503,-1.3487,0.0,0.0,-1.3161,-1.3199,-1.3055,-1.3447,-1.3553,0.0,0.0,0.0,0.0,-1.3081,-1.3055,-1.2597,-1.2845,-1.3038,-1.3212,-1.3578,-1.401,-1.435,-1.435,-1.4597,-1.497,-1.497,-1.497,-1.5029,-1.4911,-1.497,-1.5156,-1.5303,-1.5642,-1.6104,-1.6513,-1.674,-1.6965,-1.7412,-1.7645,-1.7755,-1.7297,-1.6727,-1.6058,-1.5141,-1.4479,-1.3894,-1.3344,-1.3172,-1.3027,-1.2783,-1.2676,-1.248,-1.2175,-1.1977,-1.1778,-1.1628,-1.1678,-1.1728,-1.1728,-1.1778,-1.1678,-1.1427,-1.1678,-1.1569,-1.1175,-1.1326,-1.1217,-1.0871,-1.0718,-1.0675,-1.0718,-1.0718,-1.0777,-1.082,-1.0565,-1.0675,-1.0871,-1.0403,-1.0241,-1.0344,-1.0087,-0.9991,-0.991,-1.0091,-1.0265,-1.0394,-1.0408,-1.0409,-1.0371,-1.0265,-0.9978,-0.9643,-0.9727,-0.9831,-1.0003,-1.0629,-1.1428,-1.2112,-1.2282,-1.2421,-1.2621,-1.2867,-1.292,-1.305,-1.3241,-1.3302,-1.3363,-1.345,-1.3511,-1.3511,-1.3511,-1.3511,-1.3511,-1.3511,-1.3631,-1.3751,-1.3667,-1.3482,0.0,-1.3282,-1.3243,-1.3212,-1.3212,-1.367,-1.3921,-1.3826,-1.4099,0.0,-1.3723,-1.3798,-1.362,-1.3011,-1.3264,-1.3464,-1.3582,-1.3954,-1.43,-1.4725,-1.4725,-1.4902,-1.5215,-1.5215,-1.5205,-1.5254,-1.5088,-1.5098,-1.5215,-1.5362,-1.5526,-1.5758,-1.64,-1.6694,-1.6751,-1.7301,-1.7579,-1.7689,-1.6921,-1.6299,-1.5576,-1.4595,-1.4025,-1.3546,-1.3027,-1.3027,-1.2881,-1.2274,-1.2274,-1.2175,-1.1828,-1.1528,-1.1368,-1.1427,-1.1528,-1.1528,-1.1528,-1.1669,-1.1528,-1.1074,-1.1477,-1.1326,-1.0522,-1.1175,-1.1326,-1.0972,-1.0667,-1.0522,-1.0522,-1.047,-1.0522,-1.0616,-1.0411,-1.0462,-1.0659,-0.9976,-0.9762,-0.9865,-0.9413,-0.9211,-0.9211,-0.9263,-0.9413,-0.9562,-0.9309,-0.9413,-0.9562,-0.9465,-0.9309,-0.9173,-0.9063,-0.8977,-0.8948,-0.9161,-1.0231,-1.1399,-1.1385,-1.1699,-1.2104,-1.2403,-1.2655,-1.2854,-1.3103,-1.3241,-1.3346,-1.3382,-1.3468,-1.3494,-1.3442,-1.3468,-1.3485,-1.3434,-1.3673,-1.3844,-1.3841,0.0,-1.3522,-1.3579,-1.3362,-1.3232,-1.3232,-1.3756,-1.4181,-1.4419,-1.4597,-1.4784,0.0,-1.4437,-1.3918,-1.3307,-1.3723,-1.395,-1.395,-1.43,-1.4656,-1.497,-1.5029,-1.5088,-1.5205,-1.5205,-1.5313,-1.541,-1.5137,-1.5098,-1.5215,-1.5303,-1.5352,-1.541,-1.6353,-1.6637,-1.6694,-1.7245,-1.7579,-1.7788,-1.6685,-1.572,-1.4744,-1.4236,-1.361,-1.3027,-1.248,-1.2725,-1.2676,-1.1877,-1.2175,-1.2175,-1.1469,-1.1427,-1.1326,-1.1023,-1.0922,-1.0871,-1.0871,-1.0972,-1.0972,-1.0769,-1.082,-1.0769,-1.0522,-1.0522,-1.047,-1.0419,-1.047,-1.0522,-1.0522,-1.0368,-1.0316,-1.0316,-0.9784,-0.9673,-0.9769,-0.9316,-0.9211,-0.9309,-0.9361,-0.9361,-0.9361,-0.951,-0.9562,-0.9562,-0.9413,-0.9465,-0.9562,-0.9465,-0.9263,-0.9049,-0.9146,-0.8922,-0.8664,-0.878,-0.9168,-0.9741,-1.045,-1.0697,-1.088,-1.1152,-1.1511,-1.1947,-1.248,-1.2989,-1.3218,-1.2949,-1.3237,-1.3356,-1.2999,-1.3246,-1.3408,-1.3108,-1.3115,-1.3119,-1.3005,0.0,-1.3203,-1.3376,-1.3414,-1.3425,-1.3425,-1.4016,-1.4359,-1.4061,-1.4606,-1.4725,-1.4189,-1.4258,-1.4112,-1.3742,-1.3606,-1.364,-1.383,-1.43,-1.4588,-1.4775,-1.5029,-1.5264,-1.5362,-1.5362,-1.5362,-1.541,-1.5137,-1.5098,-1.5215,-1.5245,-1.5186,-1.5147,-1.5884,-1.6066,-1.5961,-1.6786,-1.7123,-1.7234,-1.5983,-1.5231,-1.4468,-1.3721,-1.3286,-1.2832,-1.2372,-1.248,-1.2283,-1.1477,-1.1678,-1.1628,-1.1023,-1.1124,-1.1124,-1.0922,-1.082,-1.0769,-1.0718,-1.0769,-1.0718,-1.0624,-1.0667,-1.0624,-1.0419,-1.0213,-1.0154,-1.0154,-1.0205,-1.0316,-1.0368,-1.0213,-1.0051,-0.9888,-0.9569,-0.9354,-0.9242,-0.8837,-0.8791,-0.8935,-0.862,-0.8626,-0.8837,-0.8732,-0.8896,-0.9159,-0.8949,-0.9001,-0.9106,-0.8844,-0.8692,-0.8559,-0.8533,-0.8354,-0.8269,-0.8392,-0.8738,-0.9259,-1.0084,-1.0257,-1.0293,-1.0668,-1.1071,-1.1413,-1.1813,-1.2356,-1.2757,-1.2647,-1.3047,-1.3356,-1.3135,-1.3245,-1.3347,-1.3297,-1.339,0.0,0.0,-1.3453,-1.3508,-1.3685,-1.3417,-1.3277,-1.3511,-1.3881,-1.4031,-1.3817,-1.4216,-1.4305,-1.3741,-1.3732,-1.3717,-1.3673,-1.3767,-1.3881,-1.4181,-1.43,-1.4478,-1.4715,-1.4775,-1.4834,-1.4942,-1.4942,-1.501,-1.5196,-1.4961,-1.497,-1.5215,-1.5137,-1.5137,-1.5245,-1.5884,-1.6114,-1.6239,-1.692,-1.7078,-1.7067,-1.5089,-1.4654,-1.4154,-1.3218,-1.2861,-1.2578,-1.2076,-1.2076,-1.1792,-1.0898,-1.0989,-1.0989,-1.0588,-1.0689,-1.078,-1.0913,-1.0871,-1.082,-1.0726,-1.0667,-1.0624,-1.0573,-1.0573,-1.047,-1.0213,-1.0058,-0.9947,-0.9947,-0.994,-0.9947,-1.0051,-0.9792,-0.9517,-0.9242,-0.9093,-0.8928,-0.8712,-0.8362,-0.8362,-0.8514,-0.7937,-0.7937,-0.8209,-0.8055,-0.8328,-0.8699,-0.8527,-0.8586,-0.8646,-0.8328,-0.8221,-0.8168,-0.7955,-0.7955,-0.8008,-0.8168,-0.8515,-0.908,-0.9731,-0.9754,-0.9726,-1.0279,-1.0661,-1.0975,-1.1301,-1.1882,-1.2343,-1.244,-1.287,-1.3216,-1.3072,-1.3183,-1.3268,-1.3279,0.0,0.0,0.0,-1.357,-1.3545,-1.3761,-1.327,-1.3039,-1.3262,-1.3492,-1.3553,-1.3405,-1.3736,-1.3784,-1.3414,-1.3296,-1.3304,-1.3513,-1.3797,-1.4121,-1.435,-1.424,-1.4309,-1.4538,-1.4529,-1.4469,-1.4469,-1.4469,-1.4656,-1.4843,-1.4656,-1.4725,-1.497,-1.4852,-1.4961,-1.5186,-1.57,-1.6046,-1.6343,-1.6807,-1.692,-1.6786,-1.4264,-1.3898,-1.342,-1.2666,-1.2431,-1.2026,-1.1124,-1.1326,-1.1148,-0.996,-1.0254,-1.0439,-1.0149,-1.0254,-1.0491,-1.0889,-1.0769,-1.0718,-1.0718,-1.0573,-1.0573,-1.0667,-1.047,-1.0162,-0.9851,-0.9799,-0.9799,-0.9799,-0.9673,-0.9517,-0.9263,-0.889,-0.8514,-0.8184,-0.8078,-0.7978,-0.7978,-0.7824,-0.7777,-0.7777,-0.7723,-0.7723,-0.7777,-0.8209,-0.8374,-0.8427,-0.8527,-0.8521,-0.8421,-0.8275,-0.8221,-0.8168,-0.7955,-0.8008,-0.8168,-0.8221,-0.84,-0.8697,-0.8978,-0.8908,-0.8823,-0.9438,-0.9918,-1.0458,-1.1249,-1.1935,-1.2456,-1.2309,-1.2691,-1.2882,-1.2427,-1.2759,-1.2934,-1.2588,0.0,0.0,-1.2597,-1.2597,-1.2721,-1.307,-1.2864,-1.2714,-1.2772,-1.2972,-1.3085,-1.2875,-1.3268,-1.3378,-1.3059,-1.3059,-1.3072,-1.3252,-1.3747,-1.395,-1.383,-1.407,-1.413,-1.407,-1.4359,-1.4469,-1.4469,-1.4469,-1.4529,-1.4529,-1.43,-1.4249,-1.4249,-1.4327,-1.4387,-1.4446,-1.501,-1.5284,-1.541,-1.5989,-1.6171,-1.6228,-1.3268,-1.2944,-1.2535,-1.193,-1.1804,-1.1539,-1.0656,-1.0663,-1.0481,-0.9644,-0.9745,-0.9886,-0.969,-0.9979,-1.0222,-1.0261,-1.0436,-1.0522,-1.047,-1.0419,-1.0419,-1.0565,-1.0419,-1.0051,-0.9577,-0.9577,-0.9309,-0.8771,-0.883,-0.8725,-0.8508,-0.8296,-0.8031,-0.7706,-0.7765,-0.761,-0.7396,-0.7515,-0.7622,-0.767,-0.7521,-0.7729,-0.815,-0.8096,-0.8315,-0.8639,-0.8633,-0.8573,-0.8474,-0.8109,-0.8115,-0.8199,-0.8038,-0.8147,-0.8306,-0.8519,-0.867,-0.8851,-0.9329,-0.911,-0.8844,-0.92,-0.9596,-0.999,-1.0289,-1.1005,-1.171,-1.1829,-1.2212,-1.2573,-1.2627,-1.2769,-1.2879,-1.28,0.0,-1.2723,-1.2775,-1.2715,-1.2764,-1.2972,-1.2805,-1.2633,-1.258,-1.2604,-1.2448,-1.2081,-1.2324,-1.2325,-1.2069,-1.2439,-1.2752,-1.2915,-1.3311,-1.3638,-1.3821,-1.389,-1.395,-1.389,-1.3881,-1.3872,-1.3872,-1.3872,-1.3992,-1.4181,-1.413,-1.4181,-1.4359,-1.4258,-1.4437,-1.4666,-1.4834,-1.5059,-1.5352,-1.5584,-1.5526,-1.541,-1.2111,-1.1953,-1.171,-1.1177,-1.108,-1.0831,-1.0138,-1.0002,-0.977,-0.9241,-0.9255,-0.9308,-0.9247,-0.9642,-0.9891,-0.9914,-1.0205,-1.0419,-1.0324,-1.0316,-1.0316,-1.036,-1.0154,-0.9888,-0.9413,-0.9204,-0.8778,-0.819,-0.815,-0.799,-0.7765,-0.7605,-0.7444,-0.7283,-0.7402,-0.7354,-0.7198,-0.7359,-0.7515,-0.7622,-0.7419,-0.7634,-0.8103,-0.7937,-0.8156,-0.854,-0.8527,-0.8474,-0.8315,-0.8002,-0.7955,-0.8032,-0.7946,-0.806,-0.822,-0.8551,-0.8635,-0.8824,-0.9398,-0.9151,-0.8788,-0.925,-0.9532,-0.9737,-0.9737,-1.0497,-1.1247,-1.156,-1.1934,-1.2305,-1.256,-1.256,-1.2613,-1.2744,-1.2586,-1.2546,-1.272,-1.2586,-1.2514,-1.2627,-1.2418,-1.2217,-1.2086,-1.1995,-1.1779,-1.1494,-1.1557,-1.1602,-1.1486,-1.2093,-1.2464,-1.2464,-1.286,-1.3161,-1.3345,-1.3593,-1.3655,-1.3536,-1.3408,-1.3339,-1.3339,-1.3211,-1.3277,-1.3521,-1.3521,-1.3637,-1.3803,-1.3754,-1.3943,-1.4354,-1.4286,-1.451,-1.4811,-1.4953,-1.4723,-1.4428,-1.0857,-1.1027,-1.1095,-1.04,-1.0237,-1.0018,-0.9476,-0.9267,-0.9096,-0.8725,-0.8687,-0.8723,-0.8897,-0.9191,-0.9533,-0.989,-1.0155,-1.0316,-1.0265,-1.0265,-1.0213,-0.9999,-0.9725,-0.951,-0.9413,-0.8738,-0.8368,-0.8368,-0.7783,-0.7359,-0.7085,-0.681,-0.6701,-0.6701,-0.682,-0.7041,-0.7317,-0.7317,-0.7365,-0.7467,-0.7365,-0.7365,-0.7521,-0.7794,-0.7901,-0.7955,-0.8268,-0.8162,-0.7901,-0.7901,-0.7783,-0.767,-0.7521,-0.7687,-0.7961,-0.8115,-0.8275,-0.8489,-0.9042,-0.8877,-0.8677,-0.9491,-0.9686,-0.9744,-0.9853,-1.0611,-1.1365,-1.156,-1.1872,-1.212,-1.212,-1.212,-1.212,-1.2297,-1.2009,-1.19,-1.2251,-1.1994,-1.1783,-1.1783,-1.161,-1.144,-1.125,-1.1146,-1.1074,-1.1124,-1.1226,-1.1368,-1.1477,-1.2007,-1.2219,-1.2,-1.2356,-1.2546,-1.2381,-1.3059,-1.3261,-1.2971,-1.2971,-1.2971,-1.2963,-1.2569,-1.2389,-1.2389,-1.2389,-1.2389,-1.2389,-1.2555,-1.2846,-1.3203,-1.3349,-1.3398,-1.3442,-1.3969,-1.3744,-1.324,-1.0211,-1.0058,-0.9909,-0.9604,-0.951,-0.9372,-0.8962,-0.8878,-0.8754,-0.8538,-0.849,-0.849,-0.8532,-0.9048,-0.9391,-0.9408,-0.9972,-1.011,-0.9681,-0.9681,-0.9517,-0.9152,-0.9361,-0.9093,-0.8349,-0.8043,-0.7616,-0.6972,-0.7036,-0.6879,-0.65,-0.6652,-0.6652,-0.649,-0.6766,-0.6933,-0.7041,-0.7144,-0.7144,-0.7095,-0.7144,-0.7246,-0.7348,-0.7456,-0.7616,-0.7729,-0.7568,-0.7348,-0.7182,-0.6923,-0.6815,-0.6895,-0.7334,-0.7666,-0.7944,-0.8104,-0.8196,-0.8296,-0.8596,-0.8373,-0.8312,-0.94,-0.9446,-0.9373,-0.9627,-0.981,-1.0111,-1.0791,-1.1041,-1.1231,-1.1646,-1.1767,-1.1767,-1.1827,-1.1534,-1.1349,-1.1449,-1.1372,-1.1368,-1.1425,-1.1396,-1.1256,-1.108,-1.1059,-1.0942,-1.0691,-1.082,-1.0972,-1.1226,-1.1387,-1.1447,-1.1498,-1.1705,-1.1766,-1.161,-1.2353,-1.2681,-1.2569,-1.2569,-1.2569,-1.256,-1.244,-1.2389,-1.2389,-1.2389,-1.2389,-1.2389,-1.2444,-1.2513,-1.2616,-1.2664,-1.272,-1.2737,-1.2859,-1.2811,-1.2645,-0.9469,-0.9269,-0.9148,-0.9014,-0.898,-0.8877,-0.8629,-0.8606,-0.8535,-0.8405,-0.8414,-0.8429,-0.853,-0.8983,-0.9314,-0.9313,-0.9638,-0.9629,-0.9054,-0.8995,-0.8837,-0.8408,-0.8514,-0.8408,-0.799,-0.7616,-0.7187,-0.6652,-0.6766,-0.6657,-0.6386,-0.6598,-0.6707,-0.6707,-0.6825,-0.6933,-0.7041,-0.7036,-0.6982,-0.6982,-0.7036,-0.7192,-0.7402,-0.7402,-0.745,-0.7503,-0.7241,-0.6972,-0.6701,-0.6539,-0.6431,-0.6455,-0.7086,-0.7295,-0.7461,-0.7682,-0.7852,-0.7979,-0.83,-0.8158,-0.8164,-0.9053,-0.9041,-0.8907,-0.9083,-0.9155,-0.9329,-0.9748,-0.9933,-1.0112,-1.046,-1.0637,-1.0821,-1.0938,-1.0723,-1.0617,-1.08,-1.0598,-1.0516,-1.0572,-1.0565,-1.0501,-1.0333,-1.0303,-1.0219,-1.0066,-1.0249,-1.0395,-1.06,-1.0761,-1.0922,-1.0972,-1.1175,-1.1226,-1.1124,-1.1616,-1.1976,-1.2175,-1.2175,-1.2175,-1.2166,-1.2021,-1.1944,-1.1944,-1.1944,-1.1944,-1.1944,-1.1944,-1.2038,-1.2175,-1.2175,-1.2175,-1.2192,-1.2338,-1.2201,-1.204,-0.8724,-0.8643,-0.8643,-0.8635,-0.8521,-0.8439,-0.8439,-0.8406,-0.8373,-0.8373,-0.8373,-0.8466,-0.8691,-0.8973,-0.9259,-0.946,-0.9292,-0.8949,-0.8368,-0.8315,-0.8103,-0.767,-0.7402,-0.7509,-0.7943,-0.7354,-0.7031,-0.7031,-0.681,-0.6707,-0.6652,-0.6707,-0.681,-0.7031,-0.6928,-0.7041,-0.7257,-0.6987,-0.6928,-0.7031,-0.6874,-0.7036,-0.7359,-0.7359,-0.7295,-0.7182,-0.7128,-0.675,-0.6273,-0.6372,-0.6263,-0.6154,-0.6603,-0.6652,-0.6647,-0.7095,-0.7311,-0.7563,-0.8034,-0.803,-0.7962,-0.8459,-0.8405,-0.8283,-0.8451,-0.8598,-0.8691,-0.8574,-0.8691,-0.8808,-0.8866,-0.9215,-0.9562,-0.9843,-0.9715,-0.9791,-1.0187,-0.9764,-0.9425,-0.948,-0.948,-0.937,-0.9239,-0.9211,-0.9263,-0.9413,-0.9614,-0.9762,-0.9762,-1.0146,-1.036,-1.036,-1.0616,-1.0769,-1.0769,-1.0913,-1.1234,-1.1737,-1.1737,-1.1737,-1.1728,-1.143,-1.1326,-1.1326,-1.1326,-1.1326,-1.1326,-1.1326,-1.1473,-1.1737,-1.1737,-1.1737,-1.178,-1.2166,-1.1858,-1.1421,-0.8373,-0.8291,-0.8283,-0.8185,-0.8144,-0.8103,-0.8103,-0.8201,-0.8258,-0.8258,-0.8332,-0.8466,-0.8691,-0.8973,-0.9212,-0.932,-0.9139,-0.8685,-0.7883,-0.783,-0.7622,-0.709,-0.7036,-0.6977,-0.7025,-0.6707,-0.6544,-0.6544,-0.6652,-0.6544,-0.6337,-0.6598,-0.6652,-0.6544,-0.6707,-0.682,-0.6987,-0.6815,-0.6761,-0.6756,-0.6485,-0.6381,-0.6445,-0.6268,-0.6213,-0.6218,-0.5723,-0.5449,-0.5171,-0.5011,-0.5062,-0.5226,-0.5555,-0.5937,-0.6317,-0.6544,-0.6869,-0.7166,-0.7219,-0.7075,-0.7067,-0.7307,-0.7274,-0.7389,-0.8055,-0.7883,-0.7681,-0.7972,-0.813,-0.8238,-0.847,-0.887,-0.9151,-0.8914,-0.9072,-0.9125,-0.9025,-0.8985,-0.9004,-0.9111,-0.9111,-0.9136,-0.9218,-0.9309,-0.9361,-0.9413,-0.9465,-0.9465,-0.9361,-0.942,-0.9472,-0.9472,-0.9621,-0.9725,-0.9725,-1.0174,-1.0683,-1.1243,-1.1345,-1.1396,-1.1396,-1.131,-1.1326,-1.1326,-1.1326,-1.1326,-1.1326,-1.1326,-1.1319,-1.1396,-1.1396,-1.1396,-1.1404,-1.149,-1.1464,-1.1293,-0.7878,-0.7836,-0.7787,-0.7739,-0.7731,-0.7773,-0.7863,-0.7961,-0.8085,-0.8118,-0.8299,-0.8532,-0.8708,-0.9035,-0.9167,-0.8894,-0.8495,-0.7996,-0.7354,-0.7187,-0.6977,-0.6657,-0.6608,-0.6549,-0.6544,-0.6436,-0.6436,-0.6544,-0.6652,-0.6598,-0.644,-0.6598,-0.6652,-0.6544,-0.6652,-0.6761,-0.6761,-0.6431,-0.6268,-0.6209,-0.5773,-0.5664,-0.5782,-0.5609,-0.5555,-0.5555,-0.5226,-0.4956,-0.4794,-0.4574,-0.4629,-0.4849,-0.4959,-0.5285,-0.5609,-0.5828,-0.6213,-0.6618,-0.6734,-0.687,-0.6946,-0.7074,-0.7069,-0.7154,-0.7569,-0.7327,-0.7046,-0.7268,-0.7212,-0.7175,-0.722,-0.7574,-0.7853,-0.7669,-0.7801,-0.8012,-0.8094,-0.8074,-0.8124,-0.8349,-0.8368,-0.8421,-0.858,-0.8738,-0.8844,-0.8844,-0.8896,-0.8896,-0.8844,-0.8942,-0.8995,-0.8995,-0.9204,-0.9316,-0.9316,-0.9666,-0.9976,-1.0293,-1.0863,-1.1124,-1.1124,-1.1023,-1.1023,-1.1023,-1.1074,-1.1124,-1.1124,-1.1226,-1.1326,-1.1267,-1.1226,-1.1226,-1.1267,-1.1226,-1.1226,-1.1326,-0.7328,-0.7335,-0.7328,-0.7328,-0.7363,-0.7447,-0.7628,-0.7712,-0.7787,-0.7897,-0.8139,-0.8386,-0.8633,-0.9007,-0.8931,-0.8296,-0.7836,-0.7359,-0.6825,-0.6603,-0.6436,-0.6386,-0.6282,-0.6228,-0.6386,-0.6386,-0.6436,-0.6652,-0.6652,-0.6647,-0.6598,-0.6598,-0.6598,-0.6598,-0.6598,-0.6598,-0.6598,-0.5996,-0.5778,-0.5719,-0.5062,-0.4952,-0.5171,-0.5117,-0.5058,-0.4944,-0.4889,-0.4732,-0.4522,-0.4408,-0.4467,-0.4636,-0.4577,-0.4684,-0.4901,-0.5117,-0.5504,-0.5927,-0.6266,-0.6591,-0.6869,-0.692,-0.6982,-0.7038,-0.7094,-0.6894,-0.6647,-0.6598,-0.6357,-0.6133,-0.5991,-0.6292,-0.6574,-0.6558,-0.6734,-0.7011,-0.7428,-0.7366,-0.7344,-0.7646,-0.767,-0.7729,-0.7901,-0.8008,-0.8115,-0.8168,-0.8215,-0.8262,-0.8262,-0.8468,-0.8567,-0.862,-0.8784,-0.8896,-0.8896,-0.9099,-0.9152,-0.9204,-1.0087,-1.0608,-1.0659,-1.0557,-1.0514,-1.0608,-1.0659,-1.0769,-1.0871,-1.1074,-1.1175,-1.1175,-1.0964,-1.1015,-1.1124,-1.0964,-1.1015,-1.1116,-0.707,-0.6992,-0.6992,-0.7027,-0.7034,-0.7083,-0.737,-0.7238,-0.7196,-0.7454,-0.7543,-0.7711,-0.8172,-0.8598,-0.8528,-0.7676,-0.7777,-0.745,-0.6544,-0.6712,-0.6663,-0.6228,-0.6232,-0.6232,-0.6232,-0.6232,-0.6277,-0.6436,-0.6436,-0.6386,-0.6282,-0.6282,-0.6282,-0.6282,-0.6282,-0.6282,-0.6228,-0.5786,-0.5622,-0.5563,-0.4846,-0.4629,-0.4743,-0.4467,-0.4349,-0.4288,-0.407,-0.3962,-0.3907,-0.3907,-0.4076,-0.4249,-0.4135,-0.4411,-0.4743,-0.4798,-0.5018,-0.5242,-0.5266,-0.5325,-0.5487,-0.5868,-0.6142,-0.6415,-0.6693,-0.6618,-0.6381,-0.6282,-0.6081,-0.6001,-0.6108,-0.6403,-0.6577,-0.643,-0.6876,-0.7153,-0.7036,-0.7256,-0.7481,-0.7515,-0.7622,-0.7729,-0.7901,-0.7836,-0.7836,-0.7955,-0.7836,-0.7777,-0.7777,-0.7729,-0.7729,-0.783,-0.7777,-0.7729,-0.7729,-0.8103,-0.8262,-0.8262,-0.883,-0.9354,-0.9769,-0.9621,-0.9769,-1.0072,-0.9969,-1.019,-1.0573,-1.0565,-1.0624,-1.0565,-1.0285,-1.0344,-1.0565,-1.0285,-1.0218,-1.0372,-0.6441,-0.6404,-0.6404,-0.6441,-0.6532,-0.6666,-0.6829,-0.6781,-0.6832,-0.7124,-0.7302,-0.754,-0.7928,-0.7959,-0.7771,-0.73,-0.7241,-0.6912,-0.6218,-0.644,-0.6445,-0.6014,-0.6064,-0.6064,-0.5959,-0.6123,-0.6173,-0.6064,-0.6168,-0.6168,-0.6059,-0.6059,-0.6059,-0.6114,-0.6173,-0.6064,-0.5841,-0.5399,-0.5014,-0.4684,-0.4132,-0.3855,-0.3796,-0.3747,-0.3688,-0.3572,-0.3688,-0.3691,-0.3691,-0.3691,-0.3858,-0.4024,-0.3633,-0.3747,-0.4082,-0.3968,-0.4187,-0.4405,-0.4463,-0.468,-0.4952,-0.5391,-0.5714,-0.5932,-0.6213,-0.6277,-0.6277,-0.6337,-0.6206,-0.6081,-0.6053,-0.6129,-0.6159,-0.6083,-0.6278,-0.6478,-0.656,-0.6733,-0.6939,-0.723,-0.7461,-0.7622,-0.7681,-0.7628,-0.7622,-0.7681,-0.7628,-0.7568,-0.7568,-0.7515,-0.7568,-0.7723,-0.7568,-0.7515,-0.7616,-0.7729,-0.7783,-0.7783,-0.799,-0.8461,-0.9145,-0.8995,-0.904,-0.9242,-0.9295,-0.9451,-0.9666,-0.988,-0.9991,-0.9984,-0.9769,-0.9777,-0.9888,-0.9821,-0.9814,-0.9917]}]]